GFSGBSN_sfc_rhum_000.txt.gz
RH
70 76 78 74 76 81 79 81 82 78 74 70 67 67 67 68 67 68 67 67 68 68 71 72 74 80 73 74 60 48 51 45 42 54 62 59 57 50 63 58 49 50 42 34 32 31 30
66 73 80 77 77 81 80 75 81 82 78 74 70 68 69 70 70 72 71 69 68 70 71 73 74 81 76 75 32 30 41 37 37 43 58 55 53 44 45 51 60 47 43 43 36 30 30
71 69 75 78 76 80 82 79 81 82 78 78 72 70 74 75 71 73 74 74 70 70 70 72 74 68 70 60 31 29 34 37 35 36 44 46 48 59 44 50 46 50 70 45 43 34 32
73 72 71 76 77 81 82 83 84 83 77 78 75 74 76 79 78 77 76 74 75 74 73 74 73 64 75 42 39 35 32 36 32 32 37 38 41 54 59 55 64 71 72 85 49 36 34
73 71 72 77 78 80 81 84 85 85 79 77 77 78 77 79 81 83 82 78 77 74 74 76 73 71 69 45 50 39 36 40 34 32 38 33 43 61 63 73 89 80 84 84 68 41 36
86 72 76 78 81 80 79 81 84 86 84 83 84 83 81 79 82 84 84 79 80 80 74 60 61 85 63 56 46 42 37 39 42 40 43 53 61 70 77 84 89 81 91 66 74 50 39
80 86 79 80 81 81 79 80 82 84 85 88 86 86 83 83 84 84 82 79 86 92 86 68 65 59 48 43 41 45 40 44 46 52 67 54 79 85 71 70 68 60 61 71 53 46 44
75 83 83 83 81 81 81 79 82 83 86 88 88 88 85 84 84 84 77 79 72 85 93 78 57 60 47 46 56 50 40 56 61 75 60 67 84 58 50 52 63 64 76 77 54 42 43
69 77 92 90 81 80 81 80 81 83 86 88 88 88 85 84 83 86 82 73 74 75 98 84 76 65 57 55 60 55 50 54 60 70 65 74 61 51 50 50 58 62 77 81 68 47 49
68 68 81 85 89 80 79 81 81 82 86 89 87 86 85 87 84 70 85 70 78 82 100 87 88 75 64 73 82 48 44 53 61 66 60 64 50 47 55 56 51 67 56 65 78 68 74
69 70 70 79 87 89 81 79 80 82 87 90 87 86 86 80 79 78 82 85 87 91 98 76 83 56 62 86 64 62 49 54 66 59 56 78 54 52 53 57 46 59 55 67 82 87 82
70 74 71 80 83 87 88 79 81 83 88 92 88 86 88 87 80 83 84 80 87 99 94 82 83 92 88 80 70 65 60 55 52 67 55 56 46 52 55 51 62 48 64 76 92 90 94
69 72 74 76 82 89 88 81 80 82 88 93 90 88 86 60 75 82 83 92 100 99 68 95 91 79 73 90 88 83 72 76 82 97 98 96 81 63 76 86 64 68 77 98 99 99 78
68 72 75 79 84 87 87 87 80 82 88 94 93 90 83 58 80 81 86 97 100 54 67 82 86 86 98 86 90 84 75 81 69 76 89 86 78 78 69 90 77 83 86 99 97 95 62
66 72 76 83 86 87 88 88 81 82 89 95 96 96 92 77 80 81 93 99 78 70 72 94 95 98 99 94 82 79 70 91 60 60 99 99 86 60 57 61 79 91 98 79 100 39 58
68 70 78 79 84 87 87 88 83 86 94 97 98 98 93 75 86 93 99 91 81 68 84 90 96 73 84 83 72 63 59 49 59 54 58 89 97 70 70 75 75 88 70 98 87 62 70
67 69 74 78 88 88 87 83 87 96 96 91 95 99 76 82 94 99 98 89 74 64 77 90 71 60 50 66 61 51 48 43 47 48 71 87 96 94 85 94 87 98 97 91 77 60 57
63 69 73 82 89 88 85 84 93 91 97 90 97 99 81 88 99 97 97 79 85 78 76 81 74 60 41 47 54 50 57 50 36 39 63 88 98 100 94 76 75 80 77 76 58 68 58
58 66 74 81 87 88 87 91 94 90 92 96 97 96 93 88 98 98 85 82 86 86 84 81 66 43 35 37 45 40 51 40 35 62 76 87 98 99 99 94 82 93 78 63 60 53 64
56 64 74 81 83 87 86 86 97 93 86 86 97 99 100 99 88 89 91 93 95 80 82 71 61 46 42 41 36 63 45 45 43 47 81 84 88 99 92 73 76 86 80 69 61 64 54
56 61 69 75 81 84 90 90 97 94 88 96 96 91 84 98 96 93 91 89 94 95 80 73 62 53 54 53 48 44 53 45 43 45 70 89 97 78 50 54 57 60 62 57 57 52 63
56 59 68 70 82 82 83 90 93 96 93 98 97 84 84 86 71 80 90 91 93 89 92 76 69 66 65 54 46 50 44 48 48 49 46 65 82 70 52 45 49 58 56 56 56 53 51
54 58 65 70 74 80 84 89 94 96 93 99 97 83 82 68 76 89 85 84 86 86 84 77 74 61 74 55 47 34 38 38 46 51 59 67 77 69 65 53 50 62 52 53 54 51 51
56 57 64 69 73 77 82 91 93 96 90 91 89 93 96 84 56 62 63 65 84 88 90 82 72 80 66 53 55 57 57 57 50 49 48 73 80 70 69 61 82 52 44 41 45 44 43
56 56 62 69 72 79 80 87 87 90 96 92 89 96 98 92 65 52 46 72 90 93 98 88 80 62 74 60 76 87 87 81 73 63 71 54 70 85 88 83 61 52 43 47 48 50 40
56 56 62 68 72 77 77 84 89 91 95 97 92 95 97 95 77 53 61 82 92 96 98 93 74 65 73 69 82 97 92 93 98 90 73 65 67 89 89 80 81 54 49 37 41 60 45
56 56 63 68 73 76 76 87 90 91 95 97 97 88 97 98 75 59 64 84 92 94 95 86 85 80 88 72 83 92 96 82 97 94 96 92 91 97 93 90 76 49 46 44 54 62 48
55 58 62 68 74 77 78 84 90 92 94 96 96 88 95 95 80 68 63 78 96 98 91 78 84 85 97 89 89 87 74 77 90 77 86 86 88 93 96 99 92 48 53 58 61 56 50
56 58 61 68 73 78 79 81 87 88 94 94 99 89 94 98 91 75 68 73 85 94 93 86 83 72 83 88 83 70 69 56 62 90 66 82 74 78 81 73 59 55 62 58 54 53 54

GFSGBSN_sfc_rhum_003.txt.gz
RH
71 72 73 71 76 78 81 82 82 85 78 74 71 68 67 67 67 66 67 66 67 68 69 72 75 82 83 88 87 58 50 49 52 60 71 76 81 76 79 74 73 70 56 49 45 44 40
75 76 76 76 78 80 79 80 82 86 82 77 74 71 68 69 70 70 72 70 68 68 71 71 74 82 89 98 46 46 50 45 44 62 75 74 73 63 67 64 69 66 60 48 43 40 37
80 84 76 77 77 81 79 82 82 82 80 77 77 75 75 71 71 70 73 74 73 70 69 71 71 74 90 77 45 46 43 45 44 45 51 68 67 73 72 76 58 58 68 62 60 44 43
72 75 88 75 78 79 81 84 84 84 80 77 78 80 78 78 75 77 76 76 75 76 72 72 72 82 91 51 52 48 47 42 42 42 44 45 47 60 72 65 69 76 75 89 61 56 46
61 70 79 88 78 79 81 83 84 86 84 79 81 82 80 80 82 83 84 79 78 75 72 72 86 92 88 53 62 52 49 45 43 42 44 35 52 62 72 89 88 91 86 91 80 56 52
59 62 72 80 86 80 80 82 82 83 84 84 83 83 83 82 84 84 85 78 76 80 74 68 70 86 74 64 55 52 49 45 49 51 50 62 71 83 90 93 90 75 92 76 88 64 56
60 62 66 76 84 83 79 81 82 82 82 83 86 87 86 84 85 85 86 93 94 98 88 86 77 66 50 55 48 57 49 54 54 65 83 66 92 92 84 83 72 72 70 71 68 59 63
61 63 60 71 77 84 86 82 82 82 83 83 86 88 88 85 86 86 86 90 85 85 93 77 70 67 51 51 63 58 49 65 70 77 78 82 87 68 62 62 71 78 88 84 66 61 77
58 64 67 68 71 74 88 84 81 81 82 84 88 90 88 87 87 92 94 78 82 72 94 80 77 73 63 61 69 67 58 63 76 88 82 88 66 54 59 63 70 72 87 82 74 65 64
58 59 65 68 70 72 84 93 86 79 80 81 86 91 88 88 90 92 90 76 82 73 100 78 85 76 69 69 79 54 53 59 73 86 76 81 61 60 62 69 61 76 54 58 64 70 92
59 61 67 66 75 70 79 90 91 88 79 84 87 90 89 76 84 90 89 88 85 88 98 79 79 60 63 81 67 70 51 62 78 76 77 82 71 72 71 64 56 65 48 54 67 79 88
57 61 66 67 73 76 77 78 92 91 84 85 90 88 89 85 88 94 86 79 85 95 94 90 82 87 82 81 71 60 64 60 66 76 73 70 56 61 59 49 46 55 70 68 75 82 98
51 60 67 68 70 75 79 81 88 89 89 89 92 88 87 71 91 89 82 92 99 97 68 92 92 86 79 86 82 72 90 95 98 100 99 86 93 73 78 81 66 69 77 93 98 99 89
52 59 67 69 69 87 83 83 88 91 92 96 91 90 78 66 85 86 91 97 99 69 75 79 84 76 92 73 84 80 97 98 91 89 95 94 92 78 76 82 76 80 74 86 91 91 70
56 60 67 69 69 78 84 88 83 89 90 97 94 93 87 88 83 81 94 98 85 72 75 88 90 100 99 85 81 92 91 98 71 81 91 95 89 70 58 66 65 79 85 66 97 89 81
53 54 61 69 77 77 85 84 82 87 94 97 97 96 91 84 79 88 97 85 85 70 80 86 98 95 78 79 95 96 90 77 72 66 60 83 96 76 69 65 68 63 61 93 99 99 98
49 52 55 69 77 84 90 83 87 93 93 96 95 99 92 86 92 98 99 91 77 62 73 90 94 91 78 79 86 84 70 56 55 56 62 78 91 83 84 87 80 89 92 76 73 84 98
51 55 54 67 71 86 88 89 89 84 92 98 98 98 96 93 99 95 97 79 71 79 72 83 87 79 81 68 74 76 66 49 54 52 71 76 98 98 84 71 63 70 83 64 76 92 92
53 55 55 64 70 85 85 86 84 92 94 98 96 99 97 89 98 98 82 80 72 80 80 85 88 76 65 66 94 66 64 54 49 57 77 84 98 98 100 96 89 84 76 73 65 90 94
55 54 55 62 70 82 83 84 82 92 95 97 99 98 100 99 91 88 87 84 87 80 85 81 82 81 79 62 59 62 53 49 51 48 77 76 95 100 96 92 81 94 70 83 89 98 60
57 53 55 57 67 74 81 83 86 92 93 94 98 94 86 96 97 94 84 86 89 94 88 82 84 85 78 68 57 61 62 59 52 75 77 82 100 100 91 85 83 74 79 90 99 74 48
56 54 55 56 65 70 82 85 88 89 96 97 98 96 89 88 79 94 93 95 91 90 90 87 91 72 70 83 57 62 58 63 54 70 73 79 98 98 87 79 76 78 80 69 60 63 54
58 54 54 56 62 69 76 82 87 91 95 99 99 94 83 84 86 92 89 86 85 79 85 76 78 83 82 74 66 66 68 49 45 44 61 85 93 95 83 67 76 78 66 67 64 62 58
58 54 55 54 65 69 76 80 86 90 92 99 96 98 94 91 84 81 80 81 86 84 82 81 85 87 72 68 64 65 70 65 50 53 52 70 78 77 87 63 80 54 47 55 57 56 57
60 55 55 55 66 71 72 80 87 86 87 98 97 97 97 96 81 83 72 65 86 88 96 86 77 68 74 78 93 94 92 76 76 74 75 65 84 87 92 90 65 51 48 52 58 60 52
60 55 55 56 66 69 74 78 88 86 86 98 93 95 97 95 91 74 75 87 92 89 95 91 88 76 88 81 92 99 99 94 95 83 75 65 73 86 93 85 84 56 51 43 47 63 53
61 60 56 57 64 69 73 77 87 87 87 97 97 90 97 97 82 80 80 86 88 95 98 96 91 86 86 94 96 95 94 85 90 92 91 86 86 92 93 95 78 54 51 46 59 59 54
61 62 56 57 61 70 73 76 85 89 89 98 98 91 94 96 85 74 66 90 98 97 97 93 93 94 97 96 96 94 89 95 95 86 70 78 95 94 91 97 92 53 54 44 53 64 62
62 58 58 59 61 66 73 73 80 88 88 94 99 92 94 96 92 83 74 74 79 91 97 96 97 87 85 91 89 84 80 85 88 94 76 87 78 82 77 70 62 65 64 63 57 56 67

GFSGBSN_sfc_rhum_006.txt.gz
RH
74 80 88 76 72 76 79 81 82 82 76 79 76 72 70 68 69 69 68 66 66 68 70 73 77 82 83 99 91 56 48 53 59 67 81 85 91 86 86 79 77 84 68 62 60 57 54
69 68 75 80 85 79 76 77 81 83 80 80 78 75 72 70 71 72 72 72 68 68 70 72 75 80 88 93 55 47 56 53 57 67 78 82 88 77 81 77 77 67 67 64 57 53 54
58 60 62 70 79 90 80 80 82 84 82 78 80 79 79 74 72 72 72 74 74 72 70 69 71 76 96 81 51 53 48 55 49 54 76 76 76 88 80 83 67 68 78 67 61 64 57
64 62 60 62 71 81 88 82 84 84 82 81 79 82 83 80 76 77 74 76 75 77 73 72 72 86 96 56 59 56 54 54 44 44 48 46 55 75 73 68 75 85 85 91 65 60 63
60 63 61 63 64 70 80 86 83 84 83 82 83 84 85 82 82 83 84 80 78 76 73 74 86 90 91 56 67 56 56 57 47 47 48 36 49 63 70 86 88 92 96 87 76 62 64
55 53 59 65 62 64 72 83 85 83 82 81 84 85 86 84 84 86 85 80 76 81 77 74 75 91 77 68 59 57 54 52 54 55 54 66 68 85 91 89 91 76 89 79 77 75 68
55 55 54 62 66 66 66 74 80 86 81 81 82 85 87 86 86 86 86 93 89 93 91 85 77 73 52 58 53 62 55 55 61 66 84 72 93 89 82 84 80 82 89 81 75 60 69
54 54 63 61 63 67 68 69 76 88 82 79 78 85 88 87 85 88 89 94 81 75 95 80 75 71 59 58 67 64 54 70 70 89 83 88 89 72 70 73 79 86 85 86 69 55 66
51 49 60 64 59 62 69 69 74 88 87 81 79 84 88 88 86 91 90 86 80 77 96 83 81 80 70 62 69 73 60 69 67 73 69 88 67 55 67 77 82 82 84 82 85 66 57
53 51 48 63 62 62 67 70 74 87 93 83 80 85 88 88 91 97 92 84 82 76 99 81 86 82 73 67 79 55 52 61 73 81 73 76 67 69 68 75 74 88 66 69 70 82 94
54 57 49 61 62 68 69 72 75 80 89 94 82 82 89 78 90 96 80 88 85 83 81 70 86 60 68 78 68 74 53 60 87 84 84 84 82 82 77 70 63 76 58 61 68 78 88
54 53 54 63 63 72 70 72 78 78 85 95 95 87 89 87 93 89 90 83 85 95 91 93 87 90 90 82 72 65 69 62 68 78 76 75 63 68 68 58 54 64 68 68 73 86 95
53 54 55 58 63 74 71 77 83 78 81 93 93 92 85 76 95 90 81 88 97 97 67 91 91 90 85 86 82 76 91 95 99 99 99 98 94 78 73 80 70 65 78 95 98 99 86
55 53 52 51 55 70 74 74 82 79 83 89 92 93 78 72 88 83 88 96 96 67 84 80 84 88 91 73 87 78 91 97 89 97 99 96 98 90 71 73 78 74 71 88 93 97 85
60 56 53 52 56 66 73 78 85 78 84 88 88 96 90 94 84 79 88 98 86 75 75 86 82 93 93 88 80 94 96 88 68 93 95 97 91 71 68 66 62 81 84 61 82 78 95
60 57 51 57 54 66 75 78 82 83 84 89 96 96 92 87 78 86 95 78 84 72 82 80 94 92 89 86 89 91 91 73 83 75 70 80 98 76 74 74 67 67 63 87 86 100 94
58 57 55 52 56 63 75 82 85 87 87 88 98 98 90 83 84 96 97 92 81 74 77 84 92 96 88 79 88 85 86 73 74 68 74 86 92 97 84 88 78 86 78 75 65 77 98
57 56 57 54 57 63 73 85 82 86 84 92 96 100 94 92 99 98 97 79 67 77 77 76 83 92 90 78 91 89 87 65 60 60 88 72 96 97 83 70 73 64 66 63 75 76 79
62 57 56 52 62 66 72 81 80 88 92 99 97 98 95 90 98 97 83 76 69 78 77 78 90 84 80 71 81 76 66 53 53 61 76 80 98 98 96 90 80 91 68 70 71 74 90
65 59 57 54 60 64 71 76 82 86 88 99 98 99 99 99 91 83 84 83 83 77 71 71 84 80 84 76 66 69 69 55 54 49 68 73 94 100 92 95 88 90 75 68 76 89 76
66 60 58 53 56 61 72 77 84 86 88 99 99 95 86 98 98 86 80 81 85 84 82 84 89 90 87 91 79 77 62 52 58 67 80 83 100 100 95 94 96 96 78 81 98 80 75
65 62 60 53 56 56 70 77 82 84 89 100 98 97 86 86 77 93 86 89 83 80 84 92 94 79 82 86 63 67 61 63 58 73 86 87 98 100 96 83 79 94 81 80 83 84 89
62 63 61 53 54 60 71 77 80 85 91 98 99 93 78 84 83 92 91 84 86 80 81 74 83 84 87 81 64 70 72 63 57 72 78 88 94 100 100 87 86 94 79 83 94 88 86
61 62 60 56 54 63 69 74 79 86 90 99 97 96 94 96 89 85 80 82 87 83 81 83 78 86 69 70 72 80 75 83 64 55 56 83 86 89 99 96 87 56 62 67 83 79 82
60 60 61 59 55 62 68 74 80 84 86 98 98 97 95 94 79 78 79 84 80 90 91 81 81 74 67 78 90 90 94 92 86 69 70 70 77 95 96 94 70 55 51 66 66 66 56
61 61 61 60 56 61 68 73 81 88 90 97 99 97 96 95 92 71 78 78 90 92 94 92 90 85 85 90 95 99 93 88 92 94 80 72 76 88 94 90 81 59 55 50 52 70 51
62 64 59 56 57 62 66 71 78 87 89 96 98 95 96 96 81 83 83 85 88 93 95 95 95 98 90 95 97 99 95 87 97 92 96 90 89 95 94 95 82 61 56 54 66 59 58
62 63 61 57 59 60 62 70 74 80 86 96 98 92 92 93 84 70 70 92 97 92 94 93 99 97 99 98 97 96 78 96 93 89 89 90 93 89 89 96 93 64 55 51 51 71 73
60 64 65 59 61 62 63 69 73 75 85 90 99 95 93 95 93 84 75 72 76 79 92 98 97 94 89 94 93 94 86 98 81 96 83 89 82 80 84 80 66 74 71 74 60 67 74

GFSGBSN_sfc_rhum_009.txt.gz
RH
61 60 61 63 66 73 85 80 80 83 77 75 79 77 75 72 70 71 70 70 68 69 70 74 77 81 86 94 89 59 55 58 67 78 87 84 91 90 90 86 83 89 82 64 65 66 64
62 64 64 62 62 66 70 82 83 81 79 76 80 81 78 74 72 73 73 73 70 69 72 73 76 78 87 93 56 51 51 57 64 72 88 90 90 87 90 86 84 76 72 70 67 62 62
54 55 56 62 65 64 66 72 86 84 81 77 78 81 83 80 73 73 74 74 75 73 70 70 72 76 95 79 55 57 49 60 57 72 80 82 85 89 86 89 76 76 87 75 69 67 71
55 58 58 56 62 67 64 71 78 88 81 78 80 81 85 83 80 77 76 74 77 77 74 72 72 88 91 59 61 59 55 56 52 54 54 56 76 89 83 70 75 84 90 96 69 65 65
54 54 54 60 63 68 67 67 72 77 84 83 81 81 84 85 83 81 83 78 78 77 74 74 86 90 90 56 72 60 58 56 51 49 51 37 51 69 69 85 85 91 91 89 78 62 66
53 53 52 52 62 64 66 65 68 71 74 86 83 80 81 87 85 85 85 82 77 80 79 72 74 94 79 70 62 60 60 55 56 56 56 63 70 78 85 90 90 78 97 90 87 76 71
53 53 51 51 52 60 64 63 66 70 69 82 90 81 80 84 86 87 86 88 87 90 91 87 83 76 56 60 54 65 57 59 61 67 81 75 93 95 76 87 79 91 88 83 72 62 74
53 53 52 55 51 54 64 65 66 66 72 75 90 87 81 85 87 86 89 87 80 72 94 81 80 74 64 62 71 66 54 71 78 86 83 88 95 79 70 74 80 84 87 85 64 56 60
53 54 51 57 53 58 63 65 70 70 72 76 89 93 82 86 88 92 84 79 78 80 94 82 85 82 76 67 71 74 62 72 85 93 90 90 72 63 67 77 88 89 95 79 79 71 63
54 54 52 53 52 60 62 69 68 69 73 79 92 93 82 87 95 87 90 80 82 76 98 78 94 86 77 71 79 58 58 67 78 90 73 76 60 70 74 78 79 86 74 75 76 85 88
56 57 56 57 52 55 63 71 75 70 72 82 91 93 84 91 94 96 79 87 82 74 88 74 92 62 70 76 71 77 59 61 75 86 85 89 91 83 81 75 68 74 66 69 76 89 93
61 59 59 57 53 52 62 68 79 70 75 82 86 91 94 92 90 81 83 82 84 91 90 89 91 89 90 82 71 71 70 59 71 76 78 78 71 78 78 66 62 66 78 78 79 84 96
61 62 61 56 53 56 70 74 82 73 79 78 86 91 94 79 91 87 79 89 97 95 71 92 83 93 78 90 80 77 88 93 95 100 97 97 89 82 77 80 71 65 82 97 97 97 85
58 59 61 58 57 56 58 67 81 79 81 77 84 91 89 76 89 81 83 92 97 66 86 82 82 94 90 83 86 87 90 93 84 98 99 96 98 88 80 82 82 79 73 88 88 96 86
63 62 59 59 58 54 57 62 70 78 86 83 86 98 92 95 80 75 82 97 84 72 74 90 82 89 90 74 75 83 90 82 70 84 97 99 95 84 77 62 68 96 98 65 70 68 97
67 66 62 58 59 53 57 64 74 85 86 85 98 97 92 89 75 81 91 82 77 74 80 77 88 77 79 82 90 94 85 79 75 72 68 86 95 78 75 73 72 73 67 95 96 96 94
65 66 64 59 58 54 57 61 77 84 84 88 99 96 93 87 80 93 98 87 80 73 77 85 75 81 76 86 89 74 69 75 75 75 76 88 91 90 83 92 83 86 87 71 71 83 95
66 65 65 60 60 54 57 63 73 83 85 91 96 99 98 91 98 98 97 74 70 77 82 81 81 71 82 82 94 92 91 75 71 75 92 77 91 97 78 69 63 64 71 69 96 87 74
66 64 65 62 59 55 58 65 73 81 86 99 97 97 96 88 98 98 80 69 74 72 78 75 83 76 76 77 90 88 77 60 69 69 81 75 99 94 99 93 89 92 82 67 65 78 82
65 63 64 62 61 58 61 66 73 81 84 98 98 100 99 98 91 85 76 83 88 74 68 68 80 78 85 86 71 79 76 61 60 60 66 72 98 98 87 91 98 95 83 69 66 82 73
63 62 63 62 57 54 60 68 75 82 82 98 98 96 90 98 98 82 76 77 87 91 77 74 88 86 85 87 78 80 71 61 59 65 78 91 100 100 92 85 94 95 85 77 78 67 73
61 61 63 60 61 54 60 68 76 85 88 99 99 97 87 88 77 72 80 80 84 76 82 91 95 80 86 94 69 72 66 63 62 81 84 92 99 100 99 96 94 89 90 91 70 67 67
60 60 60 61 59 55 59 72 78 88 91 99 97 95 79 83 85 85 80 83 83 76 84 74 82 86 84 79 66 67 76 71 65 79 94 97 99 100 94 94 94 98 91 82 76 65 71
61 60 61 59 60 55 56 68 75 82 90 99 98 99 97 93 80 76 80 77 83 80 84 83 77 86 71 70 75 81 82 83 80 66 81 97 99 99 98 99 98 85 72 69 69 78 76
64 60 62 61 55 56 56 66 73 78 84 97 98 100 95 93 76 75 76 83 85 82 87 84 81 75 75 81 92 89 94 89 87 74 75 69 82 98 99 97 72 79 93 91 93 88 76
64 60 62 62 56 58 57 64 72 76 82 93 96 98 98 94 89 71 82 87 95 93 92 91 91 85 91 94 93 98 86 91 95 94 82 77 78 82 92 98 76 60 69 60 71 76 71
65 60 62 63 59 59 60 62 70 74 80 93 97 98 96 95 82 77 83 88 83 92 94 94 91 99 92 95 95 98 92 87 97 97 89 94 91 89 86 94 84 66 59 52 82 66 60
65 63 63 64 64 60 62 63 68 74 79 92 96 94 99 94 86 76 74 91 95 90 94 90 98 99 99 98 97 92 95 95 93 88 92 91 89 96 93 96 90 69 65 56 55 78 71
62 64 62 63 66 63 63 62 68 72 76 87 99 97 97 94 91 89 81 72 73 74 88 96 96 95 95 95 96 92 90 98 92 94 87 91 80 87 80 78 66 73 73 76 65 71 82

GFSGBSN_sfc_rhum_012.txt.gz
RH
56 59 58 57 57 62 66 66 72 79 88 76 78 77 81 77 74 70 70 70 70 70 72 75 78 82 88 92 86 64 60 60 73 80 80 76 86 88 88 88 87 90 87 73 67 66 70
56 54 54 54 61 60 63 69 68 71 79 86 76 80 82 82 76 74 73 72 72 69 72 74 76 76 88 96 56 53 51 57 75 85 95 87 82 88 91 89 86 80 80 77 69 72 69
56 55 56 56 59 60 63 66 69 69 70 86 82 82 82 82 79 75 74 75 74 73 72 70 73 76 94 80 58 59 51 61 60 72 92 91 83 85 87 94 83 84 90 82 77 71 70
54 54 55 54 53 53 62 66 65 67 70 74 86 84 83 81 84 79 76 76 76 78 79 73 74 87 87 59 66 61 56 55 54 65 61 73 81 91 93 83 76 80 82 94 72 71 68
54 54 53 53 54 56 52 56 66 66 69 71 75 86 86 81 84 82 82 77 79 76 78 75 85 88 91 56 74 62 58 55 55 56 56 41 72 80 86 94 90 88 94 89 74 65 70
56 52 53 51 51 58 55 58 65 64 66 70 72 80 88 85 83 85 84 80 80 82 80 70 72 94 79 70 65 61 65 55 56 57 58 62 68 79 86 94 96 88 91 81 79 71 73
54 52 51 52 52 51 51 61 64 63 61 68 72 80 86 89 82 86 84 87 88 91 91 87 85 78 62 63 58 67 61 60 61 67 87 76 94 93 84 85 83 90 95 88 70 59 67
54 53 57 59 57 53 52 58 62 67 69 65 69 78 86 89 85 87 82 86 80 71 95 83 84 80 67 66 74 70 59 72 77 90 84 84 96 78 71 70 76 80 86 84 69 63 69
59 58 60 61 59 56 53 50 58 67 72 72 70 75 83 88 92 93 81 82 78 76 90 80 84 83 78 68 75 76 66 77 88 93 84 89 75 68 74 83 84 88 93 89 87 66 62
64 58 61 61 57 56 58 51 67 70 74 74 70 75 80 90 99 90 88 80 82 70 94 76 94 87 80 70 80 63 63 71 84 91 90 89 72 75 81 84 81 91 77 78 82 90 93
61 57 57 62 58 58 54 59 72 74 74 75 72 78 82 89 97 94 82 81 80 69 97 80 94 64 74 74 70 84 64 66 90 88 85 87 91 87 86 76 73 72 70 77 81 93 97
66 66 64 63 60 58 59 64 74 70 78 79 77 77 85 90 98 81 77 77 77 87 93 88 85 93 91 78 72 78 69 63 68 73 74 75 75 78 80 71 66 68 78 80 85 86 96
68 66 66 67 62 60 60 58 63 74 81 84 78 79 90 81 97 84 77 83 95 93 75 91 86 84 80 83 79 79 88 93 91 100 99 90 88 76 75 85 76 74 91 98 99 98 87
65 66 66 68 66 62 61 56 60 68 77 81 86 85 91 82 94 82 81 88 94 68 80 79 73 78 82 80 78 81 90 92 84 92 100 96 94 90 78 77 85 83 79 91 92 96 90
68 68 67 66 66 63 60 55 59 69 78 88 86 94 97 93 93 80 73 91 80 71 78 91 79 83 84 85 84 87 89 87 67 90 98 97 96 87 80 73 65 98 97 71 78 63 90
62 66 67 65 66 62 56 58 60 69 77 84 98 98 96 91 95 93 80 85 73 67 80 79 87 80 90 86 90 93 92 78 79 76 80 91 98 80 82 78 74 84 78 98 97 97 94
64 67 66 64 66 61 57 57 63 69 79 84 99 97 92 87 97 99 98 87 72 76 71 80 83 82 66 78 80 85 81 73 77 79 77 80 95 89 93 92 79 92 96 98 94 96 94
66 67 64 62 65 62 57 56 68 72 81 87 97 99 95 89 99 98 92 77 71 82 84 77 79 68 71 76 85 85 83 74 72 80 88 80 97 98 86 73 64 64 74 74 90 89 89
67 66 62 63 64 62 55 60 69 75 81 98 98 97 96 88 100 99 81 77 77 84 90 83 87 78 74 80 91 89 85 68 72 79 85 76 98 98 94 91 83 89 77 66 70 82 90
67 66 62 64 63 63 55 60 70 78 80 97 99 100 99 97 95 84 82 78 81 81 76 74 77 78 82 86 69 84 85 67 72 72 69 69 94 96 89 92 97 99 98 82 84 92 76
65 65 61 62 63 61 56 62 72 81 83 98 98 97 92 99 96 77 72 71 75 88 76 70 85 81 90 98 94 91 78 71 69 66 74 86 99 100 92 82 96 97 98 97 99 80 78
65 64 62 63 61 58 56 62 71 85 88 98 99 97 91 87 81 76 79 85 89 83 83 85 90 77 82 94 78 80 77 76 78 72 80 92 98 100 98 96 99 99 95 83 93 74 65
66 64 64 63 63 56 57 66 71 84 88 97 96 95 87 83 86 78 80 83 78 72 76 76 82 88 91 81 74 72 66 76 72 80 92 98 100 100 91 96 98 98 90 87 77 81 64
67 66 62 62 61 57 58 63 69 78 86 99 96 98 96 94 80 72 73 70 88 81 80 85 78 87 72 70 69 75 76 85 86 80 73 97 100 100 98 99 98 92 79 71 71 68 70
66 64 62 61 62 60 59 61 63 74 78 97 97 99 97 92 74 76 79 83 77 80 88 82 75 73 71 77 92 94 96 86 90 90 89 82 98 99 99 98 85 89 85 79 79 78 64
67 65 63 61 63 64 60 62 64 72 74 92 96 98 100 93 86 61 74 88 96 96 92 90 93 91 86 91 95 99 96 83 93 93 86 87 75 97 92 98 90 65 92 82 74 95 70
62 62 62 62 61 65 62 64 64 71 72 89 96 97 99 95 89 75 84 88 84 89 89 94 93 95 92 98 99 99 97 80 96 96 94 92 91 94 88 89 86 73 68 83 92 71 70
67 63 64 64 64 64 64 64 63 70 74 88 95 96 100 95 90 80 75 90 91 91 91 93 93 98 99 99 98 98 94 94 93 87 92 89 94 87 80 92 83 75 68 78 61 72 75
67 66 62 65 65 65 63 64 62 68 72 81 96 86 93 98 92 91 83 80 74 74 86 92 91 94 93 98 93 95 93 98 93 93 90 94 79 88 86 79 66 76 72 71 68 71 82

GFSGBSN_sfc_rhum_015.txt.gz
RH
56 56 56 56 55 54 55 63 66 63 67 72 78 85 78 78 80 75 68 68 69 68 72 73 76 81 84 90 89 61 55 57 70 77 74 75 77 75 76 78 76 83 76 68 64 66 64
55 55 55 55 55 55 55 54 58 64 65 68 72 80 84 80 83 80 75 72 70 70 71 74 76 74 83 96 54 52 49 54 82 81 82 74 72 74 80 78 74 68 72 71 67 64 64
55 55 55 54 53 53 58 60 55 59 63 67 70 78 86 85 80 83 76 75 73 73 72 71 76 74 90 78 56 57 52 55 59 73 89 86 76 78 77 88 75 77 86 72 71 66 64
54 54 53 53 54 51 50 51 49 59 63 64 67 75 81 86 84 83 80 76 75 76 79 72 76 80 82 57 64 59 53 51 51 64 65 79 77 81 84 74 71 81 83 83 60 64 64
52 54 51 54 56 57 54 53 52 56 64 63 64 68 75 86 87 84 84 80 78 79 75 79 83 81 89 55 73 62 53 51 54 54 54 60 70 77 84 90 86 86 84 86 68 58 61
53 53 56 57 59 59 57 55 54 52 62 68 66 66 73 79 88 86 86 82 77 82 81 70 72 91 78 68 65 64 62 51 55 57 57 62 67 76 79 88 88 82 89 81 76 62 64
62 66 59 60 59 59 57 55 55 52 58 64 70 71 71 73 90 89 90 90 94 95 94 86 84 79 66 63 58 67 61 57 58 65 87 72 85 88 80 82 73 82 88 86 75 59 68
62 59 58 59 58 57 57 55 55 56 61 65 72 74 71 71 88 92 85 88 79 69 92 87 85 81 71 66 73 70 60 70 72 86 79 82 92 66 70 75 78 77 83 78 63 55 60
60 60 61 60 63 59 58 56 58 60 68 69 74 79 70 73 79 94 87 76 76 65 84 77 84 86 77 69 74 77 66 75 82 91 86 88 72 66 72 81 78 78 80 69 71 66 62
61 64 65 63 64 65 61 58 59 66 70 74 73 72 75 75 91 93 93 75 81 64 91 75 95 86 80 69 78 63 63 70 81 88 84 76 62 74 83 84 81 90 70 73 76 82 78
66 64 64 64 64 65 66 60 61 64 62 68 77 77 78 75 96 98 90 81 75 68 83 80 93 65 73 76 68 81 65 66 90 89 85 81 86 90 86 74 74 76 67 72 78 90 91
62 65 66 66 66 65 67 61 61 58 61 71 80 82 75 86 95 90 86 81 66 86 95 91 81 93 91 76 76 76 71 62 65 79 81 75 72 73 76 70 67 66 81 77 79 85 96
61 63 65 66 67 65 67 61 60 57 61 79 80 82 82 85 91 95 91 90 95 91 75 93 88 91 76 84 82 77 85 92 93 98 98 81 80 76 72 80 75 73 97 94 96 98 83
59 57 65 67 66 66 66 60 57 58 68 74 86 84 86 85 91 94 91 99 95 70 81 70 72 84 86 70 74 80 87 90 81 89 97 97 90 83 74 74 82 88 80 89 87 82 74
59 60 66 66 64 66 65 59 57 60 71 78 83 97 97 96 92 96 98 99 80 72 82 78 75 84 87 76 77 80 87 84 76 77 98 94 88 82 82 76 66 93 97 67 88 75 92
55 64 66 65 64 65 64 61 56 66 74 82 96 97 97 91 91 96 100 91 74 76 74 73 87 77 84 85 91 89 89 77 76 75 68 85 98 77 82 76 76 86 75 97 98 95 87
67 65 65 64 66 64 64 59 58 69 74 85 97 97 94 90 92 99 100 95 79 78 68 75 80 86 79 86 86 88 85 75 78 86 74 85 96 84 91 91 75 88 96 98 94 95 90
65 64 64 64 66 64 66 59 60 67 76 90 97 100 96 94 100 99 99 77 73 90 82 81 73 72 76 79 80 82 81 70 72 83 93 78 94 97 84 66 63 64 72 70 94 87 90
64 64 64 64 64 64 64 57 61 70 78 99 98 97 96 92 100 100 89 82 79 84 88 82 84 76 74 78 90 85 82 68 77 79 87 81 97 98 89 85 74 95 82 70 73 72 89
65 64 63 64 64 65 58 58 62 73 79 96 99 100 99 98 94 92 84 86 87 78 85 78 79 77 82 84 72 83 88 72 74 73 69 70 89 92 76 72 89 99 85 84 97 96 76
67 66 64 64 64 65 58 61 65 72 86 98 99 98 90 100 98 81 74 77 87 92 79 75 87 79 77 92 85 86 78 75 78 73 72 84 99 95 85 74 82 100 99 96 99 85 90
66 66 65 63 62 61 58 63 70 73 88 97 99 92 90 88 86 72 79 86 75 89 78 88 83 67 77 90 79 88 80 78 76 78 78 86 98 100 97 89 96 99 94 95 94 90 80
67 66 64 63 60 64 60 67 70 72 88 98 96 95 97 84 88 81 87 83 86 78 76 75 75 77 87 76 72 73 72 69 76 74 81 98 100 100 92 86 100 98 93 94 90 81 78
64 65 65 62 61 63 64 60 66 71 82 97 96 99 99 92 82 77 73 75 79 78 88 81 80 86 73 76 74 80 81 83 77 80 73 98 100 100 98 99 98 95 75 77 85 69 61
64 64 61 62 61 61 65 61 65 65 74 95 96 99 99 92 79 74 78 68 78 85 88 82 78 74 71 76 90 88 94 91 84 91 93 81 98 99 99 96 84 84 76 83 82 80 62
64 64 63 64 63 64 64 63 65 64 72 91 96 99 99 94 86 66 85 86 93 95 92 87 94 92 85 95 93 100 94 89 92 93 91 85 88 99 96 97 95 65 78 67 73 81 68
64 65 64 64 64 64 65 64 64 63 70 90 97 96 100 98 85 72 84 90 85 89 92 92 94 97 92 98 95 99 98 85 93 91 96 95 93 97 94 94 82 67 64 83 83 68 67
64 63 62 63 64 64 64 64 65 63 72 85 94 96 99 99 92 83 80 90 90 91 90 88 95 97 99 98 99 94 98 94 94 88 88 91 95 97 84 88 87 70 85 82 59 67 71
62 61 63 65 66 65 64 64 63 63 68 76 96 84 88 99 92 91 86 84 71 73 86 92 89 90 91 96 97 93 89 97 92 92 92 94 79 82 83 79 64 69 64 64 69 72 74

GFSGBSN_sfc_rhum_018.txt.gz
RH
56 57 55 56 55 53 54 57 58 57 58 60 64 64 74 82 82 79 79 71 70 71 70 72 75 79 69 77 64 48 53 53 56 63 65 59 55 52 55 49 52 52 41 44 40 47 43
56 55 53 53 54 55 53 51 51 52 54 60 61 66 71 83 84 84 81 74 71 71 71 76 75 73 60 74 44 41 40 52 57 63 68 64 65 54 55 52 53 46 52 48 47 44 42
53 53 55 53 56 58 58 56 55 54 50 56 64 64 64 74 80 88 82 76 74 72 72 75 75 59 71 44 40 41 42 46 63 63 72 66 58 55 57 60 55 51 56 42 39 38 40
52 54 53 55 55 56 58 58 56 54 53 51 61 64 64 68 77 88 85 83 78 76 75 73 75 57 58 46 45 46 40 43 52 52 60 67 58 58 51 55 50 55 56 54 39 47 45
54 63 64 58 58 57 57 57 56 54 53 53 59 64 68 68 71 86 92 87 80 79 77 75 68 61 65 50 58 44 37 46 49 44 50 55 52 54 60 56 57 54 50 54 47 38 42
61 56 60 59 58 64 61 58 58 54 56 58 59 62 71 72 70 82 92 88 80 77 70 70 67 77 64 59 54 50 43 41 48 51 55 57 51 52 51 60 60 51 64 49 49 43 47
60 59 62 61 65 61 59 62 62 59 55 58 63 66 73 74 70 73 91 99 94 84 73 61 64 60 60 53 49 55 44 44 45 53 63 60 73 71 51 49 46 52 55 53 45 42 47
61 62 61 64 64 59 62 64 63 59 57 63 70 73 73 68 72 72 91 93 60 52 78 68 67 62 61 54 63 60 46 51 54 60 58 69 80 52 48 51 56 57 58 54 44 40 47
63 63 61 65 65 64 66 66 64 62 60 66 68 65 72 72 71 78 92 89 77 46 59 74 71 68 62 57 59 64 51 52 56 67 65 62 56 50 56 61 64 59 59 53 51 45 44
57 60 63 64 66 66 66 66 66 61 60 65 62 68 72 74 81 69 89 84 90 65 90 71 80 69 63 57 64 50 46 51 64 63 63 63 49 59 61 64 57 64 46 52 55 61 67
60 63 64 62 67 67 66 66 67 59 58 60 74 78 73 80 86 79 76 92 94 76 87 67 83 58 60 58 59 69 50 55 64 65 65 66 64 66 71 64 54 61 51 52 55 62 66
63 64 64 65 66 66 65 66 64 59 60 64 70 73 78 84 80 69 90 92 92 97 82 83 87 91 86 68 65 67 66 52 51 60 63 54 55 56 54 54 53 54 61 63 63 71 91
55 58 63 65 67 64 65 66 60 58 57 66 72 84 84 79 77 75 94 94 99 96 62 91 82 85 70 73 74 67 77 81 78 96 94 65 62 56 54 62 60 63 75 79 87 94 66
61 69 66 67 65 62 66 62 59 58 65 71 80 80 78 68 82 86 96 99 97 59 63 64 68 68 72 61 72 72 77 88 64 68 78 77 77 63 61 61 57 67 62 70 70 51 42
67 68 66 65 62 65 64 63 60 59 68 74 81 88 83 80 81 87 98 99 75 53 60 68 75 80 84 64 64 73 75 71 62 64 88 88 75 59 58 53 55 77 92 54 77 58 74
66 65 65 63 61 66 64 64 59 61 71 79 94 90 89 86 86 91 100 98 61 62 56 55 71 59 73 72 72 71 73 55 56 49 49 66 89 57 63 64 62 66 54 92 94 83 70
65 64 63 62 66 65 65 58 59 62 70 81 93 96 96 83 84 98 100 93 75 55 53 59 64 66 59 67 64 66 62 59 55 60 52 62 68 71 74 80 62 82 93 97 76 75 70
67 66 65 62 65 66 66 57 62 66 73 86 96 100 95 86 99 99 99 71 68 67 66 63 53 55 59 62 69 64 63 54 51 62 74 61 72 89 72 43 44 42 53 63 94 84 81
67 65 64 64 64 64 63 58 62 67 71 98 98 99 95 92 97 99 86 71 70 74 70 65 67 58 53 61 70 59 61 54 57 61 60 61 88 90 78 65 55 66 54 53 72 82 92
64 66 65 63 62 61 64 59 65 68 74 97 98 100 98 98 84 79 72 73 79 68 70 64 69 60 61 62 59 69 67 60 56 53 63 59 64 89 69 68 64 100 72 70 98 96 71
66 66 66 64 62 63 64 61 64 70 79 97 97 98 85 100 84 64 59 65 72 75 67 62 70 67 63 70 70 72 64 61 63 64 61 64 100 93 74 65 71 88 82 86 100 82 84
60 64 64 64 61 62 63 62 68 74 81 94 99 98 82 84 65 56 63 64 66 74 66 74 63 65 66 70 62 80 70 66 60 61 64 72 93 98 98 87 81 99 89 92 95 93 83
60 63 63 63 61 60 65 66 70 72 81 97 95 93 97 80 68 62 62 62 59 64 66 62 64 65 72 64 65 63 62 63 59 62 68 84 100 100 95 68 85 96 92 89 92 93 82
62 63 64 62 62 63 64 65 65 69 76 96 94 98 97 85 68 58 59 60 66 55 75 69 66 69 67 62 61 66 70 65 67 73 61 92 100 100 98 99 95 88 75 79 80 75 76
62 62 62 63 63 64 64 64 65 64 69 92 95 98 98 82 61 62 62 59 64 67 66 70 67 62 68 75 76 72 81 86 75 68 74 74 94 100 98 92 64 76 76 90 78 67 52
62 61 59 60 62 63 64 63 66 64 67 88 98 98 99 84 70 52 62 57 64 64 68 71 78 76 70 79 85 86 75 70 70 77 72 75 86 97 98 96 89 59 51 58 58 62 52
62 60 60 63 63 64 64 64 66 62 68 84 96 92 99 97 66 52 60 69 67 71 87 88 88 95 85 90 89 84 77 67 69 71 82 86 94 93 86 85 63 47 55 66 62 65 56
62 61 61 60 60 62 63 62 61 62 65 81 91 92 98 99 76 64 62 70 74 72 76 76 85 85 94 94 90 90 92 74 72 61 66 65 72 74 74 75 80 49 57 57 52 53 54
63 62 62 60 60 60 59 59 60 63 64 72 94 83 87 99 87 78 68 65 61 66 71 79 75 80 84 92 93 93 87 82 70 63 65 71 54 51 54 54 47 49 50 46 53 56 55

GFSGBSN_sfc_rhum_021.txt.gz
RH
54 54 55 55 54 55 58 57 55 55 55 53 52 60 64 63 70 78 82 82 73 72 72 73 74 77 68 75 66 44 54 53 54 59 52 47 43 40 44 35 34 40 32 24 28 31 33
53 54 55 56 58 57 56 58 58 58 56 54 52 54 62 63 65 74 80 85 80 72 73 75 74 74 61 83 40 39 37 44 43 60 58 49 47 38 41 40 43 35 37 35 34 34 34
56 56 62 61 59 56 57 58 57 57 57 55 55 53 59 65 67 71 76 88 81 73 73 77 74 55 58 49 31 33 38 41 48 50 63 55 52 56 48 52 43 45 52 40 37 36 38
60 62 60 59 61 59 65 65 62 60 58 56 56 58 60 63 69 71 75 83 85 79 76 76 74 50 57 40 34 38 34 44 45 50 58 56 55 59 47 45 44 48 43 48 30 33 30
60 57 59 61 62 64 67 66 60 64 61 60 55 58 59 61 69 72 73 78 90 85 77 74 64 57 56 51 46 34 32 45 48 44 48 54 64 62 57 56 47 44 43 40 35 30 34
60 60 61 65 64 64 66 65 64 64 65 65 61 60 68 69 72 74 72 79 86 88 76 68 58 72 51 53 47 40 32 40 48 47 54 53 49 51 50 48 53 42 48 40 37 30 37
64 64 64 66 62 65 68 70 64 64 64 66 61 64 72 72 73 72 78 91 100 100 87 63 67 53 52 46 42 46 36 44 45 48 57 52 66 61 42 38 36 40 42 40 33 30 36
59 56 58 63 62 67 67 64 66 64 66 66 62 66 68 64 73 72 78 90 88 80 88 53 52 52 48 44 58 49 36 50 55 64 53 70 77 46 38 39 43 46 48 44 34 30 36
61 61 63 62 66 66 66 67 66 66 67 62 64 70 69 70 70 71 73 79 82 87 80 68 56 53 58 51 50 58 44 43 54 58 59 66 50 42 46 50 55 50 52 46 42 36 34
61 61 58 60 64 66 67 65 65 66 67 65 59 73 71 72 78 66 65 64 91 91 99 85 74 57 58 52 60 44 41 45 54 60 57 60 43 47 50 54 48 56 37 40 45 51 52
62 59 68 67 66 67 66 64 65 66 62 59 61 68 79 80 86 80 69 92 96 94 97 68 70 45 51 52 56 59 41 51 57 52 55 60 55 58 60 51 44 53 46 48 50 57 63
59 69 69 68 66 65 65 66 63 61 58 66 68 74 77 89 77 62 76 88 93 100 98 83 83 81 72 54 57 59 58 49 43 50 51 46 46 47 46 45 46 48 51 54 56 61 86
59 69 66 65 64 63 65 63 62 60 62 66 71 78 81 78 70 54 83 90 99 97 58 92 78 73 70 68 67 69 76 76 70 93 87 58 56 49 44 54 51 55 66 76 82 92 64
61 66 65 64 64 64 65 64 60 60 65 70 79 73 73 57 63 74 93 97 98 73 61 56 74 65 75 63 62 60 68 78 56 53 66 76 79 55 51 53 57 67 62 63 59 42 34
64 67 66 66 64 64 65 64 57 61 67 75 77 68 77 75 72 82 94 97 89 51 56 67 69 80 79 64 65 59 64 67 51 51 75 71 68 46 47 46 46 64 86 51 69 49 62
64 69 67 66 65 64 65 63 59 63 71 75 88 86 86 71 66 91 98 99 66 47 49 52 66 61 74 63 67 59 63 48 52 43 40 54 78 48 49 51 51 56 52 88 92 83 58
65 68 66 63 65 63 65 60 59 64 68 75 95 96 94 76 72 88 100 99 62 45 45 48 53 56 55 60 55 58 60 50 43 46 45 50 57 67 63 73 55 71 79 82 56 62 70
62 69 68 65 64 61 66 61 61 66 74 88 96 100 90 66 99 95 99 93 57 52 58 49 44 44 49 51 58 56 51 46 43 44 55 50 62 83 64 39 37 39 53 54 86 72 73
65 62 68 66 63 66 64 63 64 68 79 98 98 99 83 93 99 89 92 77 57 65 60 54 55 46 42 49 57 48 48 47 44 50 52 53 72 85 82 54 42 51 46 45 62 81 95
60 62 65 65 63 63 63 64 67 69 79 95 97 100 96 95 74 61 94 71 73 62 58 51 52 44 48 49 48 53 56 55 48 47 67 54 58 86 69 64 58 100 68 59 82 98 73
60 62 63 63 64 61 65 65 67 72 77 93 97 96 85 97 80 62 76 66 68 62 55 52 54 51 48 56 54 56 53 55 53 57 53 55 99 87 65 60 63 78 71 72 99 94 98
60 61 64 60 63 63 65 66 68 74 76 88 98 98 90 60 52 48 60 70 69 61 52 59 54 52 52 52 51 57 53 52 54 53 58 65 96 94 93 68 68 87 70 81 96 95 95
61 61 60 60 64 64 65 69 70 70 75 93 95 91 98 66 54 48 49 53 57 53 61 53 51 53 58 55 52 54 52 54 54 61 67 79 98 98 92 63 71 80 86 93 92 81 88
60 60 58 59 61 62 64 64 68 66 75 93 92 96 96 77 50 45 49 48 50 50 63 58 57 56 72 54 55 54 56 64 61 70 59 82 98 100 99 95 91 75 55 77 85 66 53
60 60 59 62 63 64 64 66 67 64 70 92 95 98 97 72 51 50 48 49 51 50 57 61 62 56 52 60 65 59 68 81 68 65 74 68 97 100 99 82 55 58 56 66 83 71 50
62 60 60 60 59 61 65 65 63 64 66 85 96 93 97 98 52 43 48 48 59 57 62 58 64 63 60 67 69 75 63 61 65 79 67 75 82 98 99 96 85 53 42 50 54 80 50
63 61 61 60 60 60 60 60 61 63 65 78 94 89 96 97 56 45 49 54 47 51 68 75 75 80 71 79 87 73 64 56 60 59 76 77 87 96 90 92 55 38 44 56 69 60 52
63 62 61 61 61 61 60 60 61 62 62 69 85 89 94 98 85 55 41 53 60 58 65 73 78 79 92 84 83 82 96 60 63 46 54 57 68 73 72 81 79 41 40 54 51 48 48
62 63 63 62 62 62 61 60 60 60 63 64 85 81 85 98 95 70 58 56 54 49 57 67 72 67 73 86 93 90 88 66 61 67 49 60 44 52 49 47 38 40 46 43 47 51 47

GFSGBSN_sfc_rhum_024.txt.gz
RH
56 56 57 61 60 59 57 58 58 59 58 58 56 56 56 54 56 62 68 77 79 83 76 73 72 75 73 80 77 56 62 62 62 67 61 48 47 47 50 38 34 40 36 30 29 31 34
58 60 64 62 59 59 59 62 65 62 61 60 59 57 56 58 59 65 68 74 78 85 84 73 75 77 73 83 43 38 36 42 51 68 69 52 45 40 44 41 41 37 38 37 34 33 36
63 60 60 60 62 61 62 68 70 67 65 62 61 60 58 58 61 61 67 71 75 86 83 73 76 66 58 62 33 37 39 40 43 62 64 51 53 57 55 57 42 46 58 49 45 41 42
66 62 61 65 65 65 64 64 70 71 67 64 65 62 61 60 61 62 69 72 76 80 89 76 76 60 67 39 37 36 34 42 43 48 61 60 56 62 59 49 49 59 58 70 37 38 38
60 67 59 58 57 61 66 69 70 67 61 63 66 67 63 61 67 67 73 73 74 74 89 75 75 70 63 50 45 38 33 44 48 51 69 55 60 63 63 63 63 57 65 56 44 38 38
68 59 58 63 64 63 68 67 65 66 65 66 66 67 64 65 70 70 75 71 73 77 92 79 63 75 54 58 43 37 34 39 52 53 67 76 74 70 74 71 77 58 60 52 49 41 43
61 62 63 61 60 61 65 66 66 67 66 65 66 66 65 68 68 67 74 79 94 100 97 84 75 53 48 47 42 45 37 47 48 57 69 64 73 76 63 59 53 45 50 52 42 33 40
62 62 62 63 63 67 66 67 67 65 64 65 66 67 66 72 67 69 75 84 83 98 98 85 57 49 47 47 59 50 38 60 63 77 58 66 82 52 44 42 46 49 55 57 44 34 39
62 57 68 69 69 67 66 66 65 66 65 66 67 65 69 71 71 73 75 72 89 91 98 86 56 57 55 49 57 58 46 50 63 70 70 65 55 46 50 52 57 58 61 58 54 44 42
62 61 69 68 64 65 64 65 66 64 64 65 60 71 76 84 78 72 74 59 93 93 100 95 76 59 57 53 60 45 42 48 59 72 62 65 47 46 56 57 53 65 45 48 51 62 74
64 63 67 66 62 64 63 65 64 60 60 61 67 69 71 78 90 82 64 86 93 97 99 90 77 45 54 57 60 60 44 49 62 57 62 70 59 61 62 54 48 58 51 53 57 68 75
59 64 66 68 66 65 66 65 65 61 60 65 69 72 78 85 90 71 66 90 92 99 98 98 81 75 74 59 59 56 56 50 46 54 54 54 48 54 54 47 49 51 58 61 65 69 96
60 66 69 68 67 64 62 64 64 56 62 68 72 79 79 74 84 68 84 92 99 98 85 97 88 71 65 66 70 68 75 80 80 94 95 62 61 54 49 60 59 59 68 96 97 98 90
58 67 70 68 65 64 62 66 61 57 63 72 76 79 73 69 74 79 92 95 97 85 83 58 73 70 69 61 69 69 79 82 63 62 80 89 87 63 52 61 67 66 65 92 83 85 72
58 65 71 68 65 64 61 64 59 60 69 76 79 73 90 82 76 78 96 98 98 70 57 74 72 88 78 62 67 73 78 74 55 54 75 83 72 49 50 50 52 69 85 66 84 70 90
62 63 69 67 65 64 65 65 60 62 73 79 97 86 94 76 74 89 99 96 99 52 58 55 73 59 75 73 70 66 70 51 53 48 46 60 80 54 53 54 51 58 54 93 94 97 82
65 62 65 67 66 66 62 64 62 68 75 86 96 94 89 74 78 96 100 100 82 48 47 53 58 59 56 65 63 63 60 49 46 48 47 53 66 73 71 73 71 74 77 77 72 85 94
64 60 63 64 67 62 63 65 65 71 81 88 95 99 87 78 97 96 99 97 62 60 54 46 44 46 50 51 60 53 54 50 42 46 56 52 68 93 79 52 51 53 66 64 86 83 80
64 58 64 64 66 62 64 66 67 69 78 98 99 97 96 95 95 95 96 84 59 65 55 51 50 45 43 53 65 53 51 52 52 53 53 54 85 90 91 67 52 61 54 54 60 70 86
64 61 63 61 64 65 65 67 72 71 75 92 96 99 94 98 85 83 98 80 88 64 56 47 48 44 46 54 49 55 60 59 54 54 65 57 66 88 93 81 78 98 81 64 72 98 82
62 62 59 61 65 65 66 67 73 75 79 90 97 95 86 94 82 77 85 69 67 61 56 52 54 49 49 59 56 54 52 62 56 65 57 62 95 87 76 66 67 76 74 73 93 95 99
61 61 59 59 61 62 64 69 72 74 79 88 96 98 89 63 61 70 73 84 64 61 60 57 58 51 53 54 58 54 51 55 62 59 64 64 97 98 90 77 77 86 73 73 77 95 96
61 61 59 61 63 64 65 73 71 72 78 95 95 91 98 68 56 57 58 63 62 59 62 55 53 55 61 72 63 62 58 59 62 63 66 87 98 100 95 76 82 91 78 78 87 78 86
62 61 60 60 60 62 66 66 64 67 77 96 95 96 95 75 59 51 50 52 58 56 66 60 58 64 73 59 58 64 65 68 70 70 60 89 99 100 98 98 95 80 69 69 79 74 72
62 63 61 61 60 60 61 62 62 65 66 91 95 98 98 92 55 46 49 52 54 66 63 66 64 63 61 68 76 71 76 79 72 66 72 70 97 100 99 95 67 58 63 64 78 77 56
64 64 61 62 62 61 61 61 61 63 63 80 96 93 97 99 69 50 52 55 68 66 73 69 71 72 73 76 77 80 70 78 81 84 75 80 85 98 99 97 92 67 54 55 64 92 63
69 59 63 62 63 62 62 61 60 62 62 73 93 91 98 99 71 72 57 62 58 61 85 79 79 88 83 83 91 77 76 66 76 74 84 93 97 96 92 96 78 48 58 65 90 73 65
71 62 63 62 64 63 62 61 60 60 62 71 84 89 95 98 88 72 65 60 65 70 78 83 87 87 93 94 88 84 92 78 81 62 67 74 81 88 82 93 91 55 56 73 68 62 61
72 64 60 66 62 64 64 62 60 59 60 64 82 77 82 98 90 80 77 67 73 72 73 80 81 73 84 93 96 92 88 89 77 92 63 74 59 65 68 74 51 55 54 57 61 66 64

GFSGBSN_sfc_rhum_027.txt.gz
RH
62 64 64 60 62 60 63 63 66 68 70 67 65 61 61 58 58 54 61 63 71 77 80 84 73 75 83 86 81 61 63 59 60 65 73 74 69 63 63 54 49 54 48 40 37 38 38
66 66 64 63 61 66 61 63 69 71 71 72 63 61 63 61 57 58 58 59 65 75 78 88 75 80 90 96 49 49 52 70 69 73 82 75 60 52 57 54 52 43 49 49 44 46 44
64 61 61 58 60 64 61 66 71 69 68 65 60 63 64 65 63 59 61 60 65 71 80 90 79 74 75 72 41 45 40 52 59 73 78 72 56 62 64 65 53 54 64 60 56 51 51
65 68 64 62 62 60 62 65 67 68 67 67 67 68 66 65 63 62 65 66 71 71 80 85 76 76 84 47 46 38 38 48 45 62 67 62 60 67 68 57 56 63 68 87 57 47 48
68 58 61 59 63 62 65 65 66 67 67 67 67 67 66 66 64 65 69 67 69 70 72 82 86 86 81 52 51 42 39 49 54 59 75 59 72 70 64 72 75 69 86 75 62 42 46
58 64 61 65 70 68 68 66 66 66 64 64 66 66 66 64 67 69 70 70 69 69 73 87 71 83 67 62 50 44 41 41 60 71 87 84 86 86 78 72 93 80 81 67 62 46 48
65 62 62 69 67 62 62 64 63 65 66 65 65 66 68 68 71 68 77 91 89 96 97 80 82 65 58 52 44 50 42 53 56 78 88 90 92 93 88 80 65 64 62 64 54 42 48
64 63 64 66 65 60 61 62 63 65 63 62 65 65 65 70 73 73 83 96 90 96 97 81 77 62 55 51 62 52 44 71 69 92 69 77 87 67 58 60 64 64 68 69 55 44 48
64 60 66 65 66 64 63 66 65 64 60 60 61 65 70 76 78 85 89 85 91 81 98 86 83 70 62 58 66 63 53 63 72 85 74 82 61 54 59 62 64 70 74 72 67 56 52
62 60 68 67 68 65 64 62 63 63 60 60 64 68 71 74 91 84 87 79 89 88 100 98 93 68 60 60 72 49 51 58 64 75 67 69 53 53 63 67 62 78 56 56 59 70 82
62 62 70 68 68 64 61 61 64 67 57 62 68 70 72 75 92 85 82 91 90 92 98 96 84 52 64 73 64 59 49 52 66 70 74 88 67 62 62 65 55 67 57 60 66 76 82
57 60 68 70 68 66 62 62 63 60 58 68 70 72 78 90 92 80 82 88 91 99 98 100 84 79 82 66 67 63 59 53 50 62 66 64 53 56 58 51 54 54 64 66 73 81 98
59 63 65 70 67 64 63 64 64 59 60 69 73 79 80 80 86 85 88 98 97 98 97 99 94 78 76 78 73 69 74 78 84 96 99 73 68 58 52 67 64 64 76 97 93 94 92
58 62 62 68 64 64 65 61 63 60 65 75 79 79 88 77 84 89 92 97 97 98 99 80 75 72 80 70 82 71 81 84 78 74 89 91 88 69 58 67 76 80 71 93 95 96 87
61 58 63 66 64 65 60 63 62 66 72 79 85 90 94 94 79 85 97 97 99 97 86 92 72 79 81 68 82 75 80 76 72 72 80 92 82 59 58 57 62 77 89 72 85 85 96
61 63 64 64 65 63 62 64 63 69 78 83 98 92 93 90 81 88 100 98 100 83 69 63 92 70 85 74 82 77 79 64 62 56 60 64 82 61 59 61 58 62 62 90 96 98 94
64 60 63 62 65 64 64 65 67 71 80 78 96 95 85 86 86 96 100 99 96 56 53 62 67 67 64 83 77 75 73 58 54 58 54 57 67 80 67 76 77 77 78 80 78 94 98
64 59 60 60 66 66 65 66 68 73 80 85 97 98 85 92 98 98 100 100 92 70 61 54 50 59 57 66 71 65 72 58 48 49 65 54 74 93 84 64 59 67 73 76 91 83 92
62 60 60 61 66 67 66 68 67 73 76 98 96 98 89 92 99 99 96 96 86 71 64 60 56 50 50 61 62 55 61 56 49 50 52 60 84 90 85 77 67 73 68 63 64 78 86
62 61 60 59 60 65 68 71 68 74 76 94 96 98 96 98 94 97 97 93 82 65 62 54 50 46 49 55 56 59 66 60 60 59 64 59 78 85 89 86 86 91 80 70 77 98 84
62 62 60 61 62 66 68 71 72 78 76 94 98 96 96 97 90 84 94 84 70 70 59 55 59 52 56 66 51 52 64 69 61 70 59 69 87 92 82 77 79 82 78 77 87 84 98
65 62 60 60 60 61 65 67 72 76 75 96 98 98 86 97 75 89 85 84 78 75 72 65 66 62 68 76 70 60 62 72 74 73 72 72 97 98 93 82 84 91 78 77 77 74 77
68 62 61 61 61 61 62 64 66 71 79 96 95 92 98 88 78 82 80 77 72 73 67 65 66 70 81 78 72 73 62 62 57 74 78 82 96 100 96 82 90 96 81 72 78 80 84
68 60 62 61 62 62 62 62 63 66 70 97 96 99 98 93 78 64 61 61 66 72 74 70 68 79 80 70 68 73 76 77 66 71 74 95 99 100 96 94 90 76 71 70 79 72 69
65 64 60 61 63 62 62 62 62 63 65 92 96 98 98 90 94 55 60 62 74 74 75 78 76 77 72 76 86 87 86 83 80 76 74 78 97 100 100 97 72 62 76 76 83 77 66
64 70 56 64 61 63 63 62 61 62 64 80 97 96 98 99 92 77 73 68 78 84 82 85 81 80 78 87 85 84 77 79 91 87 77 80 90 99 99 98 93 64 61 61 71 91 64
65 72 63 61 64 66 63 62 62 61 62 81 94 88 98 99 90 78 80 75 60 75 91 89 89 90 87 93 94 85 82 75 89 93 92 98 99 96 96 97 82 60 56 71 89 72 70
66 70 64 59 60 65 65 63 62 59 60 77 92 86 92 98 88 76 71 88 87 81 89 87 86 88 93 94 96 92 92 90 89 82 88 88 93 94 94 98 92 52 64 76 60 74 72
63 70 65 62 61 63 62 56 58 59 58 62 93 82 85 97 95 81 78 70 83 81 84 84 84 82 89 94 95 91 87 93 90 96 70 80 68 72 77 76 55 58 58 63 66 70 75

GFSGBSN_sfc_rhum_030.txt.gz
RH
62 61 61 63 63 62 58 60 63 68 70 69 68 68 62 63 61 63 57 57 57 55 64 73 80 80 85 94 82 54 62 62 57 69 73 73 79 69 72 66 62 67 58 47 45 46 44
62 65 64 61 59 57 61 62 64 64 65 68 66 67 67 66 66 65 66 58 58 58 63 70 79 85 88 91 51 55 68 59 65 71 79 79 76 65 62 60 60 51 49 50 50 50 52
65 61 64 60 61 70 68 69 69 66 66 65 67 67 66 65 66 66 63 61 62 63 65 70 77 81 79 68 45 52 64 73 76 72 87 82 78 63 61 70 54 57 63 63 57 55 55
60 63 63 62 69 67 64 62 63 63 64 66 67 65 64 66 65 65 65 65 65 66 69 70 78 91 80 50 43 43 44 52 63 71 70 70 66 68 68 63 60 64 69 79 54 51 49
60 63 61 65 67 65 60 59 60 59 63 65 65 64 65 66 66 65 68 69 68 68 67 66 85 91 73 57 57 44 40 52 57 69 77 60 70 72 70 74 80 76 86 82 66 51 51
62 61 63 66 66 64 60 62 65 62 64 65 63 65 65 67 69 71 72 71 72 70 72 63 82 88 66 64 54 46 43 47 64 82 80 83 89 87 84 84 94 85 87 77 68 51 57
64 62 61 68 66 65 64 66 61 62 62 62 60 62 65 68 68 73 81 92 85 96 91 92 88 69 60 55 47 54 44 49 72 84 98 90 96 95 80 74 67 61 64 74 60 47 52
64 65 60 69 68 66 63 64 62 66 65 59 60 63 67 71 75 76 87 97 92 86 91 77 82 69 57 52 62 57 47 76 84 91 85 87 94 82 78 73 73 72 72 75 60 52 53
63 60 59 70 69 68 66 63 61 63 68 58 60 68 71 72 76 83 86 81 89 77 96 81 85 74 63 57 68 66 54 67 78 88 74 83 75 66 62 64 65 76 79 77 71 59 58
59 62 64 70 69 67 65 62 62 62 60 58 63 66 69 72 89 88 91 85 84 78 99 99 96 80 62 64 75 54 55 61 73 88 68 70 53 63 70 66 66 81 62 60 63 71 86
62 60 63 68 66 65 66 66 62 64 60 63 66 72 75 74 93 92 84 90 88 88 97 98 93 60 66 73 67 61 51 55 75 71 72 82 72 63 72 69 58 70 58 62 69 78 84
59 64 60 70 64 65 64 58 62 61 62 67 71 74 80 89 94 86 89 86 94 98 97 99 93 85 80 71 72 64 60 53 55 69 68 70 56 60 59 57 56 57 64 70 81 85 96
61 64 59 69 64 64 59 62 60 61 68 73 77 80 79 81 94 86 89 97 96 97 98 100 96 79 78 83 77 74 76 76 89 98 100 81 74 60 56 69 64 63 73 92 88 97 87
62 59 61 64 62 63 62 63 62 72 75 81 81 76 86 90 93 88 94 97 97 100 100 86 77 74 89 73 79 78 78 84 72 77 95 95 91 71 61 69 76 74 68 85 78 97 91
62 61 63 60 62 65 64 63 68 74 82 80 79 85 90 92 82 83 98 97 99 100 92 86 70 95 85 81 88 80 78 77 69 72 80 92 82 65 59 60 61 79 88 70 87 87 97
64 60 58 60 67 66 64 66 66 76 81 76 96 88 90 87 85 91 100 99 100 91 71 64 94 79 93 87 92 80 78 63 62 61 62 71 91 64 63 60 61 67 65 92 94 99 91
61 60 58 58 61 63 65 67 67 76 78 74 95 95 82 86 86 96 100 99 97 64 61 62 82 70 70 75 86 69 80 65 58 59 59 66 76 85 67 80 80 82 80 83 83 88 98
62 61 59 60 64 66 67 68 68 75 78 86 94 97 81 88 96 99 100 100 91 78 70 67 59 61 68 76 78 76 79 68 55 56 67 64 79 96 90 72 64 71 78 80 94 82 96
61 61 60 60 60 66 66 68 69 72 76 96 96 97 91 93 98 100 98 96 88 75 69 61 61 57 58 68 75 66 67 58 56 57 61 63 82 92 86 78 74 81 76 72 71 78 94
65 62 61 61 61 62 64 67 70 73 78 94 96 96 94 96 96 94 94 93 81 66 59 53 57 51 57 63 59 74 66 63 58 55 65 60 83 83 89 80 83 91 84 75 78 99 87
65 62 61 61 61 62 64 66 69 75 78 93 98 96 96 98 91 94 90 89 81 81 64 59 54 51 57 66 61 69 64 69 62 65 63 65 89 92 83 77 82 83 80 81 87 78 96
64 63 61 61 62 62 63 64 70 74 76 92 96 99 86 96 86 87 87 85 82 80 73 74 80 67 60 82 73 68 71 76 75 75 76 70 90 97 90 84 90 93 82 80 76 73 73
62 68 61 61 62 62 63 64 65 68 75 97 96 92 98 87 87 84 80 79 72 74 70 69 69 78 84 77 72 72 61 63 66 75 82 81 96 97 96 85 93 98 87 77 81 81 80
62 70 59 62 62 63 63 62 63 64 70 96 96 98 98 94 92 74 66 68 70 77 78 77 75 78 82 73 70 71 74 67 66 78 70 89 98 100 95 94 94 68 64 67 74 75 74
63 65 64 59 59 64 62 63 62 62 64 90 96 98 98 88 94 78 80 77 81 80 81 83 83 81 76 77 87 89 86 82 79 69 77 78 96 98 99 95 76 65 77 80 87 75 73
62 65 71 58 63 66 67 63 62 61 61 89 97 94 98 99 92 88 93 72 84 88 85 88 85 83 82 88 86 87 89 88 96 93 74 82 88 99 99 99 93 62 62 66 74 93 69
65 64 71 62 59 60 65 66 64 57 60 85 93 86 97 98 85 92 93 79 69 86 90 91 89 88 85 94 95 89 84 79 97 93 96 99 97 99 98 97 85 60 60 72 92 68 71
67 63 69 64 60 58 62 63 60 60 56 79 90 88 90 98 85 85 72 90 90 86 88 83 86 88 95 94 95 92 91 89 91 86 93 92 96 96 97 99 91 57 77 81 63 70 73
69 65 68 72 67 59 62 62 61 56 62 69 91 82 89 98 92 87 76 66 76 86 90 90 84 85 91 96 96 93 92 85 91 93 83 83 76 84 85 78 56 52 60 62 71 74 77

GFSGBSN_sfc_rhum_033.txt.gz
RH
57 70 61 63 61 60 70 70 69 67 67 65 65 68 66 64 63 67 67 66 65 58 58 59 63 72 93 93 76 53 63 64 63 68 77 82 80 72 75 70 65 70 63 52 48 48 53
64 59 62 61 60 69 67 65 63 60 60 61 64 68 68 66 67 68 67 66 63 61 60 59 64 77 97 83 50 50 67 66 70 76 81 75 76 65 68 64 68 58 54 51 50 49 52
66 61 63 63 64 69 64 64 59 62 59 59 63 65 65 64 64 66 66 64 63 62 62 60 68 80 91 69 49 52 69 72 72 76 85 77 74 67 66 68 54 58 64 66 60 58 56
64 65 58 63 65 68 63 64 64 64 66 60 63 65 66 65 65 66 66 67 65 66 67 66 68 89 92 54 46 44 62 84 83 82 76 78 71 75 72 64 63 69 70 81 58 54 52
63 65 64 56 69 69 64 65 65 62 64 61 62 63 63 66 67 70 69 69 67 66 65 65 76 93 85 58 60 45 49 63 77 84 78 64 73 76 72 75 80 80 90 83 65 52 53
66 65 62 58 70 70 66 65 65 64 65 65 64 59 62 67 70 70 74 71 72 70 72 66 69 98 78 65 57 48 45 61 76 90 86 87 90 92 88 85 82 87 82 83 74 57 62
66 64 63 61 70 70 69 66 64 60 64 70 59 59 65 69 73 78 86 92 83 87 94 83 82 74 68 61 49 63 44 57 84 89 96 87 97 94 79 79 73 71 76 79 66 54 56
66 62 63 63 69 67 66 66 66 64 63 64 57 63 67 71 72 76 86 96 88 81 86 68 81 77 64 58 64 69 50 77 84 94 96 98 94 79 72 72 70 71 75 85 65 57 58
66 59 62 64 68 64 67 67 64 59 65 61 60 63 66 71 74 86 88 77 78 87 89 68 80 85 67 57 70 69 54 72 85 89 88 93 84 79 78 85 84 69 76 80 76 62 62
60 62 62 62 69 64 67 58 60 66 60 62 66 69 70 74 90 89 86 78 86 83 97 98 93 83 66 65 75 56 54 66 79 86 81 84 72 81 88 89 68 84 65 65 66 74 85
60 62 63 63 63 62 59 60 62 63 68 73 75 74 78 78 93 90 79 92 90 89 97 98 94 74 68 74 69 66 60 59 75 78 77 88 71 88 86 69 58 71 61 65 70 81 83
60 63 60 65 59 63 63 66 67 72 76 78 79 78 78 89 92 90 90 85 94 97 98 99 96 92 77 75 75 70 68 56 64 70 65 74 58 58 59 60 59 59 64 71 86 84 91
62 63 60 58 63 65 63 67 71 74 77 76 74 80 83 84 96 92 89 96 96 95 98 100 97 77 76 80 79 74 76 78 91 98 100 79 74 62 59 70 64 63 75 88 78 96 82
64 61 60 59 62 62 62 71 70 74 77 76 75 79 85 88 94 87 92 96 95 99 100 89 76 74 89 78 78 80 78 84 72 85 98 96 94 71 63 71 77 79 73 83 64 91 90
62 62 60 59 60 63 66 67 72 75 80 79 77 88 92 94 85 86 97 97 98 100 94 83 72 89 91 89 88 92 80 86 71 71 83 89 84 69 62 65 64 81 88 71 87 89 97
63 62 60 61 64 66 68 65 72 75 78 79 94 92 90 87 91 93 98 98 100 87 63 74 93 86 96 97 87 95 80 65 62 64 66 72 92 72 67 61 64 69 67 87 94 94 85
62 62 61 61 62 63 64 66 71 73 77 76 95 91 78 86 92 96 99 99 93 69 74 69 89 76 80 85 87 83 81 67 55 62 62 69 77 83 70 82 84 80 85 86 84 86 91
64 62 62 62 63 64 65 67 69 73 78 85 95 92 82 88 97 96 99 100 86 88 80 65 62 68 78 79 79 72 82 70 58 59 67 66 83 97 84 75 68 73 79 81 89 84 97
66 62 62 63 63 64 66 67 70 73 78 96 96 97 89 88 98 99 95 94 87 90 75 65 64 60 70 73 77 72 72 60 60 59 64 62 82 95 89 78 75 81 78 73 73 82 94
64 64 62 63 63 64 65 67 68 72 77 94 96 94 94 97 93 90 94 91 84 79 64 57 62 59 61 69 65 78 72 71 62 57 63 62 80 82 88 78 84 92 85 80 83 100 92
62 66 63 62 63 64 65 66 68 71 77 91 98 95 96 98 92 91 92 86 83 85 67 61 61 60 62 72 74 78 70 66 64 67 70 67 90 92 82 76 83 83 80 82 91 79 92
62 69 62 62 63 64 65 65 66 73 75 95 95 99 89 96 94 87 84 84 85 81 76 76 58 58 62 79 76 78 72 77 71 72 71 69 94 96 92 82 90 95 84 83 82 78 78
65 68 66 61 63 64 64 64 65 67 78 98 96 92 97 87 93 87 82 82 76 75 73 75 75 80 82 83 79 70 61 62 65 74 80 76 95 93 94 85 92 94 88 84 84 80 72
66 66 73 59 61 63 65 64 64 64 71 98 96 98 97 95 95 85 83 71 78 81 80 83 80 80 84 74 75 71 73 66 68 80 68 84 96 100 95 92 96 66 66 68 74 73 76
64 64 71 65 60 59 62 63 63 62 63 93 98 98 98 91 92 87 89 84 83 82 85 87 88 83 82 80 89 86 82 77 74 67 77 73 92 95 97 87 78 66 76 82 85 74 69
65 65 69 73 60 58 64 60 62 59 61 91 97 95 98 98 94 94 99 85 86 89 86 89 85 85 83 89 87 94 97 88 97 95 80 82 85 98 99 98 93 60 66 73 75 87 70
67 65 66 76 64 60 61 66 60 57 57 86 93 88 98 97 88 91 98 94 80 88 89 92 90 86 84 94 94 90 84 83 94 97 99 99 99 96 99 97 85 62 61 74 86 72 76
66 69 66 71 75 65 59 67 66 64 62 78 88 89 96 97 86 85 84 94 94 90 91 84 88 89 95 92 94 94 93 88 92 87 93 94 97 96 88 98 94 61 82 82 68 77 78
68 71 70 72 79 70 62 60 64 60 63 76 91 82 90 98 92 88 80 75 78 86 96 92 84 88 91 95 97 95 96 92 90 94 88 90 85 92 87 81 60 56 64 69 74 78 81

GFSGBSN_sfc_rhum_036.txt.gz
RH
65 64 59 63 66 62 69 66 63 64 62 62 60 58 62 65 67 68 67 66 67 66 63 61 59 62 85 96 76 55 59 64 56 74 78 80 75 77 73 72 65 71 65 56 52 51 55
66 63 62 64 68 63 68 68 65 65 65 64 63 61 63 64 65 64 66 64 65 65 62 61 58 64 93 97 55 49 51 74 62 82 77 78 72 64 67 69 64 61 58 56 53 52 52
60 63 67 66 58 68 71 70 68 66 66 62 63 62 64 63 62 64 66 65 65 63 60 62 58 68 95 78 56 48 62 74 70 78 87 75 70 68 63 69 60 57 65 66 60 59 57
64 66 64 62 62 70 69 69 69 64 65 65 63 65 59 63 66 68 69 68 69 65 63 64 63 84 92 65 73 62 61 88 86 80 75 74 72 71 70 65 67 71 71 84 62 59 56
65 64 66 64 63 70 69 67 67 67 64 63 68 68 61 61 65 69 72 72 66 68 68 64 80 91 88 75 74 55 58 82 87 88 84 66 74 79 74 77 85 82 92 86 66 56 57
65 66 64 64 65 70 67 66 67 67 65 64 72 62 59 63 69 75 78 74 69 70 73 68 74 92 82 76 76 49 62 78 76 78 86 84 84 93 91 77 91 84 86 85 78 59 67
65 64 64 64 65 69 65 67 66 59 60 63 67 61 60 67 71 76 83 90 81 85 93 82 80 75 75 67 76 64 54 78 92 84 91 90 91 88 85 81 76 74 80 81 73 58 61
61 60 64 65 65 65 62 59 58 64 68 63 62 62 63 66 68 73 90 94 84 80 85 70 61 72 67 65 82 74 58 83 88 96 90 89 90 80 73 70 74 78 84 88 72 60 62
62 62 62 61 68 61 60 63 66 68 73 74 73 76 74 71 72 86 89 82 80 85 91 81 79 83 70 68 71 78 69 81 86 92 91 88 82 73 73 74 86 76 82 83 80 65 65
62 61 64 62 58 68 63 65 69 72 76 76 74 77 77 77 84 91 88 82 89 85 94 98 88 91 76 76 76 62 65 75 84 90 85 92 86 83 86 84 77 90 60 67 66 75 86
62 65 62 58 67 64 61 67 70 74 76 75 78 78 74 71 94 88 95 92 89 90 95 97 89 83 76 69 71 70 72 65 79 82 81 93 94 92 93 87 77 86 64 66 71 80 80
62 63 62 59 60 61 65 69 71 73 76 77 79 79 75 89 94 96 86 84 88 94 98 99 94 91 77 78 81 72 71 66 64 75 70 76 74 80 82 76 69 60 65 73 84 82 90
63 63 61 60 64 65 67 66 73 72 76 76 76 80 87 88 92 94 91 92 96 95 98 100 97 76 77 82 80 75 86 82 94 99 100 89 73 61 57 68 62 65 77 92 80 86 84
64 63 61 61 60 63 64 68 72 74 75 80 76 78 86 90 94 92 93 93 92 98 100 91 74 80 87 74 82 81 85 88 69 89 96 96 96 68 59 67 75 80 76 87 70 78 83
64 63 62 62 62 64 66 67 73 74 78 82 74 91 93 88 91 94 98 98 98 100 94 87 76 90 94 87 89 90 82 81 75 72 85 89 87 66 64 68 66 81 88 72 88 89 93
65 64 62 63 64 65 67 69 70 73 78 80 93 94 92 83 92 94 98 99 99 83 71 71 92 87 95 85 93 90 88 74 69 69 75 78 94 75 69 65 66 70 67 86 92 78 80
66 65 63 64 65 66 67 69 71 73 78 73 94 89 78 91 88 95 99 100 90 82 76 72 86 84 90 88 89 95 86 73 64 68 62 71 82 85 72 82 83 81 87 86 82 86 87
66 65 63 64 66 66 67 69 71 74 80 84 95 93 80 88 97 98 100 99 85 87 82 62 66 70 81 83 83 82 83 73 60 60 70 70 84 96 86 78 71 76 82 79 89 88 94
64 64 64 64 66 66 67 68 70 73 78 95 96 96 86 87 98 99 91 93 89 88 75 65 66 62 73 74 77 73 73 64 61 59 63 65 82 95 87 76 75 84 80 74 76 82 97
66 65 65 65 65 66 66 67 69 72 77 94 96 95 94 96 96 91 93 92 85 81 69 62 66 62 66 72 71 77 76 73 66 59 64 62 77 82 85 75 84 93 87 80 82 99 91
66 65 68 65 65 66 66 66 67 70 76 92 97 97 92 99 94 94 93 89 88 87 75 65 64 63 65 78 82 81 75 76 69 72 69 67 90 90 82 76 82 83 83 87 89 84 90
66 66 71 66 65 65 67 66 66 70 76 94 97 98 89 96 94 89 82 84 86 87 84 77 66 66 69 74 75 84 76 80 74 72 76 72 98 94 93 86 89 94 87 84 86 82 80
65 67 67 68 64 63 66 66 66 66 79 98 97 88 90 86 92 88 88 82 77 78 76 81 74 74 79 87 86 69 63 66 65 74 81 75 95 96 96 89 92 94 88 84 81 81 70
66 65 65 72 64 61 62 63 65 64 74 98 97 98 96 94 94 88 90 85 84 86 83 86 80 82 85 77 79 68 70 70 68 78 69 80 95 96 94 89 97 66 72 66 69 71 69
65 64 66 70 68 63 61 61 62 62 65 91 97 98 98 90 90 90 91 92 85 82 88 88 89 84 85 81 88 82 82 75 71 67 75 70 92 92 94 86 76 71 77 75 78 73 70
66 68 66 68 73 64 62 65 60 58 63 86 95 95 98 99 93 94 95 94 88 90 86 89 87 86 83 90 90 94 97 89 98 95 81 83 81 92 99 98 97 64 65 70 75 81 69
69 65 66 67 74 72 64 62 68 65 63 82 91 90 98 97 77 89 92 96 87 89 89 91 90 87 84 94 93 92 91 84 90 91 98 99 99 98 95 95 87 64 56 71 85 73 75
69 67 71 68 71 80 68 62 64 67 63 77 88 91 92 98 93 86 87 95 88 92 92 85 89 88 94 91 92 93 91 90 93 85 80 87 92 96 88 99 94 67 80 76 67 77 78
67 69 72 70 69 72 79 76 65 62 62 75 91 82 91 95 83 86 82 78 82 78 96 94 87 88 90 94 96 95 96 96 92 95 90 96 86 92 83 82 62 68 65 62 73 77 78

GFSGBSN_sfc_rhum_039.txt.gz
RH
64 57 59 64 65 62 63 71 70 68 66 66 65 62 64 63 61 62 63 64 63 66 65 65 63 56 74 89 83 56 57 57 57 66 77 74 83 73 75 67 62 62 60 52 48 49 48
60 62 65 64 66 60 69 70 69 68 68 66 64 63 62 61 63 60 61 65 63 64 65 68 60 57 82 98 55 73 54 56 60 74 79 71 74 62 64 65 61 58 54 51 49 48 46
61 66 66 66 63 62 70 69 68 68 68 68 66 67 65 68 60 64 64 65 62 63 65 64 60 59 83 79 56 78 61 70 60 73 82 73 57 60 59 67 56 58 64 56 54 52 50
60 65 64 65 62 64 68 66 69 69 68 67 67 68 69 64 57 64 67 69 69 66 65 63 64 75 84 60 69 71 56 84 62 73 69 72 62 62 61 57 61 65 60 72 54 55 50
65 63 63 64 61 66 68 64 65 62 59 60 61 69 71 60 59 68 72 73 72 68 64 64 81 85 88 72 74 66 55 86 84 83 86 71 68 74 66 72 78 72 81 76 61 57 54
65 62 62 61 62 70 61 63 59 66 68 71 69 66 62 59 64 72 72 73 70 67 72 69 75 85 76 80 74 57 60 82 81 91 82 76 84 89 84 79 84 85 79 74 61 51 59
60 61 64 64 63 60 67 65 64 68 73 75 76 70 64 60 62 74 84 86 79 87 92 82 74 76 80 82 70 63 70 81 81 78 94 85 92 87 84 67 62 66 72 71 63 52 55
61 61 63 61 61 68 61 62 69 70 74 71 71 74 78 82 68 68 88 87 79 79 84 69 66 62 60 67 78 73 67 89 88 91 87 93 90 70 74 69 66 69 75 76 65 54 54
64 62 61 60 63 60 62 69 70 73 72 75 76 75 74 76 75 87 84 82 82 81 88 84 84 82 82 64 77 76 74 89 88 92 86 80 74 68 71 77 78 76 80 77 70 58 55
62 63 62 60 59 63 69 70 72 74 75 75 76 76 73 74 81 84 84 91 88 81 94 97 90 94 76 80 86 66 75 79 94 95 89 89 87 73 77 78 72 87 61 63 62 68 72
62 64 62 61 61 64 66 68 74 74 75 74 76 78 77 76 88 93 93 92 88 86 94 92 91 80 68 79 78 76 71 70 85 90 86 95 89 93 86 82 69 77 60 63 65 71 69
62 64 62 62 62 63 64 69 74 73 75 78 74 76 79 89 93 95 88 84 85 89 99 98 90 89 77 84 84 82 78 67 72 81 77 86 82 85 90 90 72 59 61 68 72 71 83
63 64 63 63 63 64 64 69 74 74 75 79 79 74 85 89 97 94 90 91 92 96 98 100 98 76 80 87 86 87 82 84 91 99 100 96 96 81 81 90 85 70 72 88 79 88 79
65 64 64 64 64 64 66 70 70 75 76 80 80 73 84 87 94 90 94 90 92 99 100 90 81 77 88 88 86 85 88 86 74 88 97 95 98 73 58 68 79 76 71 82 73 58 63
63 68 64 64 65 66 66 66 72 74 76 82 76 90 91 88 90 94 98 98 98 100 78 83 73 88 92 89 86 86 96 84 73 70 84 84 91 63 64 65 62 74 84 62 84 80 79
64 67 65 65 66 66 67 68 69 74 76 80 94 91 87 84 93 95 98 95 99 88 72 73 88 83 94 89 91 86 84 72 71 64 66 72 96 70 65 62 64 67 65 85 89 82 69
65 66 67 65 65 67 67 68 70 72 77 75 93 85 76 90 89 95 99 100 91 82 78 73 87 90 82 84 94 94 80 71 64 64 61 67 78 85 68 75 78 76 79 80 73 77 73
65 64 68 65 65 67 67 68 69 72 77 83 94 92 79 87 94 98 99 100 86 88 82 66 68 74 81 81 82 85 76 72 62 60 69 70 81 92 79 73 67 70 75 69 78 82 87
66 64 71 66 66 67 68 68 69 72 76 97 94 94 83 86 97 99 92 92 92 82 72 63 66 67 71 73 78 72 74 65 63 62 66 63 80 94 84 72 72 79 77 69 69 79 98
66 65 68 67 66 66 67 67 68 70 76 93 95 91 92 95 95 91 95 90 84 81 71 63 68 63 66 71 74 79 74 77 69 61 65 60 74 79 77 72 80 93 83 72 79 93 83
66 66 67 72 65 65 67 67 67 68 76 91 97 97 92 98 93 95 94 90 88 86 79 66 67 65 68 80 84 85 81 81 73 70 68 66 90 89 77 71 80 81 81 84 87 79 85
66 67 67 69 66 64 64 66 66 67 76 90 96 95 83 97 94 92 82 88 88 87 88 77 67 68 72 74 70 83 77 81 78 77 74 70 98 93 93 84 85 92 82 82 82 78 77
66 66 66 67 70 66 63 64 65 66 79 98 96 89 94 87 92 89 88 85 84 83 85 87 78 68 73 83 86 78 68 66 66 73 80 74 96 95 91 84 88 93 89 82 78 78 69
64 66 65 66 74 67 63 65 63 63 75 96 97 98 88 95 95 91 91 89 85 87 84 88 83 80 87 78 78 67 64 71 68 75 66 82 93 94 92 88 96 66 70 70 69 68 68
66 62 61 64 68 70 65 64 62 60 65 96 97 99 95 88 90 91 95 95 86 82 89 88 90 82 83 81 83 81 82 73 71 71 71 68 87 93 91 86 72 72 76 76 72 67 62
66 70 63 65 68 77 70 62 68 64 66 86 95 96 98 92 93 93 90 95 92 90 86 90 89 88 80 84 85 91 94 89 94 97 82 80 82 86 96 98 96 62 75 66 68 80 67
68 70 67 71 69 72 78 66 65 66 70 82 89 90 97 98 84 81 87 93 92 91 90 90 91 89 85 93 94 94 94 84 88 80 98 97 99 96 89 92 84 64 68 70 94 75 62
72 68 69 70 70 70 73 77 74 62 65 80 90 91 87 95 91 86 88 97 90 87 92 85 90 89 94 93 92 90 90 87 92 86 81 79 97 93 87 95 95 70 79 86 70 69 72
72 67 71 70 70 69 71 76 83 64 64 78 91 83 91 93 85 74 77 71 77 72 87 94 91 87 90 94 96 95 96 96 92 97 91 92 83 91 84 75 61 66 70 66 68 68 73

GFSGBSN_sfc_rhum_042.txt.gz
RH
63 63 64 66 65 65 65 68 68 68 66 68 68 68 68 64 61 61 59 60 62 60 62 64 70 67 54 61 64 57 55 50 60 54 58 64 61 60 60 49 48 41 41 34 32 39 38
61 65 63 66 66 63 68 67 68 69 69 68 67 68 67 68 66 63 63 61 61 59 61 68 68 63 59 72 40 57 57 52 59 54 59 59 48 46 51 52 48 37 42 36 35 38 39
61 68 65 65 63 61 70 65 64 60 61 60 60 62 66 68 71 59 62 65 64 63 63 63 64 55 65 50 48 60 59 57 54 50 57 55 41 51 47 58 43 44 45 42 42 36 36
67 62 61 64 64 64 60 59 62 66 68 69 72 70 66 70 64 57 64 67 67 67 64 63 60 62 67 37 35 46 59 57 48 52 52 54 47 46 47 44 48 47 44 52 32 38 40
65 59 63 64 62 59 67 65 63 69 71 72 72 73 81 69 58 60 69 68 68 68 62 62 66 70 58 56 70 48 52 63 53 56 64 57 55 52 51 53 59 46 38 40 42 39 33
60 60 66 62 58 67 65 65 72 68 70 70 70 71 78 60 55 65 69 72 69 64 62 57 58 76 54 59 57 55 48 74 69 72 83 75 70 65 48 47 49 47 38 41 36 40 47
66 61 66 61 60 65 67 70 70 70 72 71 73 73 72 74 63 67 71 64 62 65 66 50 48 65 60 64 54 62 55 92 74 77 90 84 85 77 54 42 38 40 42 37 37 41 43
62 62 60 60 62 68 70 69 72 71 74 71 73 73 71 77 76 69 71 61 59 67 59 53 57 56 51 62 71 63 62 89 79 85 77 85 75 49 48 48 48 44 42 42 52 46 43
62 64 63 61 60 62 68 70 74 74 73 72 75 74 70 67 74 85 71 68 66 63 64 70 74 73 77 62 63 65 70 90 82 84 80 76 61 48 56 55 54 53 49 57 48 47 43
62 63 63 62 62 63 66 71 76 75 72 76 73 75 73 63 63 75 74 74 68 63 93 97 92 92 72 66 76 61 84 81 91 94 78 71 70 53 52 58 48 65 53 54 53 52 42
63 64 64 64 62 64 64 69 75 76 72 78 76 73 72 74 69 78 80 72 71 74 89 93 92 73 63 72 75 82 93 92 86 92 89 96 80 63 60 54 51 55 51 52 54 54 54
63 66 64 65 64 64 66 66 71 76 76 77 80 73 75 72 71 82 75 69 72 97 96 99 90 80 80 78 78 79 86 71 76 86 83 91 83 87 86 72 56 47 50 52 54 54 79
64 67 65 65 65 65 65 67 68 73 78 76 78 78 69 70 67 73 76 74 99 93 94 100 93 70 86 82 82 77 70 83 92 99 100 96 95 92 78 90 77 55 60 88 87 92 66
65 68 66 65 66 66 66 67 68 71 75 77 78 75 74 66 73 78 80 88 94 98 92 84 72 71 95 84 90 88 72 92 65 74 82 97 97 94 88 85 95 80 68 66 67 53 42
64 66 67 66 66 67 67 67 68 71 74 79 76 62 73 68 72 78 86 100 99 100 74 71 56 64 73 71 85 81 78 68 58 57 70 80 94 67 63 55 72 88 90 47 63 56 60
65 65 65 66 67 67 68 68 68 70 77 80 77 65 67 67 76 81 90 97 98 77 59 55 65 62 66 70 68 67 74 58 57 50 48 60 93 63 57 54 51 54 48 77 83 80 57
65 65 67 66 67 68 68 68 69 70 76 76 75 68 64 74 73 76 100 100 75 66 59 55 64 61 62 68 69 62 60 57 50 50 45 50 61 80 61 66 60 60 61 58 52 54 51
66 66 67 66 67 68 67 68 69 69 77 80 80 94 67 73 84 85 90 93 81 67 58 51 52 60 58 64 65 61 52 54 47 44 51 53 63 87 73 58 54 53 52 43 55 73 62
66 66 67 74 67 67 68 68 69 68 75 89 79 80 66 74 86 88 74 74 74 62 54 48 51 52 52 55 60 59 58 55 49 47 49 48 66 91 83 63 60 65 56 50 50 60 87
66 66 67 71 68 68 67 68 68 67 76 78 81 95 70 77 76 69 72 69 62 66 55 49 51 47 48 51 50 57 57 60 54 50 63 51 56 71 58 63 65 87 66 56 66 88 56
65 66 68 67 72 69 66 67 67 66 76 73 87 90 81 86 73 70 73 71 68 64 60 48 50 46 46 54 55 57 59 58 54 62 52 49 92 87 59 57 66 70 68 67 85 60 77
64 67 68 66 70 69 66 67 66 65 74 68 90 90 70 71 75 66 68 68 71 69 68 55 50 48 48 49 42 56 54 52 50 56 52 54 94 87 87 72 68 80 63 62 64 58 56
65 67 66 66 66 72 66 67 64 64 69 82 87 83 90 74 70 60 60 65 65 66 68 64 48 53 57 61 57 50 42 42 43 50 55 58 85 91 78 69 72 81 66 61 60 57 53
67 63 59 58 65 72 69 66 66 64 68 86 84 95 85 70 69 61 72 73 68 70 66 65 59 54 62 50 46 45 47 50 48 55 46 62 79 84 89 78 89 55 53 52 56 50 50
64 64 69 63 69 69 76 65 68 65 66 76 80 90 92 78 66 65 81 78 72 64 68 70 69 68 58 59 62 65 63 61 62 63 53 50 65 84 86 74 54 47 62 60 62 58 48
67 68 68 69 70 71 74 74 66 66 68 67 82 80 88 82 60 74 83 84 71 65 64 72 71 68 64 72 70 73 76 60 76 76 69 61 55 69 80 90 76 55 55 50 52 70 51
71 71 67 69 70 70 71 74 81 64 68 67 78 77 81 88 62 64 77 80 75 70 68 72 74 76 68 72 69 70 70 61 74 71 88 83 82 83 76 72 52 42 56 56 92 73 54
74 72 68 70 70 69 69 72 74 81 64 71 79 79 75 79 58 58 69 70 77 82 72 74 78 76 79 81 69 67 62 61 65 54 62 66 77 89 70 80 77 48 67 73 57 54 67
84 70 70 71 70 72 72 71 70 84 81 72 79 72 78 86 68 53 46 44 54 57 80 82 84 75 67 72 77 70 67 65 65 75 63 66 54 56 54 51 43 51 51 52 50 53 56

GFSGBSN_sfc_rhum_048.txt.gz
RH
64 64 61 63 65 60 65 69 64 66 67 68 70 70 68 71 69 65 66 62 62 58 62 59 66 65 71 80 61 36 49 61 64 66 56 62 44 60 61 53 43 48 36 28 27 36 38
63 63 62 65 60 63 65 64 68 71 69 70 67 69 66 68 73 64 63 62 60 63 61 63 61 62 72 91 32 31 55 62 65 76 51 58 38 44 48 42 48 39 37 35 27 38 38
64 65 62 60 63 66 64 67 68 69 70 69 69 70 68 71 70 66 66 56 60 64 62 63 60 55 68 60 36 64 66 64 69 65 52 49 39 39 46 51 36 38 46 43 37 38 41
64 62 64 61 64 66 66 67 68 71 70 71 70 68 68 74 70 67 58 61 64 66 66 66 60 57 69 36 40 37 77 59 55 64 48 44 45 42 51 47 43 46 51 57 39 38 38
64 63 63 62 62 65 66 67 68 72 73 73 71 69 71 71 66 56 60 65 68 67 65 65 63 66 59 40 42 34 64 67 58 67 62 43 58 63 60 64 64 54 61 55 46 34 38
65 64 64 63 62 63 68 69 69 72 71 73 73 68 73 70 57 64 66 66 63 66 62 50 46 68 48 50 36 33 58 63 73 78 76 68 78 81 67 66 88 62 56 47 48 38 39
66 65 64 64 64 63 66 68 69 72 75 75 74 70 73 67 59 67 71 68 74 67 54 76 57 53 63 51 37 45 64 70 82 84 86 78 87 88 68 52 44 40 45 42 35 36 42
66 66 65 64 64 64 64 66 68 71 73 74 75 75 69 72 66 71 69 56 64 67 66 39 40 44 42 45 74 75 58 78 90 89 66 88 88 57 52 43 40 37 40 41 38 39 42
67 66 67 65 65 65 65 64 66 68 72 73 72 78 71 70 68 70 58 62 58 58 77 61 67 71 67 68 71 93 60 88 83 77 71 78 62 47 47 49 44 38 45 41 44 45 45
66 66 66 67 66 66 66 66 65 65 68 74 75 75 78 72 75 65 62 56 58 61 98 90 80 74 71 74 93 78 71 82 84 74 62 67 59 64 59 54 42 44 35 38 48 59 63
66 67 67 67 68 68 68 68 67 67 68 70 77 75 78 77 68 64 64 60 64 80 97 98 91 67 75 86 81 89 82 74 89 68 82 95 75 76 78 62 41 46 49 53 59 68 67
67 67 67 68 68 69 70 69 69 68 69 72 74 74 76 72 72 56 61 62 74 100 98 98 88 88 82 73 84 81 88 76 82 81 80 90 78 78 76 69 51 48 57 60 65 70 94
67 67 67 70 69 69 70 72 70 70 70 74 78 78 80 58 73 62 65 76 100 94 91 98 84 74 80 87 82 78 90 94 98 99 100 97 94 86 81 85 72 56 65 95 97 98 90
66 67 68 70 70 70 70 71 72 71 72 78 82 80 70 54 62 66 80 96 93 86 85 75 73 70 86 76 80 88 95 98 87 84 99 100 99 96 84 82 83 69 59 87 78 91 81
67 67 68 69 71 71 71 71 71 72 76 80 84 70 67 69 64 76 96 97 98 99 62 64 61 64 73 70 69 73 89 88 82 84 97 99 99 91 86 78 78 82 97 55 75 50 84
67 68 68 70 70 72 72 71 71 72 74 80 73 63 65 61 68 84 99 93 93 64 48 44 58 58 68 63 68 61 58 52 57 54 48 72 98 95 90 88 81 89 73 82 94 93 71
67 67 69 70 70 72 72 71 70 70 73 80 80 69 70 66 75 93 99 100 57 46 48 52 50 50 54 55 55 48 54 55 45 45 44 54 72 96 95 97 96 95 91 70 67 80 92
67 68 69 70 71 71 71 71 70 69 71 71 82 96 71 72 92 87 89 84 68 49 47 46 49 49 51 52 56 55 52 53 44 46 54 58 72 95 76 56 55 77 78 64 89 83 75
66 66 68 70 70 68 70 71 70 67 66 82 77 74 72 74 90 82 67 56 54 50 47 44 47 49 47 51 60 52 54 57 50 50 54 52 83 97 86 70 59 68 56 67 53 78 90
64 65 67 68 66 67 73 71 70 68 68 82 75 100 78 75 65 66 61 54 56 62 51 42 44 45 48 50 47 58 57 59 58 51 62 55 62 84 89 80 73 81 63 58 78 96 78
64 65 67 64 65 69 75 71 71 72 73 80 69 85 72 92 68 62 63 57 53 55 55 46 48 45 44 52 48 51 54 59 54 60 57 58 96 86 62 56 77 83 70 66 83 73 85
62 66 65 65 68 70 75 71 71 70 73 68 83 91 75 74 60 60 69 63 59 55 57 52 52 41 41 47 44 50 50 53 57 57 58 63 94 90 89 62 68 78 66 63 65 64 64
62 66 68 68 69 70 75 74 71 70 68 67 66 71 88 75 59 61 61 58 57 62 60 51 49 46 46 57 50 51 43 42 46 55 59 65 89 95 89 70 77 88 71 64 60 60 59
63 63 70 69 70 71 71 76 75 70 69 61 64 85 86 74 62 56 59 59 61 62 70 49 52 55 58 51 50 48 48 45 48 51 46 60 77 94 96 90 98 62 54 52 55 51 52
63 63 70 69 70 71 71 71 74 72 69 68 64 72 80 68 48 52 64 68 67 61 65 61 60 62 52 59 54 64 67 63 52 57 55 44 67 91 86 91 62 48 58 62 60 59 44
66 68 70 69 70 70 71 72 72 74 71 71 75 74 72 80 54 42 62 66 82 73 67 65 69 65 70 77 69 73 77 60 69 67 64 51 54 76 80 79 86 67 55 50 55 87 50
68 70 73 70 70 70 73 74 72 73 74 80 78 75 78 69 46 49 61 72 66 80 79 70 79 82 78 81 80 75 74 58 67 62 78 81 77 89 86 81 64 55 56 55 90 84 62
71 73 79 71 70 70 72 74 75 72 74 86 80 75 82 79 67 52 45 55 57 60 89 84 83 80 87 90 80 76 70 62 68 56 68 68 74 73 71 85 88 61 67 80 75 74 71
72 77 80 71 72 72 74 74 74 73 72 75 85 70 73 92 77 64 61 53 53 52 71 73 87 79 88 90 81 72 76 63 63 73 56 72 61 66 62 69 53 54 61 61 58 64 72

GFSGBSN_sfc_rhum_051.txt.gz
RH
63 63 62 61 62 63 67 65 67 68 68 69 68 66 66 66 67 70 65 65 63 60 60 61 62 65 72 84 78 44 46 51 54 71 72 76 67 88 78 75 56 64 46 42 44 50 53
63 63 62 62 60 65 66 65 67 69 71 69 68 65 68 69 69 64 61 60 58 62 62 61 61 62 75 92 44 51 43 51 63 75 68 74 48 67 70 62 62 49 47 47 43 41 37
64 63 63 62 62 62 67 71 69 70 71 70 69 67 71 72 72 67 62 56 59 61 61 64 61 60 78 72 41 54 67 71 68 67 71 63 56 59 55 61 48 48 55 56 50 46 43
65 64 64 63 62 62 68 67 70 70 70 70 72 67 71 69 66 65 59 63 64 65 65 63 64 72 78 42 43 45 64 68 82 76 65 60 58 56 62 57 48 53 58 72 48 45 43
66 64 64 64 64 62 64 70 70 69 72 72 73 68 71 63 60 61 66 64 65 64 63 64 77 84 74 46 50 42 60 59 81 85 89 51 64 68 64 72 76 63 82 67 51 42 44
66 65 64 65 65 64 62 65 71 71 71 71 73 70 72 65 61 68 67 65 62 71 64 56 56 80 62 61 50 56 61 60 84 85 89 73 82 87 84 84 86 78 73 60 56 44 44
66 66 67 66 65 65 64 64 62 69 71 75 71 75 69 72 66 69 78 84 81 80 70 80 74 61 56 52 50 63 62 73 84 97 86 80 91 90 81 76 61 57 59 56 48 40 48
67 67 65 66 66 66 65 65 66 64 66 72 75 75 74 71 69 67 80 76 80 74 84 57 58 52 44 43 72 72 77 95 91 94 80 88 91 72 66 57 58 56 59 54 46 43 46
67 67 67 67 66 67 67 66 66 67 67 69 75 74 76 72 71 81 74 76 68 70 92 65 72 77 75 67 78 77 85 87 83 90 78 78 70 57 63 63 61 60 54 53 52 49 49
68 67 68 68 69 67 67 69 69 68 69 68 73 78 75 78 80 78 77 68 71 75 97 94 81 88 74 80 87 84 71 87 90 83 71 71 63 66 64 69 59 67 43 44 56 63 70
68 68 68 69 70 70 70 69 69 71 71 71 71 77 73 75 94 82 76 70 72 88 94 94 90 77 84 87 81 81 80 87 85 77 78 89 82 79 80 70 56 60 51 59 64 71 74
68 68 69 70 70 71 71 72 71 71 73 72 72 77 73 84 91 74 70 73 83 93 97 98 83 84 97 88 82 79 86 81 76 83 84 90 79 90 88 82 68 54 63 65 75 82 93
67 68 70 70 72 72 72 72 71 71 73 75 76 78 83 70 85 66 74 91 97 94 89 92 91 83 83 85 88 78 86 90 93 99 100 92 94 85 85 86 77 65 69 96 96 97 91
66 69 70 70 68 72 72 72 71 71 73 76 82 80 82 69 76 73 83 95 91 88 88 79 79 78 83 80 86 89 91 94 88 89 94 98 98 95 86 88 94 82 67 88 90 98 89
67 69 70 70 70 74 72 70 70 72 77 75 83 94 89 82 75 81 96 96 89 97 68 71 70 78 84 74 81 94 96 87 82 83 90 99 99 89 83 85 91 93 97 62 78 66 89
67 69 70 71 71 68 71 71 70 70 74 76 99 92 88 80 82 88 98 91 94 79 60 54 72 66 90 78 82 86 94 73 83 75 83 86 97 95 88 82 80 89 73 86 95 98 75
67 68 70 70 71 71 69 72 71 70 72 76 98 92 84 81 89 93 97 99 82 55 57 63 65 59 62 64 70 63 64 60 53 65 60 71 81 98 95 98 96 92 92 75 76 89 93
66 67 68 70 69 68 71 72 71 69 72 84 98 97 85 92 98 96 96 87 70 61 56 56 59 60 62 60 50 59 66 61 47 48 60 60 82 98 91 78 72 82 83 71 92 84 80
65 65 66 66 67 68 75 72 72 68 70 82 99 93 89 92 98 89 78 71 68 64 56 54 58 58 57 60 64 58 69 60 52 58 57 60 87 96 89 75 74 92 91 81 78 78 87
64 65 67 65 70 71 75 74 73 69 70 94 98 98 90 98 87 81 74 69 75 67 63 50 52 52 59 59 54 65 72 64 60 58 64 58 75 83 86 76 79 84 77 84 95 94 77
63 65 66 68 69 71 75 75 75 74 77 94 96 92 81 97 78 82 77 66 64 72 65 53 57 54 56 60 56 63 69 72 62 64 62 65 87 81 70 72 77 80 74 77 97 75 83
63 66 68 69 70 71 73 76 75 74 72 86 93 91 88 97 84 78 80 73 68 68 64 62 60 52 48 59 56 59 63 67 68 69 66 70 94 90 87 68 71 81 71 72 73 67 68
63 64 70 70 70 71 72 74 74 72 75 92 90 87 85 86 88 80 80 70 72 68 67 59 64 60 56 70 63 62 51 51 53 65 68 74 90 95 92 80 82 84 75 69 68 66 62
64 63 69 69 70 71 72 73 74 74 76 84 84 89 94 93 70 64 73 71 77 76 82 62 68 69 60 56 56 52 52 50 51 61 57 83 80 93 96 90 96 57 60 59 60 53 62
65 65 69 69 70 71 73 73 72 74 71 86 89 94 95 95 70 56 63 76 77 76 77 74 77 78 70 73 67 70 73 70 59 63 63 58 67 85 88 89 67 58 66 63 68 65 52
68 69 70 70 70 71 74 75 75 74 76 91 93 92 94 95 75 58 65 72 93 94 83 82 81 75 77 85 73 79 84 64 70 64 70 61 59 77 84 76 89 65 60 53 62 84 62
69 71 73 70 70 70 73 75 76 72 73 93 94 85 95 95 71 61 69 79 74 81 94 80 86 87 82 91 88 82 76 64 80 76 77 80 79 89 84 91 73 49 59 60 87 75 70
72 73 77 72 69 70 74 74 75 74 74 90 94 82 87 97 89 71 59 61 63 77 89 84 81 86 94 92 92 86 74 68 77 68 80 86 81 81 79 88 92 63 74 81 72 81 75
73 76 80 72 71 73 74 76 75 73 73 77 96 75 77 95 91 76 66 62 64 61 74 78 85 83 91 98 94 91 81 76 75 84 74 80 69 76 72 75 55 69 75 70 70 78 82

GFSGBSN_sfc_rhum_054.txt.gz
RH
64 62 63 62 62 67 67 66 68 67 69 67 68 64 69 69 68 66 65 64 61 61 61 60 61 67 69 83 78 48 57 58 50 78 80 74 85 73 88 82 73 67 58 52 57 66 66
65 64 63 63 63 63 68 70 68 69 69 68 69 66 69 70 67 65 63 61 57 62 62 62 60 63 81 91 44 52 51 50 54 77 76 76 75 74 69 73 75 63 53 55 60 62 56
64 64 64 63 64 62 68 71 69 70 70 70 70 68 68 67 65 65 60 59 61 62 62 62 60 61 82 72 47 56 53 62 58 71 75 77 61 78 67 74 60 54 68 59 52 50 50
66 64 64 64 62 63 62 67 70 72 70 70 70 67 69 64 60 61 64 64 63 65 64 64 62 75 91 50 56 53 58 79 78 74 63 71 58 72 68 62 60 60 63 73 53 50 43
66 66 66 65 64 64 63 63 62 70 72 72 72 73 70 67 63 66 65 66 63 66 62 64 78 85 81 45 53 49 61 75 85 86 71 64 71 74 68 74 81 70 89 76 58 48 47
66 66 62 65 66 65 64 64 65 62 66 72 70 74 71 72 68 68 68 67 64 69 65 61 62 83 64 62 56 62 66 75 88 88 85 80 86 88 79 79 85 77 84 67 62 48 50
67 66 66 67 66 68 67 66 66 66 64 67 72 73 76 69 71 70 79 76 80 76 73 75 65 72 53 54 48 74 76 85 88 90 96 80 93 91 80 72 63 66 62 68 58 47 49
68 67 68 67 66 65 65 67 66 68 67 67 70 73 74 76 69 71 81 83 84 76 85 63 65 64 55 44 72 78 74 97 92 97 81 91 90 78 69 67 61 60 71 67 51 44 49
68 68 68 68 67 67 69 70 69 66 70 69 68 74 70 74 73 78 77 77 70 76 94 73 75 81 81 72 78 88 89 88 84 93 78 77 77 68 70 72 71 73 69 66 54 53 54
68 68 68 69 68 69 70 69 71 71 69 73 72 70 71 75 81 82 81 71 74 76 96 92 80 78 79 83 84 88 92 88 94 90 73 77 69 69 74 74 64 78 50 48 53 64 78
69 68 69 68 70 70 71 71 71 71 72 74 73 72 71 73 91 84 72 74 78 84 92 89 92 79 75 84 81 82 82 75 89 91 82 98 82 77 79 72 58 65 53 58 67 73 74
69 68 70 66 68 70 71 72 71 71 72 74 73 75 71 86 97 78 76 80 84 86 93 98 89 89 88 87 84 76 87 76 83 80 84 87 81 90 92 84 68 62 63 70 81 80 90
67 69 70 69 68 69 74 71 70 71 71 72 74 77 80 80 90 75 81 93 91 95 75 84 95 86 80 82 84 80 87 89 94 98 97 96 91 87 89 86 79 71 66 98 96 96 88
66 69 70 70 67 68 66 69 70 70 71 75 77 82 82 76 81 79 91 90 89 86 82 72 80 78 83 86 85 84 87 94 89 88 92 95 99 96 90 90 90 88 80 92 88 96 89
66 69 70 70 67 70 69 70 70 70 73 78 80 94 93 85 79 81 93 94 88 92 77 79 77 91 90 81 87 89 94 78 83 87 87 94 98 87 83 91 86 95 99 71 80 82 92
66 68 70 70 70 69 70 72 71 70 74 74 97 94 90 86 84 87 95 89 91 80 67 63 87 71 92 84 89 91 96 78 79 76 78 90 97 94 87 82 91 94 76 88 94 97 80
66 67 69 69 68 69 71 73 72 69 72 76 96 93 88 86 88 94 96 96 86 68 59 64 70 67 73 80 80 87 90 76 70 78 80 84 83 98 94 94 88 98 98 88 77 90 94
66 66 67 67 70 71 74 74 74 69 72 84 97 98 90 91 99 99 96 88 70 64 62 62 63 63 66 66 62 60 73 68 57 62 69 72 88 94 88 75 74 76 86 71 93 90 86
65 65 67 67 71 72 74 75 75 68 71 93 98 96 95 93 98 82 82 73 72 68 62 58 61 60 60 58 63 70 73 64 59 57 66 68 90 99 97 89 82 96 88 77 80 79 89
65 65 67 69 70 71 73 75 75 68 72 94 94 98 94 99 95 83 83 78 74 69 66 53 56 56 62 64 59 73 74 66 62 58 63 61 83 82 87 77 85 94 96 87 94 97 78
65 66 68 69 70 71 72 76 74 69 70 90 97 96 84 98 88 77 77 64 72 78 68 58 61 58 62 66 66 71 76 76 64 65 66 62 84 82 74 75 77 80 83 92 98 79 82
65 66 69 69 70 71 72 75 75 72 68 89 96 93 82 97 93 87 81 72 72 72 69 68 66 62 58 60 57 62 69 78 70 76 76 74 94 88 85 70 78 80 73 85 90 87 87
67 66 69 68 70 71 73 74 75 73 73 92 94 89 92 85 90 87 83 72 79 74 69 62 64 71 68 67 65 65 59 58 60 67 73 78 90 92 91 85 77 81 74 72 76 73 79
68 66 69 69 71 71 73 73 74 74 78 86 90 96 95 91 73 73 67 69 75 80 85 74 76 74 66 62 66 55 56 58 61 73 66 85 82 91 96 87 96 63 58 62 61 54 64
69 68 70 71 71 71 73 75 75 75 76 88 95 94 96 86 80 59 61 72 78 84 82 76 82 79 82 74 72 75 77 72 66 64 65 71 65 93 96 96 70 58 70 70 73 67 55
70 71 72 71 70 70 74 75 76 72 76 94 95 95 95 91 80 67 67 73 95 96 91 86 83 80 78 83 77 85 90 75 72 62 72 60 59 77 89 82 87 54 68 59 63 85 69
72 73 75 72 70 69 74 75 73 74 76 94 95 89 94 96 86 79 73 76 72 74 85 82 87 87 83 92 86 86 82 67 77 74 76 79 78 87 82 90 81 55 55 64 88 72 74
73 74 78 76 70 70 73 75 76 73 73 89 95 86 88 97 92 78 67 73 72 74 87 82 91 87 95 92 91 88 77 69 79 73 79 84 84 84 80 88 91 60 78 81 68 81 78
75 76 81 77 72 73 73 73 73 74 76 73 96 78 79 93 90 83 74 70 67 67 71 70 91 85 89 97 96 96 88 86 81 86 81 82 69 74 75 73 55 59 66 71 77 78 81

GFSGBSN_sfc_rhum_057.txt.gz
RH
64 63 62 62 62 62 64 67 65 69 70 68 71 66 66 68 66 64 62 63 60 63 61 60 61 67 72 80 76 57 56 51 51 62 85 72 83 74 75 90 76 76 58 60 55 74 70
64 64 64 63 62 63 62 64 68 70 71 68 71 66 67 66 66 65 62 59 59 62 61 63 60 64 86 88 46 61 56 53 54 68 75 82 72 63 69 78 82 64 60 65 67 68 59
66 65 62 64 64 62 63 61 65 68 69 70 71 69 69 65 61 63 62 62 62 64 64 62 61 64 88 81 53 75 71 61 58 73 77 77 64 73 73 79 75 72 78 78 84 76 81
67 66 64 65 64 64 64 63 64 60 67 68 74 70 68 68 64 66 65 64 65 66 66 65 63 77 90 51 67 74 64 72 63 78 88 76 63 76 70 72 66 73 82 90 61 66 60
67 66 65 65 66 69 66 64 65 65 63 64 71 74 73 71 68 66 69 69 65 66 62 63 79 85 76 46 67 71 66 74 73 88 88 60 66 77 74 81 85 81 92 80 64 50 51
68 67 67 66 62 63 64 66 66 69 65 65 68 73 74 71 71 70 70 70 69 70 67 65 66 82 60 67 66 72 68 71 85 89 85 82 88 88 90 83 90 90 87 78 65 57 56
68 68 68 65 66 66 66 68 66 63 67 67 64 70 74 74 72 70 82 73 76 73 75 75 73 73 57 47 59 79 71 77 88 82 94 88 93 94 90 77 69 71 78 76 63 52 56
69 68 68 66 65 67 67 66 67 66 68 65 68 67 73 73 76 70 80 86 82 79 83 68 69 73 63 51 72 79 73 82 94 95 84 94 91 80 68 59 63 66 78 81 60 50 54
68 69 69 68 68 68 69 67 68 69 70 71 70 68 74 71 77 76 78 75 74 76 93 76 76 85 87 75 82 82 78 90 88 93 84 79 76 71 70 68 66 75 78 77 64 56 54
68 69 69 67 68 68 69 70 67 68 71 73 73 69 76 70 86 83 83 71 77 78 95 96 84 81 76 80 90 78 86 90 93 95 71 77 74 78 80 74 71 82 58 60 62 66 79
67 69 69 69 66 66 69 72 71 69 72 73 73 71 76 70 91 87 74 77 79 78 92 85 92 78 71 84 84 85 90 92 91 94 90 96 81 85 87 76 60 70 57 56 68 78 78
67 68 70 70 67 69 66 67 70 69 70 74 72 74 71 87 92 88 78 81 80 86 91 96 87 87 79 79 86 88 95 88 87 80 84 91 88 86 91 83 64 61 66 72 82 81 93
68 68 70 70 68 68 71 70 68 67 70 71 74 79 79 83 90 80 84 91 91 91 71 83 96 93 83 88 82 85 89 93 97 98 100 93 94 91 89 82 78 70 69 96 96 96 93
66 68 70 70 67 70 70 69 68 70 70 74 76 83 85 81 85 84 91 87 89 80 85 74 83 82 89 78 84 76 85 96 86 82 94 98 98 92 88 88 84 84 68 91 89 96 88
67 68 70 70 70 70 69 69 71 71 73 78 79 94 94 87 83 86 85 93 85 90 79 87 88 91 91 82 88 88 93 90 86 85 85 96 95 87 82 91 89 91 93 73 83 85 93
68 68 68 69 68 70 71 72 72 72 73 75 96 94 94 88 84 85 94 87 90 78 77 70 88 82 95 92 89 86 90 78 86 85 79 86 97 81 91 80 89 94 86 92 95 94 87
69 67 67 67 70 72 72 73 73 73 70 76 96 94 92 88 86 90 95 97 84 73 72 69 77 74 84 87 90 86 81 83 76 83 74 80 84 90 90 94 83 97 98 95 79 86 86
69 66 66 67 71 72 73 74 74 71 70 84 95 99 93 93 99 96 97 88 72 68 65 67 67 67 76 80 86 79 91 76 71 72 91 74 87 93 88 83 80 75 84 89 94 92 92
69 65 66 69 71 72 73 75 75 71 69 97 98 97 95 90 99 96 84 78 75 71 68 61 64 63 64 66 71 76 76 66 60 63 70 69 91 98 96 93 86 97 86 80 85 89 91
69 68 66 68 70 72 73 76 75 72 71 94 97 98 98 98 92 92 86 81 73 71 68 57 59 59 65 67 63 78 76 68 62 58 66 63 84 82 86 77 88 97 85 83 89 99 83
69 69 68 68 70 71 73 75 75 71 72 89 97 97 94 99 93 85 80 76 75 79 71 63 63 62 66 74 74 79 78 75 67 62 72 64 86 86 73 69 82 86 88 86 95 83 90
70 71 69 69 69 71 74 75 75 71 65 92 94 94 94 96 94 91 78 73 74 74 71 73 69 64 64 66 60 69 75 78 70 77 75 74 92 87 87 78 81 82 77 89 83 78 76
71 72 70 70 70 72 74 76 76 74 70 91 96 91 96 86 87 90 86 77 79 81 71 68 65 77 68 66 68 71 67 64 66 70 79 78 90 90 88 88 79 83 74 77 86 87 82
72 73 71 70 70 72 75 76 75 75 75 88 95 96 93 87 76 75 62 52 73 74 88 76 81 80 67 68 68 59 60 66 69 78 71 85 84 89 94 86 92 61 59 61 68 59 77
71 73 73 72 70 73 74 76 74 75 76 92 96 93 90 76 82 65 64 69 75 77 83 80 84 83 85 72 73 73 79 74 74 72 74 72 82 95 95 98 73 55 75 75 73 67 62
71 73 74 73 70 74 75 75 74 75 79 94 96 95 94 72 78 75 74 80 95 96 92 87 83 82 73 86 78 85 91 81 83 76 66 62 60 77 95 87 88 57 66 64 68 86 71
72 74 77 74 71 74 75 75 77 75 75 93 95 91 93 94 88 83 80 78 75 71 81 83 86 91 83 83 84 90 89 73 77 70 85 81 82 85 86 89 82 59 56 68 89 71 79
74 76 79 75 72 74 76 74 74 75 77 89 95 92 90 97 92 83 70 79 81 81 87 75 88 95 95 89 84 86 86 73 82 75 80 83 88 88 80 90 92 60 78 80 67 78 80
75 78 82 76 74 75 74 74 74 75 76 79 90 80 82 91 90 88 81 77 72 71 82 74 96 98 94 98 96 97 92 89 83 86 83 82 73 79 79 78 56 58 71 72 78 79 78

GFSGBSN_sfc_rhum_060.txt.gz
RH
66 65 64 63 62 63 63 62 63 67 68 72 72 69 67 64 65 65 64 63 62 63 62 63 62 67 74 83 80 50 58 58 53 64 73 79 80 80 88 91 86 87 72 63 67 69 66
67 66 66 65 64 63 63 63 63 60 67 70 72 71 68 65 62 65 64 64 62 63 63 64 62 66 87 92 57 67 67 59 57 65 77 83 69 69 81 86 85 76 74 66 74 76 73
68 66 66 64 62 69 64 64 64 63 61 68 71 73 71 69 64 64 65 64 64 65 67 65 64 66 91 82 66 75 68 72 67 69 79 72 77 70 83 90 81 83 92 88 77 71 78
68 67 66 66 64 66 65 66 68 69 64 60 67 72 73 70 68 65 68 68 67 66 66 65 67 80 94 58 73 68 74 77 67 69 65 66 75 74 79 77 79 87 89 96 87 82 80
68 68 67 64 65 64 63 64 64 62 65 69 62 70 72 74 70 70 68 69 68 64 63 64 81 87 76 55 69 86 87 86 82 76 82 67 76 81 68 84 89 80 97 92 95 78 92
68 68 68 63 65 66 66 67 66 64 67 66 72 65 72 73 76 72 71 70 70 70 67 66 70 83 59 62 70 87 73 78 81 88 90 92 89 92 87 87 94 90 90 89 86 79 82
68 69 68 67 64 66 68 69 70 66 67 70 73 73 70 72 74 76 82 68 73 68 72 78 71 72 60 52 79 70 71 83 81 76 98 89 93 94 92 78 75 78 80 84 74 58 64
69 70 69 69 64 66 70 70 64 66 69 71 75 75 68 71 70 76 79 80 76 76 88 66 72 73 67 65 76 76 78 85 94 97 90 93 89 82 72 64 66 72 81 83 72 58 57
69 70 70 69 65 67 64 70 68 68 69 72 75 74 69 77 72 79 79 77 76 80 93 72 78 84 86 83 92 93 80 89 90 96 91 79 79 71 69 72 70 78 82 80 76 64 59
69 70 70 70 67 66 68 65 67 66 70 71 72 68 70 76 85 85 84 73 82 75 95 85 88 79 75 86 87 80 87 84 88 90 74 74 76 78 78 74 67 82 64 62 66 73 86
69 70 70 71 71 68 69 69 69 68 66 68 68 70 76 74 91 90 78 82 86 74 93 75 87 73 73 86 83 79 88 85 86 92 90 96 89 88 88 73 59 72 58 60 69 81 80
70 70 70 71 70 69 70 70 68 67 71 71 73 73 78 81 84 90 81 84 79 86 97 94 84 89 81 82 84 85 94 96 81 88 85 93 90 84 88 81 62 64 68 73 82 83 95
69 70 70 71 70 69 71 70 67 70 71 72 75 80 79 86 92 85 86 89 90 88 70 91 88 70 79 84 88 92 95 96 98 100 100 88 91 91 87 75 76 69 67 96 96 97 94
70 69 71 71 70 70 70 70 71 70 72 73 78 84 83 84 87 86 87 85 90 79 88 67 79 76 91 84 83 88 97 99 91 85 96 98 99 94 90 84 84 81 70 92 90 95 90
71 70 71 70 70 70 71 71 72 73 72 74 79 95 96 90 80 81 84 93 83 88 80 84 86 89 85 86 84 85 97 92 79 75 84 96 97 84 87 93 86 92 89 68 84 87 94
70 71 70 68 68 71 72 72 72 73 70 78 96 94 96 92 82 87 94 89 90 75 78 79 90 79 92 74 93 92 89 76 85 82 80 86 97 81 86 83 91 88 79 88 92 96 92
71 71 69 66 69 72 72 72 73 72 69 76 96 96 92 92 84 91 96 98 84 72 74 72 82 74 86 88 89 89 89 84 84 86 75 80 81 93 83 90 88 95 97 94 84 88 91
72 71 68 66 70 72 72 74 74 72 71 84 95 99 92 93 99 88 98 88 75 72 72 68 69 70 83 85 92 94 92 88 79 82 83 82 84 95 84 81 73 87 78 85 89 90 95
72 70 68 68 70 72 72 75 75 70 73 97 98 98 94 92 97 98 86 82 76 74 73 65 67 66 67 66 78 83 82 68 76 76 82 78 92 98 97 90 85 93 77 80 88 90 96
72 70 69 69 69 71 74 75 75 68 75 94 97 98 96 98 92 98 90 83 76 74 71 62 63 63 69 65 73 80 83 70 72 71 73 66 89 81 89 78 89 94 84 75 82 94 84
72 71 72 69 68 71 74 75 75 67 76 85 97 95 93 99 96 94 89 83 78 81 72 67 65 65 69 77 77 82 81 77 67 74 76 74 91 89 80 72 88 92 89 90 97 88 96
72 73 72 70 69 72 74 76 76 68 67 92 84 92 94 96 93 92 80 86 78 77 71 77 70 69 68 71 64 72 80 82 83 76 80 76 91 85 89 81 86 88 85 90 87 86 87
73 74 72 71 71 75 76 76 76 70 64 90 97 93 94 86 86 92 87 73 81 79 74 70 72 81 72 66 73 70 69 66 68 72 78 76 89 91 86 89 83 87 78 80 86 87 80
75 74 72 72 72 74 75 75 76 74 75 90 97 96 93 89 77 80 64 60 69 72 84 75 82 82 79 78 70 63 65 70 70 79 74 84 83 87 92 87 84 58 64 64 72 65 82
75 74 74 72 74 75 76 74 75 78 73 94 98 91 82 73 79 64 65 76 78 76 83 88 90 88 87 68 71 74 80 78 79 78 80 73 83 96 93 98 70 63 79 77 75 69 66
75 75 75 72 74 76 75 76 75 76 78 95 98 95 92 65 73 81 78 83 94 94 83 87 83 78 77 82 74 84 87 82 84 84 68 66 63 75 94 89 86 56 59 68 68 84 68
75 77 76 73 75 76 75 77 74 76 81 92 97 91 92 91 90 86 86 84 78 81 85 88 87 90 86 86 87 92 89 75 81 75 80 83 85 96 90 95 82 61 60 65 86 69 76
77 78 78 73 75 77 75 74 76 75 75 88 95 89 92 97 92 86 79 85 85 86 91 70 87 92 95 88 83 84 88 77 83 76 82 88 92 97 86 92 92 61 77 82 64 78 80
79 80 79 74 76 76 76 74 75 76 76 78 96 80 86 87 89 90 89 88 83 79 87 84 94 99 98 99 96 96 93 90 84 84 83 83 77 82 81 79 59 59 71 70 77 81 80

GFSGBSN_sfc_rhum_063.txt.gz
RH
68 67 66 64 62 66 68 62 64 63 61 65 68 70 70 67 63 65 65 64 62 63 63 64 64 66 72 77 79 52 59 64 59 86 79 78 76 75 88 74 80 78 74 58 60 58 62
68 68 67 65 64 63 66 68 68 67 62 60 62 69 71 69 65 64 65 65 62 63 65 63 64 67 81 82 54 65 61 55 65 79 78 86 71 62 76 82 76 72 73 72 70 69 65
68 68 67 66 65 64 62 60 63 68 66 67 59 66 70 72 67 65 65 66 65 66 66 63 62 66 88 79 58 69 65 65 64 67 74 82 75 64 72 89 71 74 80 76 75 75 73
70 69 68 66 65 65 64 66 69 61 67 67 68 63 68 72 72 68 69 68 67 68 65 62 67 77 90 56 71 73 79 71 67 67 74 80 76 68 74 73 71 83 82 88 79 73 74
70 69 69 67 64 66 65 70 68 68 67 71 68 64 65 71 72 74 71 70 70 66 62 64 76 82 83 58 68 79 81 77 78 73 73 71 79 75 69 83 85 82 88 89 92 71 85
70 69 70 69 65 63 65 69 72 71 70 73 72 72 64 67 73 74 74 72 71 69 64 67 70 81 69 79 75 80 76 82 82 81 87 98 91 90 83 85 82 93 89 77 82 85 85
73 70 70 70 68 64 64 70 69 69 71 74 74 74 66 71 70 72 84 69 68 65 76 78 75 73 62 65 86 89 79 90 80 78 90 89 90 89 84 66 68 67 80 75 64 80 80
75 70 70 70 69 66 66 64 67 72 72 75 76 73 66 68 68 73 78 78 71 74 89 68 73 75 66 70 74 81 81 86 82 90 91 96 88 78 67 61 68 68 76 75 62 70 71
76 71 71 70 70 68 67 68 67 66 71 74 73 67 66 71 70 82 79 77 78 81 90 74 79 85 83 82 93 89 82 81 76 93 95 90 78 72 69 68 67 70 73 77 70 65 58
76 71 71 71 71 71 69 69 68 68 71 69 69 67 66 78 83 87 84 73 82 76 92 74 84 79 78 79 87 80 83 84 88 95 94 84 74 75 76 73 64 72 62 62 65 68 79
76 71 70 72 72 71 71 70 68 68 67 69 68 68 69 76 90 89 77 85 83 70 94 76 84 64 71 82 78 84 84 82 95 94 92 97 86 84 78 69 58 68 62 61 67 72 68
77 71 71 72 72 71 70 71 69 69 70 72 72 71 74 84 87 90 85 85 74 86 95 94 82 82 77 84 83 82 86 84 79 89 84 91 84 82 82 74 60 64 64 68 73 71 82
77 72 71 72 72 72 71 70 68 67 69 72 76 78 77 87 93 88 85 84 90 88 68 92 90 76 82 88 85 86 90 93 93 100 100 89 91 88 85 75 66 63 70 90 91 93 84
76 73 71 73 72 71 70 70 71 68 70 73 80 78 84 85 90 86 79 84 89 78 85 71 76 79 92 88 90 91 96 93 88 91 96 96 99 95 88 80 82 71 70 85 89 91 80
76 74 72 73 71 70 71 71 71 71 73 74 79 96 97 93 81 80 84 93 84 88 77 80 88 96 86 86 84 94 98 91 79 73 81 95 98 84 87 92 80 84 81 62 79 78 81
76 73 73 73 69 70 72 71 72 72 71 76 96 95 97 93 83 85 93 89 90 72 81 83 85 83 90 81 90 96 97 79 82 72 70 81 95 83 86 83 86 79 69 84 90 95 86
76 73 73 72 69 70 71 72 72 73 70 79 95 97 93 92 84 90 99 97 85 73 76 76 82 74 88 92 90 91 86 83 80 78 68 73 79 96 80 88 90 91 93 88 76 78 84
76 73 73 70 71 70 71 73 74 73 69 82 96 99 88 93 99 95 99 89 75 75 79 71 66 64 83 79 93 94 90 83 77 73 76 76 84 93 86 82 72 74 79 81 88 88 89
75 73 72 71 72 70 71 74 74 72 68 96 98 94 92 91 95 96 88 85 81 76 75 68 67 62 63 74 81 85 84 70 82 74 78 74 89 97 96 77 78 81 71 77 88 88 96
75 74 72 73 72 70 72 74 75 68 75 94 97 98 98 98 91 90 94 85 79 75 72 64 65 64 60 62 73 82 82 73 77 74 71 66 85 80 85 75 86 97 71 63 72 95 74
75 73 74 73 72 71 72 74 74 66 79 85 97 94 93 99 95 95 93 84 79 83 74 69 68 67 70 71 73 82 84 78 68 75 79 79 91 89 76 70 88 88 86 72 82 78 86
76 74 74 73 72 73 74 74 73 64 70 90 92 95 95 96 93 95 84 91 82 76 71 76 72 72 70 69 68 75 79 82 82 79 81 71 92 84 87 78 82 89 85 90 84 75 74
75 75 74 74 75 76 75 75 73 67 62 92 98 95 92 87 87 92 83 79 78 79 76 70 71 82 76 72 76 73 72 69 69 75 84 80 88 91 89 84 75 74 71 80 85 86 82
78 76 74 74 76 75 75 75 73 70 71 89 97 95 94 88 80 84 67 64 70 73 82 74 80 79 82 85 69 63 67 73 70 81 74 85 83 85 90 78 89 58 61 68 73 67 76
78 75 75 74 76 77 75 76 77 70 73 95 98 85 74 84 74 65 70 83 82 76 85 83 94 88 88 70 75 76 78 71 73 78 83 72 82 94 93 93 69 60 76 72 71 66 63
79 75 75 75 77 77 77 75 76 76 74 96 98 94 78 63 80 82 77 83 91 80 79 84 80 85 84 81 77 91 87 82 85 83 70 64 62 74 90 89 83 49 58 68 66 80 62
80 76 75 75 78 78 79 75 76 79 75 92 97 91 88 93 92 87 87 84 81 83 80 86 70 88 86 86 96 92 89 74 84 84 90 98 95 96 90 92 79 59 57 65 82 65 66
81 79 74 76 77 78 76 77 74 75 75 87 95 92 89 96 93 87 83 88 86 85 83 79 89 94 98 90 86 90 88 80 84 75 79 88 95 97 94 96 89 60 74 82 60 71 77
82 81 76 76 78 77 76 77 76 73 73 81 97 89 88 92 91 91 90 89 87 83 89 88 97 98 98 99 98 95 91 88 83 82 84 82 77 84 80 79 59 61 71 68 68 78 78

GFSGBSN_sfc_rhum_066.txt.gz
RH
69 68 67 66 64 64 63 67 69 68 67 65 59 63 69 70 65 62 63 64 62 60 62 63 64 66 54 52 51 41 55 66 75 77 84 72 68 47 48 58 61 85 52 42 38 45 40
70 68 68 66 65 64 65 61 65 69 66 65 64 61 67 70 68 63 63 64 63 62 63 64 62 62 54 48 39 46 46 56 76 81 82 72 55 43 40 48 60 56 71 46 46 49 46
74 70 68 67 66 66 65 64 68 70 66 68 66 64 64 68 70 67 65 65 66 65 66 64 62 58 66 39 40 48 53 57 62 72 87 83 65 50 46 55 53 48 62 84 57 51 52
79 72 68 68 66 66 66 67 69 69 70 68 68 68 67 65 69 72 70 68 68 68 65 62 65 59 51 42 45 54 56 54 60 63 87 85 75 56 48 50 54 60 56 71 57 54 53
81 74 70 69 68 64 64 64 69 71 69 71 70 69 68 68 69 70 74 71 70 68 63 62 59 64 64 56 59 58 58 55 57 63 78 79 76 59 60 56 56 56 46 47 66 51 57
82 77 72 70 69 68 65 64 67 71 70 72 74 70 69 70 71 69 73 75 62 64 57 55 55 75 59 79 79 69 60 68 58 64 81 87 82 69 51 51 54 48 40 43 50 58 54
84 80 75 71 71 69 67 66 65 64 67 73 73 72 71 72 72 69 74 49 48 54 56 61 61 66 57 84 88 74 73 80 60 73 88 89 92 68 48 42 31 34 44 47 42 51 56
87 85 76 72 72 70 68 66 66 67 70 72 74 67 71 70 74 67 65 54 54 63 63 56 58 65 58 70 90 85 68 64 78 96 83 94 86 47 49 48 46 45 49 47 49 54 57
88 86 76 72 72 70 69 68 68 66 68 71 72 68 69 69 75 73 60 55 60 62 70 62 63 68 67 72 80 87 72 59 73 90 93 96 69 54 54 51 50 44 45 50 44 62 54
90 85 78 73 72 71 71 71 69 67 67 71 74 66 69 69 76 66 61 56 64 58 94 66 68 75 68 71 90 82 73 71 70 85 94 84 55 60 54 55 41 61 46 49 53 49 47
91 85 77 73 73 72 71 70 69 68 70 72 69 71 70 76 67 67 66 63 64 57 86 67 72 58 64 67 72 80 71 60 73 83 92 94 65 63 64 53 42 54 48 48 51 42 48
92 85 76 73 73 72 72 70 70 67 67 70 72 73 75 78 69 68 64 64 61 93 88 93 66 70 78 67 70 72 72 63 74 74 84 78 65 61 56 54 45 48 46 47 49 46 68
92 83 76 74 74 73 72 71 70 69 68 71 74 78 70 67 74 67 66 60 97 91 63 92 68 60 70 77 77 76 75 82 89 100 100 90 81 73 66 58 50 45 46 73 73 85 57
91 83 76 74 74 73 71 70 71 69 68 72 80 79 78 70 68 67 70 74 90 74 72 68 64 64 82 86 83 90 85 82 74 87 97 99 98 76 80 56 54 49 42 56 66 60 45
91 84 77 74 74 73 70 70 70 69 72 72 79 75 76 74 72 74 72 97 90 86 61 64 69 67 70 75 89 93 96 81 64 58 73 82 93 78 79 69 59 59 68 43 56 52 55
90 84 78 75 74 72 71 70 70 70 71 75 74 72 79 77 76 79 85 85 84 58 66 61 68 62 58 66 84 95 96 72 70 57 50 62 96 83 81 66 63 60 44 67 77 83 59
90 84 78 75 74 73 72 71 70 70 69 81 73 78 79 74 79 86 99 96 69 57 61 61 59 61 62 60 71 75 95 81 66 63 50 50 61 96 72 78 62 64 66 60 51 56 58
90 87 81 75 74 74 73 71 71 70 74 78 79 97 82 74 95 90 85 74 70 61 62 55 51 52 61 63 65 68 81 73 62 53 56 55 60 88 88 70 66 50 51 50 61 72 59
92 83 83 75 75 75 74 74 73 70 69 71 79 81 87 84 88 85 74 70 65 60 57 54 53 50 49 62 66 62 66 60 67 62 57 53 67 90 92 71 60 66 59 53 55 67 86
90 86 82 75 76 75 75 74 73 67 72 67 78 96 97 95 80 80 78 65 62 61 55 48 48 47 49 53 53 65 62 67 68 61 67 56 60 66 62 58 52 71 58 52 61 94 63
92 87 80 76 75 75 75 76 72 65 82 62 69 76 71 93 80 75 75 70 62 64 55 49 51 49 51 60 58 62 62 65 63 74 65 58 88 84 55 60 69 72 61 56 75 67 78
92 87 80 75 75 75 76 76 70 72 74 57 61 70 69 73 76 75 72 67 66 65 59 59 52 51 48 51 50 57 58 58 63 63 74 64 88 71 78 63 64 73 61 60 56 54 58
92 86 80 75 75 77 77 77 68 72 58 56 73 74 63 74 69 70 61 66 70 68 65 60 55 55 56 57 55 46 46 46 48 60 68 78 78 83 81 65 61 64 51 55 58 56 55
91 87 81 77 77 77 77 74 70 67 55 52 66 72 58 57 60 64 54 51 66 66 70 65 66 59 72 64 48 45 46 51 50 57 50 66 70 74 83 73 78 46 38 45 47 44 46
91 84 81 77 78 77 77 74 69 73 72 66 74 48 47 55 50 50 53 62 66 65 71 82 81 69 63 57 54 57 59 58 59 57 55 51 59 78 79 68 47 43 57 52 50 51 45
90 85 78 78 77 77 78 78 71 73 76 72 78 64 40 44 49 52 53 60 58 63 69 68 64 59 67 62 64 73 64 56 65 69 58 51 48 55 67 70 60 45 46 49 48 55 46
90 85 79 76 78 78 77 78 77 73 75 76 82 74 54 58 67 60 48 48 57 53 60 69 57 82 79 68 92 70 61 54 60 66 79 83 76 76 64 63 49 39 38 47 65 63 49
89 87 82 78 78 78 76 78 76 74 74 70 84 79 58 67 74 70 66 62 62 55 59 60 80 88 97 85 69 65 57 52 55 51 60 62 72 72 70 77 72 43 55 62 52 47 52
89 87 83 81 79 77 77 75 75 74 72 72 80 75 64 69 73 70 68 69 68 66 62 64 88 96 98 99 79 65 59 55 54 56 57 57 49 51 55 48 43 44 46 45 52 55 53

GFSGBSN_sfc_rhum_069.txt.gz
RH
77 72 70 68 67 67 65 64 64 68 65 64 65 66 64 67 71 67 63 64 64 62 62 64 64 66 51 42 34 36 46 62 64 78 85 81 68 56 46 53 84 63 44 40 60 38 32
78 75 72 70 68 67 66 65 66 68 68 67 66 67 68 65 68 71 66 65 64 64 64 65 64 68 50 47 29 35 38 54 75 86 78 84 66 39 33 42 65 62 67 52 72 43 34
83 79 74 71 69 68 67 66 68 70 68 69 68 68 70 70 66 70 72 66 67 67 66 65 63 49 56 42 30 40 43 53 68 80 85 80 82 59 31 42 45 56 67 64 59 74 37
89 81 78 72 70 69 67 67 66 70 69 68 69 69 70 71 67 69 71 73 69 69 68 63 65 47 54 35 33 40 42 50 66 82 81 87 83 66 37 37 51 76 71 89 71 46 42
92 86 81 76 73 70 68 67 68 69 71 70 71 70 71 71 70 70 69 72 73 70 66 61 60 54 52 43 49 52 47 49 66 82 82 74 80 52 49 53 60 65 87 85 69 67 51
94 88 85 78 77 71 70 68 68 66 65 67 69 72 70 72 72 72 69 74 65 66 56 44 44 73 54 71 77 66 50 53 65 90 86 87 79 64 49 49 56 46 53 51 49 68 56
93 89 87 83 78 73 71 69 69 68 67 69 71 72 70 72 70 74 68 50 50 53 49 53 51 54 53 84 82 64 53 60 70 81 95 90 96 77 41 34 24 28 32 30 40 42 50
94 92 88 86 77 74 72 70 69 69 68 69 70 71 71 70 71 74 65 52 52 59 57 46 49 53 61 84 85 71 61 57 66 95 88 92 86 44 32 32 34 26 32 30 34 40 42
94 94 88 87 80 75 72 71 70 70 68 65 71 71 71 72 73 72 58 44 50 49 63 50 54 59 79 75 65 71 64 58 78 95 92 95 68 43 40 41 38 31 34 35 40 43 43
94 96 90 87 82 76 73 73 72 71 69 71 70 68 72 72 82 55 52 46 51 51 90 61 61 61 59 61 73 77 70 68 77 80 71 88 55 51 44 41 32 40 29 34 42 49 48
93 97 92 88 83 76 74 73 71 71 69 68 69 67 75 72 64 55 58 48 51 57 89 62 61 49 54 74 77 65 59 48 59 72 85 90 62 52 48 40 33 44 42 42 46 44 33
94 97 94 89 82 76 75 73 72 72 70 70 72 72 77 69 62 56 51 51 60 94 90 85 57 60 59 56 64 63 59 56 53 62 69 71 65 55 46 43 40 41 42 43 41 37 62
94 96 95 87 81 77 75 74 72 71 70 69 76 77 73 58 66 54 54 58 96 98 61 78 58 57 60 63 69 68 68 65 63 97 100 79 78 61 56 53 45 38 41 67 66 76 56
94 95 96 87 80 77 76 74 72 70 68 70 80 73 74 59 53 56 64 70 97 70 67 55 52 65 92 66 68 72 63 70 68 91 97 100 99 66 66 44 47 47 35 50 55 50 40
94 96 96 87 80 77 76 74 72 71 70 72 81 66 66 63 59 64 66 97 91 68 49 53 56 89 73 72 69 86 73 57 56 75 78 74 92 74 75 59 54 47 62 40 48 38 47
95 96 95 87 81 77 76 74 73 71 71 77 62 64 67 64 67 75 84 85 79 52 52 46 52 56 71 60 69 84 69 55 53 59 44 50 85 74 82 62 53 52 35 58 67 75 43
92 96 95 88 83 78 76 74 73 72 70 78 63 70 71 68 73 88 97 90 62 52 53 56 46 47 46 58 65 66 77 71 50 55 44 46 54 75 66 65 56 58 58 49 45 49 56
91 96 95 90 86 81 76 75 74 74 77 82 64 90 75 72 96 81 77 64 66 54 50 51 47 45 44 47 59 56 81 70 48 47 51 45 66 90 65 56 54 57 47 44 57 62 45
93 96 95 93 88 82 77 75 75 75 78 62 63 80 82 83 86 77 64 61 58 55 48 47 49 46 44 48 59 54 71 58 57 51 48 44 61 93 97 64 53 61 45 46 43 54 84
93 95 95 94 88 84 76 76 76 76 72 68 62 94 94 92 66 64 66 55 59 55 48 43 44 43 45 50 45 57 63 65 60 52 65 53 49 61 61 54 48 63 49 44 54 98 58
92 94 95 93 88 83 76 77 77 75 70 67 58 61 56 92 70 63 63 54 53 59 49 43 45 47 46 51 50 54 57 68 62 70 55 51 80 76 48 56 57 62 53 49 67 57 70
87 95 95 92 89 80 76 77 77 70 78 63 52 54 58 51 58 60 66 56 52 55 48 50 46 42 43 48 47 53 52 56 58 64 60 56 86 69 79 57 57 66 54 49 48 45 48
90 94 94 92 87 79 77 78 74 81 72 50 52 55 47 62 58 59 49 47 50 53 57 48 45 43 47 52 47 41 39 39 42 54 60 64 71 81 84 56 55 62 47 46 49 45 45
94 94 94 89 86 78 78 78 72 84 67 38 44 46 43 45 48 52 52 50 56 58 57 58 52 50 65 51 40 37 39 42 43 49 48 63 69 74 86 66 81 46 34 36 38 37 34
86 92 94 87 84 82 78 74 71 78 66 45 56 48 38 38 40 52 49 49 54 57 62 65 69 58 56 50 50 56 56 54 51 48 49 45 58 75 81 66 41 37 50 47 46 46 42
88 94 92 88 86 84 78 72 72 69 68 56 55 52 34 39 45 41 50 50 52 53 62 64 55 58 58 54 59 64 64 50 61 62 50 47 46 58 59 67 54 42 42 39 42 55 43
93 93 90 88 86 84 75 73 75 75 70 60 67 67 41 48 54 44 44 50 47 48 50 61 60 74 67 65 67 56 57 43 53 56 68 70 64 71 69 64 43 32 33 40 57 66 44
92 93 92 87 86 82 78 73 74 74 69 61 74 67 50 53 66 55 53 47 48 44 50 55 70 74 91 82 70 57 47 44 45 43 55 62 66 68 62 80 70 41 48 55 51 44 48
93 93 92 89 86 81 79 78 76 72 70 62 68 54 48 56 68 53 54 56 61 60 47 60 80 95 95 99 72 55 48 45 41 50 46 50 47 54 46 60 41 41 42 47 48 49 48

GFSGBSN_sfc_rhum_072.txt.gz
RH
85 86 80 74 71 69 68 67 67 67 67 67 68 66 70 68 64 66 71 65 63 62 62 63 64 66 63 48 41 36 43 64 63 68 66 76 77 76 81 59 75 81 70 60 64 44 39
87 91 89 77 73 70 69 68 68 69 70 68 67 68 70 71 70 65 70 71 65 63 64 64 64 66 59 61 27 35 38 47 65 73 72 82 73 62 62 47 73 76 85 64 76 61 56
89 90 92 85 77 73 71 69 69 69 69 69 68 69 70 71 71 66 67 71 71 66 66 66 64 55 58 52 28 38 37 53 65 72 82 83 83 93 58 48 63 71 92 92 81 73 78
88 90 94 89 79 75 75 71 70 69 69 70 70 71 70 72 72 69 68 70 71 72 68 67 64 56 62 40 38 40 39 48 67 73 83 75 80 90 79 42 63 85 91 92 91 76 63
88 90 92 92 82 78 78 72 70 68 68 66 67 68 72 70 70 69 65 71 70 72 67 65 66 65 59 42 53 53 47 50 69 77 75 64 84 81 59 68 76 90 97 86 72 75 80
90 92 94 90 85 81 79 72 71 69 69 67 71 72 71 69 71 66 73 71 69 67 60 48 47 70 59 73 86 69 54 52 73 82 81 78 94 90 72 64 84 97 77 81 69 71 83
90 92 94 92 88 85 80 74 72 69 70 70 70 71 71 70 66 66 75 64 65 65 53 54 50 53 67 91 81 69 53 59 80 85 96 89 97 94 68 52 39 80 70 71 63 51 67
90 91 92 94 92 88 81 76 72 71 71 70 67 71 71 65 67 73 72 65 60 62 66 43 46 60 63 70 75 66 55 65 81 97 90 96 90 58 43 42 38 33 50 62 65 54 52
89 90 91 91 94 89 83 77 73 72 71 70 71 68 71 70 72 76 68 48 52 49 73 51 53 59 72 67 62 70 66 68 81 88 95 93 81 49 53 43 41 43 41 68 71 74 57
86 90 91 92 94 92 85 79 74 73 72 71 71 71 66 73 84 61 56 46 54 54 99 63 59 59 63 58 77 65 78 68 84 91 80 87 66 55 70 54 38 45 32 38 48 62 72
86 86 91 94 95 93 90 80 75 74 73 71 69 70 68 74 79 60 60 51 55 68 96 60 58 46 52 63 69 71 61 62 75 78 76 91 74 69 52 41 38 52 45 44 53 58 49
86 88 91 93 95 94 90 82 76 74 73 72 71 74 76 74 73 58 54 56 70 97 93 85 54 60 59 56 60 64 59 57 55 65 83 81 65 80 87 47 43 47 49 49 51 54 86
84 84 92 90 96 95 91 81 76 75 73 69 73 75 77 57 75 60 59 72 98 95 62 76 58 52 54 60 63 65 62 69 77 94 100 84 80 70 64 59 54 48 55 90 89 92 84
88 84 91 93 96 95 92 80 77 74 72 72 76 74 71 58 60 62 74 87 92 70 66 47 51 62 70 56 59 65 60 72 72 82 93 99 97 75 66 62 66 59 54 81 72 83 72
87 85 88 92 96 94 92 83 77 75 74 75 79 78 75 70 62 72 82 92 97 76 46 51 55 69 67 65 68 75 79 60 63 79 82 97 93 70 70 66 64 65 82 55 70 51 81
81 83 87 90 96 94 92 87 76 75 76 80 80 76 80 65 69 78 95 82 84 51 44 46 66 64 63 63 64 81 68 58 59 62 59 58 94 74 74 65 64 70 46 73 88 84 61
83 89 84 87 95 94 92 88 80 76 76 78 79 82 79 67 78 88 93 84 58 48 51 54 51 53 52 60 58 72 67 68 51 59 56 54 67 86 76 81 68 69 68 63 61 68 88
73 78 87 87 92 95 92 90 82 77 75 82 79 97 79 78 96 88 82 67 66 54 53 53 52 49 46 53 60 56 72 69 52 53 60 53 72 80 77 59 60 66 59 53 81 80 74
71 77 87 90 93 95 92 91 84 78 78 77 75 92 85 84 88 80 66 60 57 56 54 50 50 49 48 50 62 62 66 61 57 55 57 55 82 96 90 71 62 74 61 56 53 74 87
74 80 86 89 96 94 91 91 88 78 78 84 74 97 97 94 75 72 65 54 63 62 50 45 46 48 51 53 51 63 69 69 65 59 68 62 64 80 92 75 66 77 59 54 70 99 81
75 81 85 87 95 93 90 89 87 81 80 87 76 83 68 93 78 66 62 53 52 63 56 47 51 51 51 60 58 58 61 71 70 72 67 64 86 82 62 61 68 73 63 57 68 70 85
71 83 84 87 95 92 91 89 87 82 78 87 72 72 71 62 60 67 63 63 49 52 52 54 54 48 50 67 57 62 63 64 76 72 70 65 96 84 89 66 67 81 65 62 58 55 58
73 83 83 93 94 92 90 89 87 82 77 79 68 65 66 68 64 67 62 54 50 57 61 47 46 49 54 64 53 49 48 47 51 72 76 74 84 92 92 72 75 80 63 60 62 56 55
76 82 86 92 94 92 90 88 84 80 78 61 59 62 69 69 64 63 52 55 55 59 62 56 55 58 72 58 49 50 51 50 53 62 51 74 80 93 97 85 95 61 40 44 49 47 49
76 82 84 82 88 92 90 87 80 82 81 65 68 68 59 58 56 57 54 57 59 67 66 64 69 63 64 63 62 67 72 68 60 59 64 60 88 99 98 94 65 50 56 56 57 55 50
76 78 84 86 86 92 91 87 76 83 75 66 72 69 60 54 62 50 56 60 69 72 75 73 63 68 70 68 70 73 86 64 75 72 60 54 57 77 81 87 76 63 52 47 53 80 56
79 79 87 85 92 90 91 87 74 82 78 71 80 77 71 66 67 61 62 67 58 61 70 73 77 85 79 79 89 81 81 53 75 70 82 80 78 88 87 84 72 49 46 52 79 88 60
80 84 92 92 90 89 89 82 75 79 69 73 84 76 75 71 76 62 60 62 60 58 74 68 85 84 90 87 79 77 72 61 61 63 69 72 87 87 84 94 91 53 55 70 70 64 62
80 84 89 93 91 89 87 81 78 72 69 69 82 58 58 74 76 59 59 57 64 65 69 78 86 88 96 96 94 86 70 63 59 70 63 73 65 83 66 77 58 54 66 59 56 59 59

GFSGBSN_sfc_rhum_075.txt.gz
RH
87 87 88 87 83 76 73 71 70 70 68 67 68 67 68 70 69 69 64 68 70 62 59 63 64 65 75 77 55 39 44 59 64 68 76 78 84 81 84 79 81 90 76 74 73 81 56
88 88 88 90 90 81 76 73 71 70 69 68 69 68 70 70 69 69 66 64 69 68 63 64 65 66 85 89 39 40 42 53 62 74 74 81 92 86 84 74 77 81 80 79 86 86 74
87 88 88 90 94 87 78 75 72 71 70 68 69 70 70 70 72 68 67 64 69 69 70 65 66 61 77 76 38 45 43 67 64 77 79 82 82 92 88 72 68 76 81 81 88 79 83
88 88 88 88 90 91 81 78 76 72 70 68 66 67 69 71 70 67 64 65 68 70 70 69 65 74 75 48 52 51 50 69 70 77 81 80 69 90 88 76 76 88 84 94 90 86 83
88 89 88 90 90 91 84 80 78 73 71 69 68 68 72 71 66 66 65 64 71 70 71 65 78 77 74 47 60 66 63 60 75 85 82 65 78 85 78 90 91 84 99 96 88 90 89
83 89 88 89 90 91 87 86 81 75 72 71 71 71 72 71 69 67 68 70 73 73 66 56 60 79 66 80 82 72 63 63 72 80 89 92 91 88 90 91 94 95 94 87 94 87 83
75 83 88 88 91 93 90 89 84 77 73 71 71 70 71 71 67 65 78 86 79 82 69 68 61 60 81 83 78 72 67 65 73 83 91 88 96 95 90 76 61 74 74 76 74 82 80
76 77 81 87 85 91 93 90 89 81 75 72 72 71 69 71 66 69 86 93 74 70 81 56 55 71 72 74 74 72 63 76 84 97 91 92 98 77 66 65 65 72 90 87 76 68 72
71 76 78 81 86 90 96 92 91 84 78 73 73 72 70 66 72 84 88 76 62 62 90 60 61 65 73 82 73 76 68 74 89 91 88 85 79 65 72 68 65 70 73 85 80 76 75
69 73 78 81 83 88 92 94 90 86 81 76 73 69 71 67 85 83 76 62 61 65 94 72 74 69 69 72 80 69 73 79 86 97 86 90 71 65 73 76 51 52 53 61 77 83 84
69 70 78 82 84 87 92 94 91 88 85 78 73 69 70 68 92 79 70 59 62 80 97 68 67 55 64 69 76 71 66 74 82 86 89 97 82 76 76 67 50 58 50 65 71 77 64
68 71 80 83 85 87 90 94 92 89 87 78 74 71 74 82 86 71 61 65 81 93 90 80 65 70 67 67 77 66 74 67 65 76 82 90 80 80 75 57 49 53 48 58 65 61 86
73 72 74 81 86 85 87 93 92 90 86 76 73 76 81 64 86 66 67 88 97 92 67 80 72 59 60 64 67 68 76 80 87 94 99 89 81 76 70 66 55 55 63 90 88 91 82
72 71 72 81 87 88 86 91 91 89 84 78 75 77 78 60 71 71 88 93 90 77 79 52 52 66 76 60 61 65 76 84 78 85 97 89 96 88 78 78 75 67 57 82 84 91 78
66 73 72 79 84 85 86 92 92 88 87 78 80 89 88 80 71 83 93 97 81 82 49 53 61 63 84 75 68 74 80 76 73 87 89 85 95 71 78 78 70 66 84 58 72 62 86
65 67 69 78 76 83 85 93 91 87 86 80 97 94 85 76 79 91 96 83 92 60 48 52 73 64 73 81 81 76 67 64 70 73 73 81 92 75 76 72 70 72 57 71 89 78 63
63 65 70 70 74 83 88 92 90 86 88 84 93 96 89 81 88 94 92 84 59 55 62 60 76 72 67 72 68 66 64 74 66 71 57 57 78 91 75 79 74 72 73 68 68 80 89
66 65 70 74 76 82 89 90 91 83 84 93 93 100 87 86 96 96 82 72 65 62 63 64 62 61 61 64 74 64 78 76 56 60 68 63 78 94 80 68 66 74 68 59 84 79 82
62 64 70 72 76 89 88 89 90 84 85 98 96 98 88 91 99 86 67 69 68 67 67 63 61 57 54 63 75 70 73 69 60 62 69 65 88 95 93 70 70 76 69 66 61 79 87
62 65 70 71 74 88 92 93 92 82 82 96 88 100 99 98 95 80 78 72 80 67 57 52 51 55 57 58 55 78 69 71 66 66 68 64 78 80 86 80 76 86 69 66 77 94 78
65 68 70 72 72 86 88 92 92 88 83 98 88 92 84 99 87 82 74 63 70 78 66 53 60 61 63 71 71 68 64 77 70 71 72 74 91 83 68 67 73 76 69 69 83 73 81
68 69 70 73 78 86 89 95 92 89 82 98 89 87 81 86 77 79 82 71 50 66 64 66 64 56 56 72 67 77 66 64 82 81 83 77 97 85 83 70 72 81 71 70 67 63 71
69 70 69 73 82 86 94 93 93 88 89 99 80 72 70 80 90 89 82 71 57 68 69 55 54 58 72 64 57 60 54 61 67 81 85 82 87 92 94 75 74 79 68 69 70 63 60
69 69 68 74 83 87 94 92 92 88 83 74 72 75 76 84 81 76 65 65 65 69 73 74 68 72 78 69 60 54 55 62 65 78 62 82 82 95 98 86 95 64 48 54 60 58 59
68 66 71 75 82 85 87 94 93 86 84 77 77 69 66 80 75 71 68 73 75 79 78 83 77 76 75 72 71 76 78 73 70 65 66 70 92 99 96 97 72 58 55 54 53 62 57
64 66 68 74 79 83 87 91 92 87 82 76 79 76 64 68 72 64 69 73 89 91 86 83 76 79 78 77 78 84 90 80 86 81 64 59 66 92 93 91 84 61 58 52 55 90 68
66 67 69 78 86 91 89 91 89 87 80 76 85 80 72 76 78 71 74 77 70 84 93 87 87 87 84 92 92 88 89 66 90 82 89 86 80 96 94 93 77 57 57 54 68 69 70
66 67 76 84 94 92 92 91 85 84 83 73 86 80 74 88 86 76 76 77 69 80 91 79 83 86 92 87 87 85 86 69 72 73 83 87 90 93 91 97 93 55 58 68 72 70 65
66 67 78 81 86 93 92 91 85 85 80 74 78 62 63 83 83 70 68 66 72 79 85 92 88 94 97 97 95 93 79 74 68 88 74 81 70 81 77 79 64 72 67 64 62 65 63

GFSGBSN_sfc_rhum_078.txt.gz
RH
89 88 88 88 88 89 90 87 80 74 72 70 67 69 68 71 69 68 67 66 63 68 67 62 64 66 78 88 75 43 42 54 63 69 68 81 85 86 84 87 83 82 80 67 77 78 82
81 87 90 88 88 88 92 90 87 77 74 72 68 67 70 71 70 71 68 66 62 65 69 68 64 68 88 94 46 43 45 57 67 76 73 83 94 90 83 85 87 78 86 82 84 79 85
74 78 85 89 88 89 86 94 90 80 76 72 70 68 68 69 71 69 66 64 63 65 69 69 67 66 86 83 46 55 52 69 70 77 78 83 79 89 90 84 82 76 88 85 86 90 84
69 71 76 82 88 87 90 94 92 86 80 73 71 68 66 72 72 67 63 64 64 64 68 69 68 78 94 51 56 55 59 72 76 77 83 82 72 89 95 87 86 80 84 92 88 89 82
65 67 70 76 78 84 86 94 92 89 87 75 72 70 69 72 72 69 68 66 67 68 69 68 80 88 81 51 68 70 62 72 81 84 80 65 82 85 82 90 96 89 99 96 86 89 86
62 63 67 73 78 78 83 89 94 90 90 79 73 72 69 71 71 65 67 70 73 74 69 63 67 89 68 78 79 74 66 67 73 80 86 88 94 89 92 98 89 97 94 90 94 84 94
67 64 66 70 74 79 79 84 89 94 91 86 75 73 70 70 72 66 79 90 76 83 76 76 68 69 74 81 82 72 71 72 73 88 91 86 94 93 80 88 76 68 78 78 81 78 85
59 60 66 70 72 76 80 84 84 92 92 90 80 75 71 68 68 70 87 93 75 68 74 62 62 74 76 78 78 72 66 81 85 91 89 91 92 76 74 75 75 64 76 90 84 80 90
62 61 69 71 70 74 79 83 86 87 93 89 85 75 73 69 69 85 90 81 65 65 90 67 64 68 76 86 73 70 81 86 88 83 89 88 87 78 83 88 73 72 81 90 81 84 83
63 64 65 68 71 72 82 84 86 89 94 90 88 75 71 68 84 86 84 66 64 68 93 76 76 71 77 79 79 69 81 90 87 88 87 92 85 87 88 88 73 78 66 69 85 95 96
64 64 66 67 68 71 76 83 83 86 94 91 88 75 72 69 89 83 70 64 66 72 89 61 71 60 69 77 71 66 78 89 86 85 91 97 93 85 83 86 62 63 60 69 75 86 81
63 63 67 68 69 71 74 78 81 88 93 92 88 74 74 83 89 80 65 71 80 90 88 82 68 75 80 77 82 67 77 79 71 83 84 90 76 77 82 72 57 56 73 77 74 70 90
65 65 61 66 68 72 74 78 85 86 93 91 84 76 81 70 87 73 73 84 93 92 64 85 81 72 72 75 75 77 76 82 85 98 100 87 88 81 75 64 58 66 78 98 98 96 81
57 64 62 64 67 72 72 77 78 86 93 90 82 78 80 67 74 75 88 91 95 73 83 56 62 69 81 74 70 75 82 82 79 85 96 96 96 89 80 82 78 73 59 79 77 88 71
58 60 62 63 66 70 74 74 82 87 93 89 84 91 86 79 76 84 93 98 85 80 64 59 66 82 85 79 78 82 84 78 80 88 89 91 93 78 83 82 73 68 78 60 69 71 77
58 59 61 61 64 66 70 68 80 93 90 87 97 96 92 79 80 92 97 87 89 70 55 54 79 67 84 88 82 84 68 76 70 79 79 82 92 84 79 72 67 66 58 71 86 76 70
55 58 59 58 65 66 70 69 79 93 87 88 97 97 95 83 86 95 94 89 74 58 62 64 71 69 76 85 76 75 76 77 70 75 64 71 81 86 76 83 83 71 73 71 70 81 82
56 56 58 64 69 71 71 70 80 87 90 97 99 99 93 83 98 94 85 73 66 66 67 64 63 59 69 72 75 71 69 78 65 66 73 75 86 98 88 75 74 82 77 69 81 78 86
55 56 60 67 69 72 74 72 82 86 87 99 99 99 94 89 97 97 75 65 69 72 70 68 64 60 54 68 76 75 72 71 68 68 70 70 86 97 87 74 70 84 76 69 70 80 86
62 61 62 68 69 72 75 74 86 89 86 98 100 100 100 99 94 90 80 67 79 68 66 60 58 55 58 59 66 81 73 72 71 68 70 67 80 78 88 78 79 87 76 75 77 92 85
66 68 66 66 70 70 73 77 86 92 88 98 99 96 88 97 96 93 82 72 80 79 64 55 63 62 58 70 74 82 67 78 70 69 72 75 89 85 78 73 78 81 76 76 84 73 79
66 67 67 65 68 70 72 81 85 94 92 99 98 94 84 88 79 92 86 83 80 75 68 69 66 60 64 74 71 84 73 72 77 80 84 81 98 84 82 71 72 78 71 77 76 74 75
66 69 68 67 66 75 79 83 91 92 94 100 97 80 73 83 90 89 91 78 60 69 72 59 59 72 71 65 63 68 65 65 76 83 87 83 89 90 92 82 72 79 69 70 77 71 66
68 68 68 69 68 77 83 85 93 91 93 98 95 77 78 94 83 83 74 70 60 69 77 80 64 73 80 69 56 56 62 71 75 85 68 87 85 94 95 86 96 66 54 59 66 64 64
65 69 69 68 68 76 81 84 87 90 92 96 80 75 72 94 82 81 74 78 78 81 86 85 79 82 74 65 74 88 87 70 70 73 75 79 94 98 94 97 75 74 54 52 57 81 74
67 69 69 67 71 79 82 88 84 91 89 96 78 85 69 76 81 73 82 84 92 93 91 86 83 82 77 79 79 91 97 84 90 85 64 84 88 89 99 97 91 59 63 57 60 87 77
68 69 68 68 77 82 89 89 88 88 88 85 79 82 70 78 92 86 85 82 87 90 94 89 91 86 82 92 91 89 91 75 93 90 84 81 91 98 95 95 81 60 61 55 64 64 79
69 71 69 67 76 84 90 91 92 88 86 69 77 80 73 90 88 79 77 77 75 90 91 86 83 85 93 86 87 90 87 78 84 79 86 89 93 97 93 97 95 58 65 56 62 75 67
67 70 69 68 76 81 86 92 91 88 77 73 79 63 64 84 88 76 80 76 76 80 89 93 86 94 93 96 93 93 81 80 82 90 80 81 74 82 80 82 69 76 69 71 70 70 71

GFSGBSN_sfc_rhum_081.txt.gz
RH
73 73 75 79 80 82 87 89 89 94 90 83 74 70 69 70 74 70 69 68 65 64 66 71 65 64 79 91 85 46 43 50 66 77 77 78 83 82 91 86 90 90 74 68 82 81 81
67 69 71 73 76 78 79 83 89 94 91 89 80 72 70 72 71 70 69 66 66 66 68 71 69 66 90 92 51 47 49 57 70 78 78 80 78 81 81 89 85 76 78 68 83 85 85
64 63 65 68 71 73 75 79 84 88 93 91 82 76 72 70 71 72 68 62 66 68 70 69 68 71 90 82 52 60 61 74 72 80 81 75 82 93 82 91 84 75 81 74 81 87 84
62 65 63 62 66 69 74 79 83 88 95 91 89 85 75 70 73 73 70 68 63 64 67 67 69 67 92 57 60 60 62 71 78 81 84 78 88 92 94 91 95 80 86 95 92 82 85
63 60 61 65 64 66 69 74 79 78 82 87 92 85 82 75 74 71 68 68 66 65 66 68 79 87 81 56 65 69 67 71 74 80 84 68 80 87 93 93 97 82 98 98 94 80 83
60 59 65 69 68 66 66 70 76 80 81 84 94 90 85 79 73 72 68 72 73 72 74 68 70 92 80 78 81 70 67 67 73 78 88 92 92 90 89 95 93 95 98 99 93 94 86
58 61 64 68 67 68 66 69 73 77 83 86 93 91 89 77 72 72 78 85 76 86 78 76 72 74 69 80 81 78 71 76 72 83 91 84 94 98 88 92 89 81 73 98 91 83 86
58 58 68 69 66 70 71 68 71 78 83 87 93 92 87 79 72 70 87 88 72 66 68 64 66 69 76 76 71 75 72 78 86 93 86 89 91 78 76 80 92 78 85 95 91 82 83
60 60 63 65 68 71 68 70 70 73 81 86 93 92 89 83 70 84 88 82 68 65 86 72 66 70 79 80 72 77 80 84 90 84 88 87 94 72 76 83 92 72 75 86 82 85 84
62 59 60 60 58 64 64 66 71 71 79 83 89 92 89 81 84 85 88 73 68 65 92 73 78 73 81 83 79 72 76 86 86 80 81 94 84 83 87 86 87 91 69 70 82 90 99
58 63 61 63 62 62 64 67 69 71 76 80 84 91 85 81 87 83 68 70 73 61 91 58 76 64 74 81 71 82 83 91 88 90 89 96 89 91 98 91 71 78 69 78 84 96 97
54 56 57 58 60 64 68 68 71 73 76 78 89 91 88 87 89 78 68 72 74 88 88 85 74 80 84 81 82 72 86 88 75 83 87 89 82 83 84 76 70 63 78 88 86 92 98
55 53 56 56 60 63 67 69 74 74 76 80 88 90 89 77 85 74 74 79 91 95 67 84 84 77 80 79 76 81 78 88 90 98 99 88 84 78 76 77 71 75 82 99 98 96 95
54 53 55 58 60 60 65 68 69 74 77 79 80 91 86 72 74 75 84 85 95 70 87 62 70 74 80 80 72 76 84 83 84 85 94 98 95 88 77 88 91 83 78 89 90 88 72
54 54 55 55 57 59 62 65 69 77 82 80 92 98 96 89 74 82 82 96 81 81 67 71 71 84 87 81 84 82 85 78 78 87 84 94 98 78 80 77 73 92 88 58 68 66 81
53 56 56 54 55 57 61 64 65 79 86 91 95 97 96 83 78 83 94 86 86 69 61 65 83 74 85 88 86 86 80 82 74 82 82 83 94 87 81 74 71 63 53 73 84 80 68
55 57 58 57 59 62 60 63 65 75 81 92 98 99 94 82 83 95 97 91 74 66 60 65 78 80 80 87 80 82 81 79 74 80 71 79 82 84 77 87 90 71 71 72 72 78 77
54 57 64 68 66 65 64 64 67 71 70 94 99 100 96 90 99 98 97 77 68 70 70 66 68 70 80 80 80 79 82 78 70 70 81 80 87 99 91 79 79 84 77 69 78 76 87
55 58 66 67 67 68 68 68 67 72 71 98 99 98 97 99 99 98 80 75 73 75 72 68 63 65 62 71 74 79 78 76 71 71 78 72 88 94 82 72 72 84 81 69 73 80 86
57 60 66 69 69 71 70 70 72 72 77 98 98 100 100 99 93 87 85 80 82 74 70 66 60 59 63 71 74 73 86 81 75 72 70 66 83 76 89 73 81 88 84 77 76 91 82
59 65 68 68 65 68 73 72 74 75 82 98 98 99 93 100 98 96 82 75 63 84 66 60 67 60 73 89 80 80 77 76 75 72 80 72 88 87 80 77 82 84 82 85 85 79 79
63 66 68 65 69 68 73 73 74 82 87 99 98 98 96 94 79 95 91 85 72 79 68 71 70 61 59 78 74 84 74 72 79 78 76 83 97 84 86 80 80 80 78 81 84 83 74
67 67 66 68 69 68 73 73 83 79 91 98 100 98 95 90 85 89 90 79 69 71 73 62 62 74 68 68 68 71 71 69 73 79 82 83 90 89 91 83 73 79 72 71 80 78 76
68 67 68 67 68 71 72 79 80 85 90 98 99 97 96 93 87 82 80 80 71 72 80 83 68 70 74 62 62 64 70 69 75 83 78 85 86 92 96 84 93 64 58 63 69 71 71
68 69 67 69 70 72 79 78 83 90 90 98 97 92 85 97 88 83 81 80 78 88 89 85 85 83 73 76 93 88 89 79 68 76 79 79 91 97 96 97 76 73 59 55 62 76 84
68 70 69 71 72 73 78 82 88 84 92 97 95 85 78 85 92 82 86 83 87 92 92 92 86 82 73 78 84 95 97 88 92 77 72 86 82 88 95 96 90 62 62 61 61 74 85
72 70 70 70 72 71 71 80 90 91 87 93 88 83 76 89 94 92 89 81 82 86 96 93 91 83 79 91 89 86 91 81 95 93 91 88 92 96 95 97 83 62 62 54 70 59 83
72 70 71 71 71 73 75 82 90 91 88 88 86 76 75 90 93 86 82 79 87 89 91 88 82 80 90 84 84 91 88 87 87 84 87 85 76 83 89 96 87 65 72 60 57 83 77
71 71 73 72 73 76 83 82 91 91 82 73 78 67 67 88 90 82 83 77 80 80 92 92 83 90 90 95 92 93 84 85 86 90 86 86 78 87 84 80 69 80 76 79 72 72 74

GFSGBSN_sfc_rhum_084.txt.gz
RH
66 69 70 67 69 75 76 76 78 81 82 86 88 88 86 77 75 73 70 70 68 67 66 65 72 66 78 93 80 54 50 53 68 80 82 84 85 84 88 87 77 88 81 68 64 59 69
63 62 63 65 68 68 72 73 73 77 80 88 90 88 87 84 84 76 71 71 67 65 68 68 71 71 85 95 54 54 61 54 69 78 80 82 78 74 88 85 78 85 75 76 66 67 81
60 63 64 63 61 68 70 65 73 75 74 80 82 88 87 87 84 82 74 71 68 65 68 67 68 74 87 83 55 58 62 76 76 80 86 74 80 88 80 85 70 76 88 75 77 75 84
59 61 65 66 67 68 62 64 64 76 74 77 78 84 88 86 87 87 78 71 68 67 65 66 66 72 93 61 63 59 62 69 79 80 85 81 79 87 94 85 93 92 89 91 80 84 80
59 62 65 66 68 71 66 67 63 64 69 76 81 86 90 86 88 88 74 71 68 68 67 69 75 89 90 56 67 68 75 74 74 75 82 70 83 88 80 94 92 88 100 89 80 82 76
57 62 66 67 69 69 67 67 68 67 68 73 83 87 90 87 87 79 74 71 74 75 74 72 67 94 80 79 78 74 70 72 76 74 85 90 93 95 96 98 96 99 99 94 92 88 79
59 64 62 67 67 64 66 67 66 67 66 73 82 86 91 90 84 80 80 87 82 95 87 83 75 76 73 80 80 79 73 78 73 85 94 82 97 100 100 88 89 84 90 99 85 85 90
60 62 63 65 65 67 65 69 68 69 67 71 78 82 92 87 84 79 89 96 70 64 69 69 70 75 74 74 75 79 73 81 82 93 82 88 94 82 83 85 88 89 88 97 92 83 83
57 57 59 59 60 60 62 62 70 66 70 71 75 82 92 88 83 87 88 84 69 67 82 72 70 72 79 79 73 81 75 81 90 88 85 93 83 78 77 84 92 85 84 91 88 85 87
52 56 59 54 60 60 58 59 62 65 69 74 75 79 90 87 84 86 87 72 70 66 92 72 80 74 84 83 82 66 78 83 90 83 78 90 81 79 86 84 89 96 70 78 87 84 99
54 53 54 54 54 58 60 59 60 62 69 75 79 80 85 75 91 90 70 71 71 61 91 61 81 68 79 81 72 81 81 96 91 86 89 95 88 90 81 80 85 88 74 81 78 95 95
57 58 55 55 55 55 57 58 60 64 71 75 78 75 88 92 91 80 69 70 70 89 84 86 76 83 88 83 82 82 93 93 84 83 86 89 80 84 90 81 74 70 79 86 88 96 98
58 59 57 57 55 55 55 56 59 64 70 73 74 81 84 81 86 77 75 76 93 95 69 85 88 81 82 82 75 78 79 86 97 100 100 98 91 81 78 84 74 79 87 99 98 96 97
56 56 54 55 56 56 56 56 57 59 66 78 82 86 83 79 80 74 76 84 95 65 83 67 78 77 84 84 75 78 81 84 81 86 97 96 97 92 81 86 92 90 86 91 89 89 94
56 53 57 58 62 62 64 61 60 67 72 76 84 97 98 88 84 84 90 99 80 78 72 76 73 83 88 84 85 82 87 82 83 87 84 96 99 79 83 75 80 88 94 67 71 70 85
62 60 59 56 63 67 67 66 65 67 71 77 96 97 94 90 88 92 99 86 78 66 68 66 78 76 88 87 87 86 84 83 81 84 82 84 94 82 77 75 79 81 59 75 85 80 67
60 61 59 57 62 67 69 70 68 67 69 78 97 99 97 91 91 98 99 92 72 68 63 65 80 86 78 86 81 83 85 81 80 81 77 81 84 86 77 93 88 74 77 70 72 79 77
54 56 57 58 64 69 71 70 70 69 72 81 97 100 97 93 100 99 99 75 67 73 75 69 71 74 80 84 82 81 84 82 79 76 84 82 88 98 92 82 76 82 74 64 74 77 88
55 58 58 62 67 69 70 66 69 71 74 97 99 98 99 96 100 100 86 71 74 80 77 71 72 67 69 75 78 83 86 78 74 74 79 73 88 94 82 72 72 82 80 74 74 78 85
56 58 62 65 69 70 69 70 69 72 71 95 99 100 97 98 95 97 99 92 83 78 76 68 64 64 69 74 77 81 90 84 75 79 70 65 83 76 88 76 82 88 87 79 77 89 84
56 59 65 65 68 69 70 70 72 74 75 97 98 99 94 99 99 99 98 82 86 86 73 64 63 63 75 83 85 87 90 88 77 73 81 72 89 87 83 82 85 85 84 86 87 79 78
55 60 67 69 65 69 69 70 74 76 76 98 99 99 96 99 91 99 92 87 74 77 70 74 71 66 67 79 74 83 79 82 83 81 86 83 97 84 88 77 75 80 81 83 87 84 80
57 64 69 66 68 69 72 74 73 76 80 99 99 96 96 98 99 98 89 87 72 69 69 62 67 74 67 66 72 77 78 81 81 83 86 83 89 90 92 84 74 79 75 77 82 84 80
60 68 68 68 69 70 72 72 81 77 85 99 99 96 98 99 97 86 79 84 70 70 75 82 71 70 76 69 70 68 71 69 77 84 73 78 86 91 95 84 86 64 67 69 73 74 74
66 67 67 68 69 70 73 75 74 79 86 98 98 96 95 98 86 77 86 84 88 84 85 86 87 85 68 78 81 82 91 78 71 78 82 69 87 97 95 97 74 73 70 66 67 58 77
66 65 68 67 72 73 75 72 72 85 88 95 96 88 81 89 93 94 88 83 89 94 93 96 87 77 70 77 81 91 96 90 94 81 81 78 71 81 84 95 88 62 68 60 64 67 85
65 66 70 70 72 74 73 73 83 88 84 89 92 83 73 94 94 95 90 83 81 87 97 95 86 77 77 90 87 87 91 84 94 91 96 91 90 91 91 97 85 68 67 58 69 59 84
66 68 72 72 75 72 73 81 85 88 81 86 86 78 75 97 93 91 83 79 82 86 91 89 79 76 85 85 84 87 89 90 89 86 92 89 90 83 90 94 90 72 73 66 59 86 83
68 66 73 78 76 77 84 88 90 84 73 72 79 69 70 89 90 84 80 72 78 82 92 91 83 87 88 94 92 92 86 89 87 89 86 85 76 85 82 78 69 81 79 82 79 77 78

GFSGBSN_sfc_rhum_087.txt.gz
RH
62 63 66 65 64 66 67 68 69 72 78 75 78 87 88 87 83 81 79 74 70 67 64 67 66 76 70 86 78 51 52 52 67 76 80 82 86 81 93 78 71 77 59 76 78 59 53
62 65 64 63 63 66 66 65 68 68 72 78 77 82 80 89 84 82 78 78 72 68 65 67 66 74 79 96 53 51 61 57 63 72 76 80 77 70 86 88 92 71 64 62 61 68 61
63 63 61 63 66 67 66 67 68 66 69 68 75 79 82 85 89 83 78 78 73 67 66 66 63 75 89 78 53 56 58 66 71 72 80 73 75 82 86 86 66 66 73 74 74 71 73
57 61 60 62 65 65 63 68 65 66 66 70 67 75 80 85 89 85 80 78 69 65 67 66 68 79 92 60 64 59 60 66 75 75 80 78 79 82 90 82 79 79 89 97 74 74 76
60 62 64 64 65 66 65 64 65 65 67 66 71 71 77 83 89 87 81 74 69 66 69 68 79 84 87 57 70 67 70 74 71 70 84 68 81 82 86 93 85 82 91 99 86 77 84
57 63 62 62 62 62 66 66 62 66 69 68 68 73 78 87 91 86 78 72 71 73 74 71 68 90 78 76 76 72 71 73 80 76 82 92 92 95 96 97 93 91 96 88 85 84 79
54 58 62 62 60 62 59 63 65 68 67 68 70 73 78 92 89 84 82 84 88 95 89 82 80 80 71 78 78 76 72 76 75 82 92 90 97 100 100 91 93 78 87 95 80 82 81
55 54 52 56 57 54 59 59 60 64 67 65 67 75 77 89 88 82 87 90 72 64 76 79 74 77 70 73 71 72 74 82 83 87 82 91 96 79 90 87 84 78 81 92 90 83 79
58 59 58 56 54 54 52 56 55 58 63 62 67 73 74 83 88 92 92 82 69 64 78 69 71 71 78 77 71 78 72 72 80 91 87 97 76 78 84 95 81 81 83 92 87 82 82
56 56 57 59 57 57 57 55 55 57 60 61 66 68 72 78 88 86 90 74 72 61 92 74 83 76 86 81 85 64 72 80 89 89 76 92 74 77 86 94 82 80 70 75 83 81 90
57 56 57 60 58 54 53 54 55 55 63 67 64 68 71 78 88 92 77 73 70 63 92 69 84 71 83 80 73 86 74 92 82 86 87 92 85 80 75 80 88 86 73 77 78 89 86
61 59 57 53 58 58 61 64 66 60 62 66 68 67 73 80 93 86 73 68 66 90 93 83 84 90 94 87 82 90 92 93 87 85 90 89 80 82 82 76 79 69 73 76 82 86 92
63 60 63 60 60 53 62 67 67 64 62 64 66 68 77 75 92 90 79 73 96 95 69 85 91 86 81 81 75 82 82 92 98 99 100 99 96 90 82 89 81 70 83 99 94 95 93
62 58 63 64 62 60 61 67 67 67 64 68 72 74 78 69 82 90 87 97 98 70 81 66 82 83 84 80 74 78 75 94 93 98 95 97 99 95 83 86 94 86 83 87 89 91 90
63 57 57 62 59 60 64 67 68 69 68 71 78 88 90 86 87 90 96 99 87 79 70 79 75 82 87 84 82 78 85 77 82 88 83 98 100 82 81 78 80 81 87 63 69 65 75
63 57 56 60 58 61 67 67 69 69 71 75 96 93 93 86 84 94 100 91 82 66 67 66 76 76 88 86 83 84 79 79 78 85 77 82 96 82 82 74 74 77 67 74 84 78 72
64 55 55 58 62 66 68 68 70 67 71 80 97 99 97 90 88 98 99 92 72 65 65 64 81 81 81 87 79 83 86 77 77 76 73 74 81 84 81 92 86 77 73 68 69 75 71
62 55 56 58 65 68 70 70 72 71 73 85 98 100 95 92 99 100 99 80 68 72 71 71 73 77 77 84 82 82 85 82 77 71 80 80 85 96 93 80 74 84 76 62 72 74 79
58 55 56 58 65 70 70 71 72 72 74 98 99 99 96 94 99 99 92 86 75 81 80 74 79 72 75 77 76 82 87 78 72 76 80 70 85 94 79 69 70 79 77 69 68 71 82
55 56 58 59 67 70 71 72 70 71 77 94 99 100 99 97 96 96 99 99 98 73 76 71 72 66 69 78 74 86 91 84 75 82 69 64 78 74 83 74 79 83 80 72 69 83 70
56 56 58 65 69 68 70 71 74 76 86 94 99 99 98 100 99 99 94 97 99 84 76 69 72 69 72 84 85 90 91 87 77 74 80 70 89 88 85 81 80 80 80 81 82 68 67
56 57 60 69 70 69 72 72 74 74 78 99 100 98 94 99 96 99 98 99 84 79 72 77 76 76 74 74 76 85 83 82 83 79 84 80 98 81 87 74 71 75 78 86 82 75 72
57 60 64 70 68 69 70 72 74 76 79 98 97 94 96 99 99 99 98 82 77 68 68 68 69 75 72 70 72 75 82 82 80 80 86 81 87 89 92 80 73 72 68 76 78 80 74
58 62 68 68 67 69 72 73 72 73 76 98 95 99 97 97 99 97 85 78 77 72 74 77 67 69 79 77 73 72 74 76 80 87 73 80 86 88 94 79 81 59 62 66 68 70 74
60 66 66 66 68 72 74 74 74 68 74 97 98 99 97 99 97 86 81 86 83 82 90 87 90 86 72 76 82 84 89 79 76 85 80 65 81 95 94 95 66 67 65 61 61 57 70
62 66 65 66 71 76 75 71 71 81 86 95 96 90 84 89 90 90 84 82 88 93 94 94 86 81 70 81 82 92 97 89 92 79 76 70 67 79 89 93 81 58 59 57 57 61 79
67 66 66 68 73 77 73 82 83 83 74 89 89 84 80 95 96 94 89 89 82 89 96 93 86 78 77 91 84 84 91 86 92 91 96 90 83 89 82 83 82 66 62 58 65 51 82
70 67 68 71 75 73 78 84 84 86 78 84 83 82 80 97 94 92 84 85 86 90 90 88 85 80 86 98 89 89 89 90 90 86 93 90 90 93 88 96 85 64 70 63 57 85 82
69 68 69 77 80 76 80 87 85 84 76 70 75 73 74 89 89 85 76 79 84 80 93 91 85 85 85 94 91 91 85 92 87 87 87 89 75 79 78 75 62 75 70 76 75 78 77

GFSGBSN_sfc_rhum_090.txt.gz
RH
62 62 63 64 66 67 66 68 69 68 67 67 68 71 78 82 84 89 79 77 70 70 67 63 64 74 69 70 59 36 49 48 51 52 49 49 57 56 71 55 58 69 55 44 37 34 36
63 62 64 61 63 65 62 63 67 66 65 68 66 65 72 77 79 86 82 76 74 71 65 64 63 75 75 91 39 39 45 47 45 52 51 51 52 52 69 73 88 57 55 51 42 44 45
62 64 64 61 63 66 66 66 64 65 66 67 66 67 69 76 76 82 83 82 74 68 64 65 63 65 84 72 41 39 46 45 44 50 55 48 49 64 61 73 70 79 91 59 49 47 63
59 59 62 61 62 62 62 64 66 62 66 70 70 68 71 74 77 84 87 82 74 66 66 66 66 67 71 49 43 50 43 52 59 53 58 53 54 68 72 74 83 88 71 79 59 64 66
59 55 58 60 62 62 61 62 64 61 68 66 65 65 68 73 79 90 86 81 74 71 68 66 71 63 74 51 60 51 52 60 56 55 59 53 75 72 81 99 94 96 80 73 72 64 64
62 61 59 56 56 60 58 61 64 64 66 65 62 67 70 74 88 90 84 81 72 69 71 64 64 79 64 58 59 56 53 60 66 62 67 74 86 91 96 99 71 76 66 75 65 58 66
62 61 62 63 63 58 58 57 56 58 61 68 61 66 66 72 89 88 82 85 89 92 72 64 62 64 53 63 61 64 55 63 63 69 80 78 93 95 89 86 62 77 54 95 57 60 67
63 62 59 62 60 64 60 58 57 54 55 57 61 61 66 69 77 90 86 82 70 56 67 63 61 64 59 58 63 60 58 72 76 74 69 80 87 57 84 91 79 84 57 72 71 66 62
62 63 61 58 59 57 58 55 57 62 57 54 56 59 64 68 73 92 93 86 66 54 56 57 64 65 57 61 61 63 66 66 69 69 72 97 60 82 89 94 80 71 52 71 84 79 69
62 62 62 64 63 58 58 57 64 66 67 63 57 58 65 66 72 75 84 68 65 55 86 67 74 66 72 64 71 59 63 67 75 76 63 89 58 70 88 90 79 72 57 61 71 77 78
61 61 62 61 62 65 62 56 66 66 68 66 61 60 65 65 81 87 87 74 71 59 94 70 76 60 67 68 64 79 67 75 73 66 76 70 68 66 70 65 74 69 64 69 66 69 63
64 62 62 58 59 63 65 63 66 66 66 67 65 65 69 68 71 84 89 78 65 96 87 84 79 82 82 73 67 90 91 89 82 90 81 85 82 85 91 81 83 59 61 62 66 64 82
67 67 62 59 54 61 61 65 64 66 67 69 69 70 74 64 74 87 92 82 99 95 58 89 79 74 67 69 68 76 79 93 98 100 100 98 96 88 90 92 67 60 61 90 80 84 88
79 76 63 58 56 59 63 65 67 68 69 72 73 74 79 64 58 80 96 99 97 63 58 61 68 67 63 58 57 62 69 98 94 99 99 100 100 95 77 83 84 67 67 70 71 68 78
86 80 68 56 56 62 66 67 68 69 72 71 78 89 90 75 64 88 98 99 90 60 58 72 65 61 63 64 57 60 68 67 63 68 78 85 99 85 74 67 68 68 68 52 56 50 52
86 82 69 55 57 64 66 68 69 71 72 73 96 92 94 74 75 92 100 95 71 61 62 61 58 54 57 58 58 60 62 60 64 59 56 61 93 82 71 63 62 58 51 63 64 66 62
82 83 61 55 60 62 66 69 71 71 72 76 97 99 96 78 84 98 98 100 77 60 65 60 57 56 52 58 55 55 62 62 60 56 49 51 56 86 69 74 73 60 53 48 47 51 48
84 76 54 58 61 66 68 73 73 72 73 83 98 100 93 92 99 99 82 81 76 80 61 64 54 52 50 56 55 56 60 61 59 54 57 57 57 84 72 59 56 61 58 47 48 56 51
77 57 56 58 64 69 71 72 72 74 77 96 98 100 93 95 100 99 93 93 94 84 77 61 61 55 55 51 55 60 65 63 57 60 56 49 62 80 65 52 53 59 53 50 46 48 66
66 56 57 60 65 72 72 74 73 74 81 92 92 100 98 97 95 76 98 99 99 79 80 58 58 49 50 56 54 68 68 66 62 61 69 49 56 61 58 64 64 63 59 52 50 78 38
58 56 58 63 68 69 71 71 72 75 80 84 91 98 98 100 99 97 92 99 98 94 68 52 59 51 49 60 61 68 66 62 58 63 57 48 79 79 62 59 62 64 61 57 67 49 51
57 58 62 65 68 68 70 72 74 74 77 91 99 96 88 96 90 97 98 99 98 76 64 63 60 53 47 51 52 62 60 55 57 52 56 55 85 67 74 55 54 58 58 61 60 52 50
58 60 64 67 65 69 72 75 76 72 80 96 97 93 94 98 99 98 97 83 67 69 59 57 56 52 55 56 49 48 50 52 53 54 58 59 66 74 75 58 53 52 51 57 60 59 52
59 62 65 62 66 70 73 78 75 74 72 97 96 95 95 80 88 86 86 74 67 68 64 63 56 52 58 52 47 46 49 52 51 56 49 56 62 72 81 60 73 50 44 48 51 48 52
61 66 63 65 67 72 76 73 73 78 79 95 97 97 96 96 94 92 76 70 63 66 76 78 74 65 53 54 55 58 57 52 60 68 56 47 57 77 76 61 49 48 50 48 47 40 45
63 68 66 66 69 75 76 76 80 80 86 86 89 90 82 69 73 79 75 66 71 83 71 77 64 57 57 53 57 68 61 65 63 67 64 57 50 54 69 71 55 42 43 38 41 39 51
65 68 66 68 72 75 76 79 86 80 80 80 90 80 65 66 71 78 71 69 75 88 80 71 66 67 59 66 64 58 66 64 62 63 68 68 68 66 58 61 50 42 46 42 47 38 56
67 69 68 69 74 75 79 88 85 84 73 80 77 68 59 67 73 75 71 74 69 75 66 70 72 67 80 91 65 58 53 59 61 61 70 62 60 59 53 67 69 45 49 47 41 52 56
69 71 70 73 79 80 89 85 84 82 73 67 63 60 59 65 69 66 64 64 69 68 74 69 70 71 66 79 64 58 55 61 57 52 62 67 49 47 50 45 45 47 47 48 49 50 57

GFSGBSN_sfc_rhum_093.txt.gz
RH
64 63 64 62 65 66 65 66 66 64 64 67 66 68 66 68 71 78 78 86 80 71 69 66 63 76 61 63 49 34 49 47 45 46 41 41 45 43 48 37 37 52 47 41 38 38 35
61 61 63 63 63 62 59 60 65 64 63 69 66 68 67 70 69 72 75 90 82 76 73 65 66 76 61 77 34 32 33 38 38 45 42 43 47 37 47 56 57 46 55 57 50 43 38
63 60 59 60 59 61 63 61 61 63 60 67 66 64 68 66 72 71 76 82 80 79 72 66 66 61 72 58 34 34 36 37 37 41 48 42 43 48 40 50 40 56 86 75 62 49 46
61 62 60 60 58 57 59 59 60 64 65 67 66 63 63 65 67 74 81 82 83 77 67 66 66 62 70 39 35 40 38 42 42 42 45 42 45 50 53 45 61 65 66 93 49 47 42
61 61 61 61 64 61 63 61 61 59 59 62 65 64 62 66 69 83 85 89 87 78 74 70 64 67 57 51 51 40 39 46 46 51 50 43 54 64 69 87 95 90 90 71 52 52 48
62 62 63 62 62 63 64 65 61 63 59 58 61 62 61 63 70 90 90 83 82 74 69 56 63 75 52 52 48 48 41 48 54 55 60 61 74 86 91 99 86 82 82 61 54 49 63
65 63 62 65 60 62 59 58 60 55 61 66 62 58 57 61 67 78 88 94 85 95 84 68 62 55 49 53 50 51 46 56 55 60 69 68 96 97 76 69 71 66 66 71 50 46 62
64 62 63 64 66 66 63 60 58 58 65 66 68 64 59 60 65 69 94 93 79 70 70 61 50 52 49 49 56 53 47 62 69 80 64 78 84 47 72 84 91 74 63 57 83 60 67
65 66 62 62 64 62 61 66 64 61 65 65 69 69 60 62 66 73 90 89 89 60 71 48 56 54 54 55 52 56 58 60 67 66 60 75 58 59 78 89 94 66 59 76 79 64 59
69 68 66 65 64 59 57 62 67 66 64 66 69 68 62 66 60 59 69 68 88 62 97 64 66 58 60 54 62 52 52 57 63 72 56 58 47 56 84 92 82 74 47 71 66 80 80
82 81 80 82 76 63 56 60 65 65 66 67 69 68 67 67 64 68 81 81 64 57 97 64 69 53 58 61 64 70 57 61 74 59 62 76 62 59 64 75 63 69 47 84 79 69 95
90 90 87 84 78 58 60 66 66 66 68 70 70 70 71 54 59 55 72 89 71 99 96 82 73 80 73 63 58 84 85 80 81 89 83 72 75 85 69 67 65 56 68 73 73 67 95
88 92 89 82 72 62 64 65 66 67 68 71 72 71 78 56 68 65 92 93 100 98 55 83 74 68 58 67 64 72 89 97 97 100 99 93 96 92 89 95 70 76 71 95 99 91 77
94 91 86 81 66 66 65 66 66 68 71 72 73 75 73 57 56 60 90 100 99 64 58 53 56 56 60 53 51 58 63 98 95 98 99 100 98 96 81 81 90 85 65 85 85 76 61
88 85 79 71 65 60 60 64 68 71 72 73 79 86 89 79 66 73 98 100 99 63 54 58 56 57 58 52 54 60 91 86 77 86 94 95 99 83 69 59 63 56 63 45 55 41 49
82 84 77 60 61 61 66 69 70 71 73 78 95 95 95 72 70 86 100 99 72 62 52 47 54 44 49 49 56 64 67 54 56 48 48 55 88 74 60 57 55 56 44 62 62 78 59
80 78 57 57 61 65 70 72 71 71 76 74 88 99 91 68 74 96 96 100 79 66 55 54 46 44 38 46 48 48 52 56 49 47 42 46 52 70 65 61 62 53 48 40 41 45 49
73 60 57 60 62 69 71 72 71 72 78 76 92 100 94 80 99 99 96 82 88 80 57 60 47 41 39 42 46 49 55 55 47 46 49 46 52 75 61 48 46 50 44 38 51 46 44
66 59 58 61 66 69 70 71 71 72 76 89 99 100 93 94 92 97 74 80 91 76 71 64 50 45 43 42 49 51 55 56 48 52 50 40 54 74 59 49 45 47 42 40 37 44 53
62 58 60 63 68 69 71 73 74 74 75 66 70 100 97 95 80 66 76 87 99 71 76 59 50 39 39 42 41 56 57 57 54 51 69 50 50 63 67 67 58 58 47 36 47 75 40
60 60 62 65 67 67 71 75 75 75 76 64 72 98 94 99 91 68 69 95 84 96 71 49 51 41 40 46 44 56 52 51 47 58 46 42 69 76 50 49 50 52 50 42 56 35 49
59 62 64 66 63 68 72 76 78 74 76 82 93 96 87 88 70 84 95 94 95 80 57 55 52 42 38 44 43 46 45 40 46 42 46 45 74 62 62 47 46 52 46 45 45 39 37
60 62 66 64 66 69 75 80 74 74 75 77 92 86 94 95 91 91 72 78 83 61 52 51 52 41 49 53 41 40 38 40 44 45 47 50 60 72 67 50 47 46 45 47 50 46 40
61 64 68 66 68 69 75 76 75 76 72 73 84 90 87 83 86 83 76 70 58 62 58 54 53 48 54 40 36 36 37 39 40 41 38 47 54 66 76 64 77 47 38 42 44 42 43
62 66 68 66 68 71 75 76 76 78 80 80 88 87 94 84 74 77 66 62 54 55 65 66 62 49 46 48 45 49 46 44 46 46 43 40 45 66 74 49 40 43 42 41 42 39 37
63 67 68 68 70 77 79 78 79 81 83 74 75 80 67 74 62 65 59 52 61 65 60 63 56 47 51 45 45 56 53 54 52 53 44 41 39 49 56 65 42 40 39 33 36 38 41
64 67 71 71 73 79 82 85 87 82 81 70 77 72 64 57 58 64 58 63 70 73 74 60 68 60 52 54 53 49 56 54 51 52 55 55 52 60 51 56 41 38 41 37 41 50 46
64 70 72 74 76 82 89 87 83 83 74 66 66 58 59 55 62 63 61 63 63 63 61 60 61 60 66 68 56 48 42 47 49 49 55 51 52 51 47 58 59 38 43 42 40 44 46
64 71 74 75 76 85 86 84 79 72 66 60 56 49 48 59 65 57 57 57 64 64 64 61 64 60 58 70 53 48 46 47 45 42 53 55 44 43 44 42 39 37 41 41 40 40 47

GFSGBSN_sfc_rhum_096.txt.gz
RH
65 63 61 61 62 61 63 62 62 61 61 61 65 65 64 64 66 67 69 72 76 91 78 71 65 74 71 67 57 45 59 55 53 47 47 42 47 48 56 44 42 48 43 41 40 41 41
65 66 65 65 62 61 58 60 59 58 60 62 64 65 65 63 63 65 68 72 75 82 78 72 67 76 68 75 34 39 37 38 40 49 47 43 44 42 52 50 57 52 51 48 49 50 51
65 65 65 65 64 63 62 63 64 63 60 59 59 61 64 63 62 63 67 72 74 82 89 74 69 66 70 61 33 34 34 38 38 42 48 42 40 52 49 54 43 55 76 65 61 58 62
65 64 66 63 64 60 65 64 66 65 63 62 57 59 61 60 61 64 72 87 79 91 84 76 70 66 71 41 41 38 36 41 41 41 44 46 46 53 56 54 57 63 81 91 56 56 53
65 66 63 61 66 63 62 63 62 59 59 59 63 64 64 60 60 64 72 83 83 82 74 68 69 70 70 50 50 40 39 46 43 47 50 41 51 64 63 87 92 89 94 80 66 52 52
68 66 64 63 64 65 69 66 65 60 59 60 64 66 67 65 60 63 68 90 84 82 77 68 66 85 59 57 49 45 40 42 50 56 67 66 71 78 78 91 93 73 98 87 80 50 59
71 70 68 69 66 65 66 60 62 66 63 65 64 67 70 69 62 62 76 92 94 94 96 82 76 55 51 53 49 51 45 53 52 58 75 68 89 94 84 77 75 72 79 80 61 49 78
80 78 78 80 84 82 76 60 59 64 68 66 65 68 70 69 63 63 78 87 88 96 85 69 66 53 45 50 62 54 47 63 67 74 62 81 96 68 64 73 89 86 86 77 63 73 79
80 84 91 90 91 86 80 69 62 67 68 67 67 69 69 67 66 69 73 87 90 88 85 55 65 56 56 55 53 63 57 62 74 71 63 77 61 61 76 81 93 91 83 72 90 76 68
85 86 88 93 84 85 79 74 68 67 67 67 69 70 70 68 62 56 65 83 92 93 100 78 67 58 52 58 62 51 54 57 60 64 61 69 54 53 89 84 84 91 55 56 80 82 98
92 91 84 83 84 83 71 71 69 67 68 70 71 70 70 70 73 68 58 82 93 92 98 77 66 46 54 64 65 71 55 58 68 71 78 78 75 89 77 63 72 70 76 82 78 95 100
82 83 80 73 71 66 74 70 67 67 69 72 72 70 71 61 64 59 75 86 88 100 99 98 78 82 72 64 63 70 75 72 79 87 82 79 70 84 72 73 70 62 70 77 79 97 99
80 77 65 67 68 71 61 60 66 68 70 71 72 72 76 62 73 66 80 94 100 98 83 86 78 70 62 65 66 75 88 96 93 100 100 93 94 87 82 93 74 76 95 99 99 100 98
80 72 70 70 62 61 63 68 69 69 71 74 77 78 73 61 66 67 88 100 97 97 82 56 60 61 95 62 69 61 83 99 95 98 99 100 100 97 78 82 91 90 94 99 97 97 96
77 70 59 59 61 65 68 68 68 69 80 83 83 93 91 75 66 77 98 97 99 88 68 61 57 71 80 54 57 70 88 98 89 85 98 99 99 84 83 62 68 76 84 50 76 60 85
71 61 59 60 63 68 69 68 68 72 77 75 96 94 95 77 69 88 100 99 98 84 60 48 61 55 62 55 89 92 94 57 85 60 62 66 98 69 59 63 62 69 50 76 88 97 91
67 60 60 61 66 69 70 70 70 72 76 72 92 96 90 71 73 93 100 100 95 67 57 59 52 45 44 54 73 70 59 59 51 50 50 53 77 84 70 69 67 65 63 53 53 62 88
65 59 61 64 69 70 70 72 73 73 76 72 91 98 86 87 98 96 100 95 90 79 58 59 54 44 45 47 54 59 67 66 52 52 56 54 63 90 68 54 51 58 52 51 81 70 72
64 60 62 66 68 73 73 74 74 74 74 90 99 99 86 94 96 92 68 75 79 80 73 66 49 44 42 46 61 53 62 62 56 59 61 56 70 93 80 65 56 58 47 48 47 71 65
62 62 64 67 68 73 77 78 77 74 74 81 81 100 89 94 84 69 74 80 96 71 77 57 46 42 43 47 49 64 63 62 60 56 70 66 66 83 93 85 71 74 54 47 68 81 64
62 64 65 67 66 70 75 79 75 75 74 79 74 96 86 96 87 72 76 82 77 90 66 55 52 40 43 51 54 62 58 58 52 58 59 56 80 82 60 56 61 61 57 51 56 48 73
61 65 67 67 68 70 76 80 76 76 79 81 92 95 84 88 78 72 86 87 82 64 60 62 52 44 49 57 50 55 50 51 58 49 56 54 86 82 73 54 55 61 55 57 58 44 48
60 66 68 68 68 69 77 82 79 80 78 75 90 85 97 88 85 87 83 78 69 62 54 54 56 54 63 62 48 48 46 49 53 55 56 61 78 87 83 67 61 69 56 57 60 57 57
60 66 68 68 69 70 75 80 81 79 80 74 88 91 94 85 78 75 68 68 58 64 65 62 60 59 61 51 48 47 46 46 48 51 48 58 69 86 94 85 87 66 49 50 51 50 50
59 66 69 71 71 72 76 78 82 80 80 80 84 92 96 77 63 70 63 64 57 63 68 70 65 59 55 61 60 59 59 58 55 54 53 52 62 87 93 86 55 55 53 54 58 57 48
59 66 70 72 73 79 83 87 86 82 79 83 79 86 78 86 77 62 60 61 62 68 72 70 64 58 65 67 59 75 82 70 68 64 55 48 50 69 78 82 68 58 50 43 46 72 58
61 66 72 74 76 83 90 90 86 84 81 83 88 79 78 80 71 71 71 79 71 82 83 73 76 72 68 78 72 72 79 66 70 68 70 70 68 78 73 81 63 53 53 50 68 76 61
64 68 73 75 78 86 85 88 84 81 72 75 79 69 83 79 77 68 64 75 74 78 77 73 78 76 81 85 77 66 66 67 73 71 76 69 72 75 66 80 78 52 57 64 56 68 59
64 69 74 76 78 86 83 78 73 69 67 71 75 58 57 79 81 64 62 63 70 74 84 75 76 77 83 93 79 71 70 67 65 68 74 76 66 72 63 70 52 54 59 57 55 56 69

GFSGBSN_sfc_rhum_099.txt.gz
RH
66 66 65 66 66 65 65 66 60 63 62 61 59 59 60 62 63 62 60 62 65 71 72 89 78 73 79 87 75 50 57 59 60 64 65 56 57 62 73 59 58 65 54 47 48 50 46
68 66 67 65 66 67 62 64 64 66 65 63 60 59 58 61 61 60 61 64 69 74 72 90 78 76 81 85 52 52 56 58 58 61 59 57 55 49 64 60 66 59 56 55 53 53 52
69 68 65 66 63 63 68 61 63 66 64 60 59 61 62 62 61 59 61 66 69 80 74 87 85 76 76 67 48 52 42 48 47 56 63 50 47 50 64 68 56 58 72 63 59 56 62
73 72 70 68 66 63 64 68 72 67 63 59 58 61 63 66 64 61 62 67 75 77 82 85 86 80 85 49 54 40 41 47 46 48 55 54 51 53 62 64 70 77 86 96 64 64 64
77 83 84 82 75 73 74 74 71 67 64 63 64 61 63 67 66 64 63 69 81 81 85 81 89 89 80 52 58 48 44 52 51 48 54 41 55 67 64 86 84 84 98 94 72 59 62
74 77 79 78 82 88 90 90 82 60 63 66 66 63 65 68 68 64 63 72 88 85 85 74 72 88 64 66 57 49 48 47 54 66 69 72 80 83 76 86 92 88 97 89 80 72 66
78 83 89 90 93 90 84 86 84 71 69 66 67 65 67 67 66 64 74 90 92 98 93 82 79 64 62 61 54 58 52 59 56 65 78 79 92 96 82 77 73 82 79 84 75 62 66
82 81 76 76 77 78 82 84 81 78 68 66 66 66 68 70 66 65 87 91 91 93 95 81 76 64 58 56 68 60 56 74 64 82 71 93 96 70 69 72 76 81 95 88 75 61 72
76 82 78 77 70 78 83 74 77 71 68 68 69 71 70 69 67 68 80 89 86 93 97 83 82 63 62 60 65 71 63 66 74 76 77 86 68 61 70 81 95 88 86 90 88 65 79
73 77 68 66 67 66 67 72 72 69 68 69 69 70 71 69 70 76 87 81 91 93 100 97 92 73 59 64 73 56 56 62 70 69 67 72 59 62 64 75 87 93 61 78 79 93 99
79 64 67 68 69 69 66 63 66 66 68 70 71 71 71 70 88 86 82 81 90 92 97 92 77 51 62 74 70 74 60 65 76 66 79 83 80 83 91 76 71 80 71 77 89 98 100
73 66 64 62 62 62 67 69 70 70 70 71 71 72 72 73 80 81 78 89 91 99 98 98 80 78 78 67 77 71 75 73 81 92 79 87 72 80 81 75 75 69 74 78 86 95 99
69 61 60 60 60 66 67 67 68 69 75 74 72 72 77 67 83 75 82 91 98 98 96 94 95 72 66 75 83 76 86 94 97 98 100 94 92 85 80 92 78 84 93 99 98 99 98
67 61 61 60 65 66 67 67 70 75 73 72 78 78 75 67 78 79 92 98 97 100 96 65 68 71 95 68 75 73 90 98 94 96 99 99 97 97 87 90 88 89 95 99 97 97 97
66 61 63 63 65 67 68 70 70 74 69 71 73 93 94 93 72 86 96 98 99 99 82 66 72 97 94 70 69 81 97 98 91 83 98 100 98 81 84 78 72 82 98 80 99 99 97
67 61 64 64 67 68 69 71 71 75 75 68 97 90 93 80 80 94 96 99 100 79 67 59 76 71 79 76 95 97 97 84 88 77 77 88 99 82 71 69 66 74 61 83 95 97 96
66 62 64 66 67 70 73 73 72 73 75 77 95 97 87 87 89 96 99 99 89 69 70 67 67 61 64 84 94 91 77 70 58 61 66 78 94 77 77 72 72 72 70 60 58 75 89
66 63 65 64 67 72 74 76 73 74 76 86 96 98 83 91 98 98 95 87 80 84 72 73 63 54 56 58 68 77 84 79 60 57 64 58 73 92 73 59 56 62 65 60 78 73 78
65 63 66 65 70 76 74 78 75 74 76 96 96 99 84 96 98 97 76 76 80 88 85 77 58 50 46 53 74 67 74 66 62 63 61 57 75 94 79 64 58 67 58 55 55 72 83
65 62 66 67 70 75 76 79 78 77 77 95 91 96 94 96 88 82 87 84 90 77 86 72 61 47 49 64 62 74 74 67 63 59 68 67 73 83 94 80 76 73 62 57 68 85 84
66 62 68 69 69 71 74 78 80 79 80 90 93 94 89 98 89 88 87 89 92 90 76 72 56 58 55 70 66 67 64 63 56 55 56 61 82 82 65 61 62 68 68 65 66 63 78
66 62 68 69 69 71 74 79 82 80 81 92 93 92 91 94 88 92 88 93 82 70 71 73 75 66 65 74 69 71 62 66 73 58 60 64 84 83 73 60 59 67 61 66 66 58 62
66 62 69 70 71 72 75 81 81 82 77 93 93 93 96 88 92 93 88 86 76 71 66 70 73 73 76 74 72 65 59 59 61 65 65 68 83 91 87 70 67 67 62 63 69 64 60
66 61 69 70 72 74 79 80 81 82 85 83 96 97 98 86 73 81 81 74 74 69 81 74 72 75 69 63 62 58 55 55 56 60 58 67 78 91 93 83 81 65 54 55 59 56 61
65 62 68 72 74 77 83 85 81 80 79 83 92 98 98 74 62 83 76 76 68 77 78 80 73 69 69 73 72 68 71 62 62 63 59 60 73 88 90 94 64 60 57 58 61 63 60
63 64 70 73 76 84 89 89 87 83 81 80 93 96 92 92 84 74 80 71 73 90 85 76 67 66 74 81 70 78 87 79 74 62 57 55 61 78 82 82 66 60 56 47 52 69 61
61 66 72 75 78 86 88 89 86 83 80 90 95 85 90 91 87 75 86 91 85 89 92 84 79 75 78 91 82 78 83 75 80 76 80 77 76 83 83 85 72 58 56 53 66 61 66
59 67 72 76 79 85 84 83 81 77 70 85 87 79 89 94 88 78 74 88 84 90 92 84 78 78 88 86 86 81 78 72 76 72 76 77 79 83 78 84 76 54 60 63 57 73 65
60 66 72 76 78 85 76 73 76 76 74 76 87 70 71 92 85 72 70 70 76 80 90 91 85 86 89 96 89 85 77 79 75 74 76 70 70 72 68 69 56 59 61 62 61 66 74

GFSGBSN_sfc_rhum_102.txt.gz
RH
71 72 72 71 69 68 67 67 66 65 65 64 63 58 62 60 59 61 58 60 62 68 70 74 92 89 77 84 79 51 58 56 58 62 65 65 61 66 74 70 65 71 62 55 54 55 54
73 74 75 81 85 84 76 67 72 66 68 64 61 56 60 59 63 62 60 59 60 66 70 73 90 89 86 86 49 52 61 64 68 70 68 57 59 57 67 66 68 62 62 62 60 56 56
71 74 77 79 83 80 80 90 82 80 78 75 58 56 59 62 64 64 64 62 63 68 74 75 86 75 87 77 53 57 54 61 62 60 65 60 56 59 68 73 66 68 80 70 60 56 61
75 81 77 74 79 81 85 86 92 91 89 78 63 62 59 65 64 66 65 63 65 77 78 83 83 82 89 73 57 49 46 53 53 54 54 56 54 60 69 67 68 82 86 97 67 67 64
72 70 71 74 70 71 76 90 85 84 84 76 69 65 64 65 66 67 66 65 66 78 76 86 86 78 90 70 54 47 46 54 55 52 56 44 62 71 68 84 80 82 91 93 82 62 65
70 73 70 72 69 72 76 81 83 83 80 75 67 66 65 67 69 66 66 70 80 82 82 74 79 83 83 79 59 50 48 51 58 65 68 77 78 90 84 86 96 88 90 87 92 67 70
72 64 62 65 65 70 73 75 80 78 74 69 68 67 68 70 68 66 81 88 89 92 95 81 82 76 73 62 55 57 54 57 55 67 69 82 90 90 82 78 71 82 83 83 74 62 76
64 62 64 65 66 65 66 70 70 70 70 70 70 70 69 68 66 63 82 91 90 90 94 89 81 68 58 54 71 65 58 72 73 83 69 87 90 71 69 73 71 75 87 90 76 67 75
64 63 61 61 61 65 66 66 67 66 68 68 69 69 70 69 63 74 88 85 88 95 98 87 83 67 64 59 71 76 66 70 72 78 79 88 72 65 69 76 83 83 95 84 88 78 78
60 59 59 61 60 67 68 69 68 68 69 69 70 70 70 70 68 83 88 79 90 91 100 100 96 82 61 65 76 59 58 67 76 81 73 86 71 71 72 78 86 95 74 71 79 94 96
60 60 60 58 62 66 69 69 70 71 78 72 71 71 72 73 83 85 81 86 93 94 97 97 94 63 62 74 74 76 60 68 76 63 76 79 83 85 92 86 64 90 66 84 81 90 100
62 62 61 63 64 67 71 74 73 71 74 77 71 70 73 75 83 77 81 89 93 98 98 98 84 85 80 75 76 75 76 72 80 91 84 85 77 85 80 77 78 71 80 79 81 94 99
64 63 61 66 62 66 70 75 74 70 74 76 76 70 79 73 82 76 82 94 96 96 92 97 94 81 74 92 82 76 86 88 93 99 99 92 90 83 79 93 78 87 95 97 98 99 97
64 64 63 64 66 70 72 74 75 68 72 76 79 79 82 76 83 85 93 95 94 86 90 87 73 76 84 76 80 79 94 98 89 95 99 99 99 97 86 90 93 87 95 99 97 97 98
65 65 65 64 68 70 71 73 74 70 68 68 75 95 96 91 82 89 95 94 98 90 80 85 93 88 88 74 87 88 89 98 86 85 96 99 97 83 84 80 76 89 100 92 100 99 99
66 65 65 64 70 73 74 72 72 78 78 74 95 96 92 84 92 95 96 98 98 77 76 72 89 82 91 91 98 97 98 87 82 74 73 92 99 84 74 83 78 80 76 98 98 96 97
68 65 66 67 71 73 76 76 74 75 78 72 95 93 82 83 92 95 98 96 83 80 78 72 73 68 84 92 86 95 91 71 66 74 83 86 89 71 74 72 70 77 93 89 76 92 97
69 63 66 67 71 73 76 77 76 77 80 86 95 96 82 92 94 98 97 90 78 86 79 79 69 60 64 80 88 84 84 77 65 65 85 74 82 95 69 55 58 62 67 68 88 84 86
70 62 68 68 71 74 76 79 78 77 80 95 95 99 89 94 97 98 83 79 84 84 88 82 68 53 50 61 79 78 77 63 65 68 64 63 78 94 75 55 58 71 60 58 58 71 90
70 62 69 70 71 74 76 80 80 78 79 90 94 96 93 94 92 92 90 93 88 77 87 76 73 52 58 70 68 78 73 64 64 63 70 65 75 82 90 78 76 78 66 62 68 90 93
71 63 68 70 71 72 75 78 82 80 78 84 95 96 92 98 93 94 90 91 89 85 76 70 69 71 64 75 68 72 65 62 57 62 65 63 83 84 74 66 66 69 71 68 74 70 86
71 66 66 70 72 73 76 80 82 83 76 94 95 95 94 94 90 91 88 88 85 77 77 81 82 72 76 89 88 80 70 70 77 62 66 69 84 85 73 64 63 65 63 68 71 64 74
71 66 64 70 72 76 77 81 84 83 80 96 97 95 94 87 90 93 92 88 82 78 74 76 81 77 76 78 78 78 74 64 74 70 68 73 83 90 79 82 66 63 64 65 71 72 68
71 66 64 71 74 78 84 88 86 82 83 96 97 98 93 89 85 87 83 79 76 74 87 77 78 80 74 71 72 76 70 59 60 63 64 72 81 91 88 76 66 59 59 59 62 64 70
70 65 67 73 78 83 87 88 83 82 78 94 97 97 97 88 83 83 81 78 72 76 83 82 75 72 73 78 72 71 73 61 60 68 65 65 82 88 88 91 59 68 61 62 64 66 66
68 62 68 74 79 87 90 88 85 80 76 94 97 97 95 94 84 80 85 84 89 93 86 78 73 73 78 80 71 79 80 79 73 64 59 62 70 80 84 78 65 59 58 52 55 61 65
67 60 69 75 80 84 84 86 84 82 78 91 94 89 93 93 88 86 90 91 89 93 94 88 82 78 79 88 83 79 84 76 82 80 78 79 80 83 85 85 72 60 58 55 61 48 74
69 59 70 75 79 79 79 77 76 76 76 84 87 86 88 94 89 78 74 87 87 92 93 85 80 78 90 85 88 85 82 77 78 74 78 72 81 85 84 86 73 60 64 55 52 77 74
71 61 70 76 78 83 75 76 80 76 77 80 85 77 80 92 85 78 72 75 74 79 88 90 88 88 92 96 92 91 80 86 78 76 74 82 72 74 69 68 54 62 64 69 67 69 75

GFSGBSN_sfc_rhum_105.txt.gz
RH
75 76 70 69 67 64 67 76 75 81 87 78 80 69 56 61 59 59 60 59 58 60 62 67 73 92 76 85 77 50 57 64 61 60 66 66 64 66 75 75 67 76 67 58 59 61 60
69 68 65 68 65 64 70 73 87 76 89 87 83 67 55 57 61 62 62 62 61 60 64 68 85 74 78 88 76 59 63 63 62 68 73 61 62 60 69 72 73 67 70 70 66 62 60
68 67 64 64 64 65 67 76 82 87 91 92 89 79 58 60 64 63 64 64 63 64 66 73 87 78 82 86 79 75 61 70 69 61 66 61 58 59 67 76 69 70 82 76 68 63 66
69 61 61 63 65 64 66 71 74 81 84 85 86 80 65 65 64 66 66 66 67 67 75 76 83 78 91 78 87 79 56 56 59 54 56 58 56 62 67 68 67 76 86 97 66 68 63
62 61 63 67 63 59 61 66 70 71 72 73 72 70 65 66 68 68 67 67 71 79 75 80 85 80 96 70 83 66 47 59 57 57 54 48 61 71 76 84 91 82 98 86 84 67 67
61 60 63 61 63 64 64 64 65 66 68 69 69 68 66 68 68 67 67 68 73 80 79 70 77 91 89 83 80 57 48 56 64 65 70 77 81 91 87 80 96 89 94 85 91 70 76
60 59 60 59 63 65 66 67 66 65 65 66 68 69 70 69 66 66 81 85 89 89 85 82 86 78 79 71 63 59 53 59 59 70 76 81 91 94 86 79 76 86 89 92 74 64 74
60 60 58 60 62 64 68 68 67 66 66 67 68 68 70 69 65 65 82 93 91 89 96 78 78 82 67 62 74 62 52 66 66 87 82 82 88 71 72 75 77 72 81 85 73 68 74
61 61 58 60 63 66 70 72 72 71 73 69 69 70 71 69 64 80 89 88 92 91 95 90 83 76 75 64 72 73 59 67 74 82 85 91 67 67 68 78 79 78 84 86 88 73 70
62 61 65 64 62 68 71 73 68 69 72 75 70 72 72 66 70 84 82 87 91 92 99 99 94 86 71 68 76 61 58 65 77 80 80 87 72 74 77 86 84 90 69 74 82 95 97
62 62 63 61 67 68 70 70 68 70 72 76 71 72 72 70 84 85 82 88 92 92 95 99 92 80 72 79 77 76 58 69 78 65 71 76 80 81 87 81 70 82 73 85 87 97 99
62 63 63 64 70 68 71 70 68 70 74 77 72 73 74 79 84 84 82 92 94 93 98 100 94 92 88 77 76 78 74 74 77 83 80 85 73 77 87 80 78 74 86 84 81 89 99
63 65 65 65 72 70 71 71 69 67 70 76 77 74 81 76 93 82 86 94 95 95 94 97 94 81 80 89 81 77 86 91 95 99 99 93 86 81 79 90 82 83 96 97 96 99 97
64 66 62 65 72 73 73 73 73 74 73 70 74 78 85 77 92 90 91 93 91 94 97 88 77 78 97 85 83 80 96 99 89 96 100 99 94 95 78 90 95 91 97 99 97 97 97
67 66 67 66 70 73 73 74 75 78 77 73 73 94 94 85 86 91 96 97 99 93 79 88 83 82 88 94 92 93 98 99 88 88 96 100 93 86 85 78 84 93 100 93 100 100 98
70 64 67 66 67 72 73 75 76 78 79 74 94 93 91 78 90 94 95 97 98 81 77 84 86 83 85 86 86 92 96 87 86 75 78 92 99 82 74 86 82 91 86 99 99 97 96
72 63 68 67 71 72 73 74 76 78 79 76 93 90 78 89 88 93 98 96 88 80 83 80 78 74 84 91 75 88 90 79 81 84 83 86 91 78 79 84 74 89 98 98 96 98 97
73 64 68 68 72 72 72 75 78 78 80 80 94 92 80 92 93 97 97 92 80 85 83 84 70 61 78 84 92 90 85 82 71 82 96 84 88 98 72 61 60 65 70 76 98 89 84
74 68 66 70 70 74 76 77 80 79 80 94 96 98 85 87 96 98 84 82 84 84 85 84 75 66 58 69 80 82 78 65 68 67 66 65 79 94 69 54 59 74 65 67 66 74 90
75 71 64 71 72 74 75 79 81 81 78 90 92 94 94 94 95 92 94 92 88 76 80 77 76 63 65 71 70 78 72 66 65 65 68 64 77 80 88 77 72 77 66 65 69 92 94
76 72 64 70 72 71 78 77 81 83 78 87 95 97 93 98 95 94 90 89 88 87 76 74 71 79 73 82 76 78 73 68 60 63 67 63 79 86 72 66 65 69 71 71 89 80 94
78 73 66 68 72 73 81 82 84 84 77 94 96 94 94 92 90 89 88 88 90 87 82 80 82 75 80 87 88 88 89 76 80 66 73 73 87 86 70 67 68 63 63 69 73 71 84
78 73 66 69 73 76 83 88 88 83 78 96 98 97 89 86 87 92 93 88 83 81 77 81 84 82 77 81 81 80 80 75 73 78 75 77 83 88 73 79 65 60 64 67 75 76 75
78 73 65 71 76 80 88 90 86 81 83 96 97 97 90 89 87 88 86 82 80 79 89 80 80 80 73 75 82 82 78 65 69 76 70 75 83 90 90 71 59 55 62 61 69 65 74
77 72 64 72 78 84 88 88 83 80 78 97 98 96 93 92 84 85 80 84 81 81 85 86 79 74 79 78 72 69 74 56 61 72 74 70 84 88 87 90 52 66 59 62 64 63 64
81 69 62 73 79 85 87 84 82 80 79 95 97 97 95 91 85 74 84 86 93 94 87 77 74 76 77 78 73 76 73 79 68 67 71 69 74 80 86 78 57 52 69 54 56 63 61
84 68 63 73 78 82 84 82 75 72 74 91 94 90 92 92 88 86 87 85 89 94 95 89 85 85 80 88 84 82 85 78 77 80 78 78 82 83 87 88 70 61 68 57 61 42 72
88 70 63 74 77 79 76 80 80 79 79 80 86 89 89 94 89 83 78 86 90 94 92 84 83 80 92 85 90 89 86 81 85 76 78 73 78 84 86 88 66 64 68 58 49 78 75
90 74 65 74 76 80 77 76 78 76 76 78 85 82 84 93 85 83 75 77 76 79 88 89 88 89 93 97 94 94 84 88 80 81 72 82 71 76 74 69 54 63 56 66 68 70 77

GFSGBSN_sfc_rhum_108.txt.gz
RH
66 59 60 63 66 63 63 64 75 79 81 79 79 92 84 62 60 61 62 61 61 58 58 64 69 73 81 90 90 66 63 64 58 57 68 61 66 69 78 77 70 79 70 64 64 65 64
61 59 64 66 63 60 63 61 64 78 85 90 88 89 69 64 64 64 63 62 62 61 60 64 72 82 84 90 77 87 74 66 62 67 64 60 64 62 70 74 76 73 74 73 69 65 65
59 59 64 68 64 61 62 63 65 65 76 81 84 83 69 65 64 64 65 64 64 64 64 67 88 74 86 96 87 88 74 71 62 62 65 61 56 61 68 76 71 73 80 77 71 68 69
58 58 65 66 60 63 61 63 64 64 65 68 71 68 65 66 67 68 66 66 69 76 71 72 84 88 97 89 91 84 73 58 54 53 58 60 55 64 67 70 66 77 81 87 58 71 65
59 60 62 62 62 64 64 65 63 64 64 65 67 68 68 68 68 67 67 67 80 76 78 78 85 84 98 77 86 80 71 60 58 60 59 47 59 72 72 85 88 83 95 89 79 70 70
60 65 58 63 66 66 68 67 67 66 66 66 67 68 68 68 66 68 63 66 70 78 70 66 74 82 90 90 80 60 51 56 66 66 70 74 83 90 90 90 84 85 99 89 90 70 79
60 63 66 65 67 70 68 69 66 67 68 67 68 69 69 68 66 66 78 83 86 88 86 90 90 83 80 78 67 66 55 61 62 66 82 83 93 97 87 81 77 88 93 94 74 63 73
62 65 68 66 72 74 70 67 67 70 72 69 70 71 70 64 69 68 85 93 89 89 95 77 81 78 72 64 77 66 56 70 70 85 84 85 93 75 74 76 81 84 93 90 76 68 76
63 64 67 70 75 74 67 67 68 70 73 71 71 72 70 60 66 83 93 94 92 88 93 86 87 82 75 68 76 72 59 66 74 85 88 90 68 66 72 85 88 90 92 89 85 72 70
64 63 67 70 76 76 68 67 69 74 75 74 72 72 69 58 72 85 95 85 92 92 95 99 93 86 71 70 81 64 61 70 81 84 85 91 74 73 79 87 81 92 69 73 80 88 94
65 65 64 69 77 79 71 66 68 73 77 75 73 73 68 70 85 91 84 85 94 98 94 98 95 75 71 84 75 73 62 70 83 69 76 75 79 89 87 78 74 83 68 76 86 95 99
64 66 64 68 72 78 78 71 69 69 74 75 75 72 70 80 86 84 85 95 93 86 97 100 95 93 94 78 79 77 69 71 77 86 78 83 77 78 84 82 79 74 87 86 91 95 98
68 68 67 67 68 73 79 77 75 73 68 72 74 73 81 77 90 88 90 95 90 95 97 99 99 95 89 88 88 84 90 97 94 98 98 86 81 77 76 88 82 88 96 98 94 100 94
71 66 68 68 68 69 75 77 77 78 79 69 72 78 82 78 93 88 89 91 90 94 94 86 82 95 89 88 87 86 91 97 91 93 100 97 88 85 77 81 94 96 98 99 97 99 94
74 65 69 69 71 70 73 74 72 74 80 78 71 92 91 85 88 91 94 96 100 96 84 86 85 91 99 96 92 88 98 97 91 94 99 100 92 87 83 80 82 93 99 93 100 99 99
75 70 68 68 71 72 71 72 73 74 80 77 94 89 84 78 93 93 95 90 97 87 81 83 89 84 88 90 95 98 98 86 92 81 75 90 98 80 81 88 85 92 82 99 99 97 96
75 73 65 70 70 71 73 76 75 77 83 74 92 87 77 92 87 92 99 98 89 80 86 86 80 79 83 96 85 86 89 81 81 80 77 87 90 82 83 90 74 94 98 98 99 99 97
76 75 67 70 72 72 74 76 78 78 83 81 94 88 76 87 92 97 96 91 80 84 86 86 83 64 80 88 95 95 82 77 69 84 95 86 93 98 77 63 57 67 75 88 97 97 97
80 76 72 66 73 73 75 77 76 79 81 95 95 98 81 84 95 98 86 84 86 84 86 85 77 74 68 78 84 84 80 65 69 81 71 71 82 93 67 64 61 74 68 69 73 81 92
79 77 74 66 73 74 77 80 80 80 80 89 90 89 90 95 94 91 96 91 86 76 84 80 79 69 69 73 71 78 70 66 66 67 68 63 78 78 86 76 74 76 70 73 76 94 89
81 78 74 67 73 75 80 83 84 85 80 84 94 98 94 97 94 92 90 90 91 89 81 77 74 83 88 80 74 81 77 68 62 62 70 64 74 86 72 67 66 69 70 79 92 88 96
85 79 75 67 74 75 82 90 88 85 76 93 93 92 93 94 89 86 87 89 91 87 86 84 85 85 82 88 91 89 86 78 80 67 72 74 82 86 76 70 75 62 64 72 75 76 84
87 80 75 68 75 77 88 91 88 82 76 96 99 98 89 87 88 89 93 90 86 83 82 83 88 86 83 84 82 83 82 85 79 80 77 79 82 86 73 75 59 56 64 75 77 81 80
87 81 74 68 76 83 87 89 83 81 82 95 98 96 88 89 89 86 84 85 84 84 90 83 84 85 76 79 86 87 88 81 75 72 76 77 84 89 90 66 54 47 66 63 71 66 71
85 81 72 66 77 84 86 84 81 78 81 97 98 95 92 89 89 88 82 81 84 82 86 86 81 76 83 80 74 70 71 61 68 73 76 78 83 86 88 90 47 65 64 68 72 59 66
85 82 69 66 77 83 86 83 80 75 79 95 97 96 94 86 81 83 84 86 87 91 86 78 79 80 78 78 74 77 67 80 70 66 76 71 78 79 83 78 42 52 70 61 66 69 62
83 82 69 65 76 81 79 81 79 77 76 89 94 91 92 91 87 83 87 87 90 95 92 90 83 85 82 87 84 83 86 80 80 83 78 78 82 81 85 90 68 62 69 64 68 42 74
85 86 73 66 73 80 75 79 79 79 78 77 86 91 89 93 88 85 80 86 90 94 90 82 82 82 93 84 91 90 89 84 87 78 76 74 78 82 90 92 68 60 69 60 50 74 76
87 89 77 68 74 77 82 76 78 76 75 76 85 85 86 93 84 85 78 77 78 77 88 90 91 89 93 96 96 95 90 91 82 85 75 84 71 71 74 67 51 60 56 59 63 71 76

GFSGBSN_sfc_rhum_114.txt.gz
RH
59 63 63 66 67 69 70 69 62 61 61 66 66 71 65 65 63 62 62 60 57 55 55 58 64 80 88 80 98 77 69 74 46 45 44 44 38 41 44 42 49 45 47 47 43 44 41
58 63 65 65 72 72 67 70 68 62 62 61 64 66 66 65 64 64 62 61 59 58 56 59 66 82 76 89 84 70 60 65 59 48 47 45 46 42 47 46 41 45 48 44 42 40 41
59 64 65 69 69 68 68 70 70 64 63 62 62 64 63 62 64 64 63 62 61 59 60 62 73 69 64 98 77 66 70 80 57 46 48 42 41 40 44 51 48 51 46 40 40 42 41
61 64 65 69 69 64 65 66 74 67 64 65 65 64 65 63 63 64 67 77 76 73 68 76 73 62 98 92 70 71 53 46 38 38 42 40 36 43 44 45 48 46 47 39 36 46 46
64 64 65 69 68 64 67 69 71 70 66 66 67 66 66 67 65 68 76 78 78 82 90 77 75 67 98 89 84 76 64 54 44 42 40 36 42 51 48 54 47 47 58 44 35 45 49
67 67 66 67 70 66 62 69 71 71 67 67 66 64 67 72 68 71 70 76 80 82 83 78 81 80 81 97 81 68 50 44 49 48 49 50 53 55 56 51 46 43 52 50 44 42 45
66 65 65 66 71 70 67 64 73 71 68 69 66 63 64 70 72 70 64 61 71 81 80 92 84 85 83 74 65 69 47 41 42 45 56 60 55 68 58 48 44 47 48 51 43 41 55
65 68 69 66 68 71 69 70 67 70 69 71 66 66 62 64 73 72 65 78 89 79 90 77 77 83 73 66 75 54 45 50 51 63 58 58 54 55 55 56 56 55 57 52 49 50 53
65 65 69 71 67 71 72 72 73 70 72 73 70 69 63 62 66 68 83 92 78 83 83 78 77 84 87 61 62 60 49 53 56 60 58 53 58 55 55 62 62 55 58 56 65 54 46
68 67 69 72 75 70 71 72 74 75 74 72 72 68 71 59 56 64 77 73 78 77 91 96 78 82 67 64 74 54 52 58 62 63 64 60 58 56 59 59 56 64 51 57 62 71 81
75 66 68 72 75 76 74 72 73 74 78 77 72 73 71 71 62 67 68 69 74 73 85 87 80 61 61 67 66 64 54 56 72 71 63 58 64 68 72 63 56 58 57 62 66 82 95
77 73 67 68 72 76 77 76 73 75 76 80 72 73 71 58 62 69 71 75 75 92 94 92 91 93 81 78 70 62 61 53 58 71 64 59 50 57 54 54 56 49 63 64 68 86 95
78 77 71 68 69 69 76 79 78 75 75 80 80 72 69 62 66 70 70 68 96 88 86 86 86 77 68 70 69 69 66 64 71 95 94 70 68 60 56 68 65 72 80 92 88 92 72
76 79 75 67 70 70 75 79 79 75 75 80 80 75 70 62 67 71 69 78 84 77 75 70 75 74 68 76 69 71 72 79 78 76 82 91 89 68 59 63 72 73 96 96 90 74 65
81 80 78 74 67 71 75 78 78 75 81 81 71 70 67 65 70 70 69 98 97 78 66 71 72 67 81 86 71 72 86 82 75 74 82 91 71 64 62 62 68 89 98 76 100 95 92
84 77 79 76 68 73 75 77 77 73 80 75 74 68 70 71 72 74 91 91 85 73 69 65 72 67 68 69 74 77 73 65 75 71 65 72 83 59 68 70 71 89 89 99 98 89 84
83 81 79 76 72 75 75 77 79 80 80 72 70 73 68 76 72 67 99 89 73 65 71 69 61 66 66 71 70 69 66 64 66 76 73 84 81 65 66 78 88 79 97 98 97 85 80
82 82 80 80 74 76 77 80 81 80 77 64 73 97 71 79 82 80 79 71 73 67 66 69 68 52 60 69 69 67 63 58 58 63 77 67 76 85 60 50 51 58 88 96 84 93 73
81 84 81 80 75 80 83 84 83 81 78 68 73 83 68 71 87 79 68 68 66 66 67 66 62 58 54 58 62 64 58 55 61 66 64 63 72 80 56 51 50 57 79 92 78 78 76
81 84 82 80 76 83 86 83 81 79 76 59 54 94 67 70 70 60 67 72 70 66 66 62 62 57 53 54 54 58 51 54 54 56 69 61 59 64 62 51 54 58 53 78 71 87 62
82 82 84 79 73 80 84 83 81 80 74 57 65 85 77 85 69 68 66 69 69 67 64 59 56 66 66 56 52 55 60 52 49 54 57 54 67 70 54 50 53 56 53 64 76 68 73
82 80 83 77 72 82 84 84 84 80 70 73 68 75 74 73 68 68 71 68 67 68 63 60 55 61 59 60 61 66 67 57 52 48 52 55 70 64 69 52 56 58 48 48 66 67 62
82 83 83 75 72 82 84 87 87 80 68 76 91 82 67 80 69 68 62 63 63 67 63 61 60 60 61 56 54 51 54 56 56 62 56 59 61 67 59 46 44 43 36 44 49 52 59
86 85 84 74 72 83 84 81 80 80 79 74 87 77 61 59 61 56 68 69 68 66 73 62 66 65 57 56 63 67 68 68 66 65 56 56 60 68 78 54 50 35 44 42 47 47 48
86 85 83 74 70 81 81 79 78 77 78 80 90 83 76 52 54 62 68 64 62 59 66 71 60 59 57 56 52 44 43 44 50 56 58 54 56 64 67 50 24 32 35 45 48 41 40
88 86 84 79 68 81 80 81 77 77 76 77 81 81 68 53 48 56 61 62 58 59 56 62 56 58 57 54 52 48 32 42 41 48 53 59 56 53 59 56 29 25 41 39 40 39 35
90 88 87 84 72 73 79 78 79 78 75 74 75 79 67 68 59 60 60 61 63 70 60 63 62 65 63 54 51 48 48 54 45 47 51 58 56 63 52 48 32 30 41 39 44 29 38
93 92 90 89 80 72 79 80 78 78 73 68 72 77 67 70 63 66 61 70 76 70 57 57 61 68 71 67 57 52 58 50 59 51 46 39 40 48 51 61 56 41 45 42 33 38 43
95 94 93 91 87 78 75 81 81 75 72 72 72 72 72 72 64 66 59 59 58 59 59 71 67 72 66 75 69 64 62 64 57 45 52 51 39 40 42 33 39 41 40 37 39 41 40

GFSGBSN_sfc_rhum_117.txt.gz
RH
64 62 66 68 68 66 66 68 70 63 61 61 63 67 66 66 66 66 65 62 58 57 57 60 66 84 88 87 94 72 77 79 38 33 32 30 25 27 29 29 35 29 34 34 33 35 32
65 63 67 69 62 68 68 68 74 64 63 67 64 64 65 64 63 64 64 62 60 58 56 60 76 81 84 90 88 69 82 70 37 36 36 32 32 30 34 35 33 34 37 34 32 31 31
66 67 67 70 65 69 68 67 73 66 66 67 66 65 64 65 63 63 65 62 59 57 58 62 75 72 78 98 74 70 74 82 48 36 43 38 32 32 34 40 38 40 38 30 32 32 32
69 68 67 70 70 69 66 68 70 67 66 64 65 66 68 68 69 78 78 80 73 64 63 71 69 70 98 88 80 66 50 48 42 34 36 33 30 35 36 35 37 36 37 38 33 39 37
66 70 68 69 70 70 66 69 68 67 66 65 64 65 68 72 81 80 82 85 91 85 84 78 64 66 96 85 85 70 57 46 42 36 34 29 34 39 40 47 41 41 56 36 30 36 38
66 69 69 68 70 69 71 65 67 66 67 66 66 65 67 75 76 77 78 75 76 77 73 64 61 72 82 95 86 65 53 40 44 44 44 40 40 43 42 46 49 38 46 36 31 37 39
65 70 71 70 68 71 70 71 67 69 69 68 68 66 66 73 74 72 64 67 80 82 82 90 86 85 87 85 65 56 39 37 38 39 45 46 47 61 51 37 33 32 31 33 29 31 46
65 65 72 71 69 69 70 71 72 70 71 71 70 70 63 64 69 69 57 71 90 83 89 72 76 81 74 59 76 49 39 45 45 53 46 48 46 42 43 43 41 40 42 36 40 42 44
72 66 66 72 71 72 72 70 71 74 75 71 71 70 71 63 62 59 70 82 70 70 69 67 66 71 77 56 57 56 41 43 45 48 44 45 51 46 45 50 48 41 44 43 52 46 38
76 68 67 66 70 72 74 73 72 73 77 78 73 75 72 68 55 54 61 60 64 62 86 86 69 66 55 56 61 48 46 52 50 51 47 46 45 46 48 47 45 47 42 48 53 67 77
77 77 67 68 68 69 74 76 76 74 74 80 78 72 70 69 51 54 62 57 60 66 82 77 74 52 48 55 56 56 47 49 57 57 58 54 57 58 58 51 46 51 49 54 58 73 91
78 79 75 66 69 69 74 77 76 75 75 78 80 72 72 52 52 60 58 59 65 92 94 82 74 77 73 56 58 54 54 48 49 58 53 50 42 50 50 45 49 45 56 56 59 66 92
78 80 80 70 68 70 75 76 77 76 77 80 80 73 58 51 52 57 58 62 96 88 72 75 70 56 48 55 57 54 57 56 65 94 94 65 58 53 49 58 54 60 76 88 95 97 74
81 77 80 76 68 72 75 76 76 77 78 82 77 70 66 53 55 60 63 68 84 71 61 58 60 56 60 62 56 58 60 70 64 61 73 88 84 58 53 57 65 76 78 94 90 78 62
82 80 80 77 70 74 77 76 77 80 85 79 73 52 54 56 60 61 54 98 95 66 55 57 59 51 61 60 62 58 64 70 66 62 70 77 64 51 52 50 58 91 95 76 100 71 88
82 83 80 79 72 76 74 78 78 80 82 76 49 49 58 59 58 66 82 88 69 60 58 55 69 57 60 54 59 60 57 55 64 63 54 63 78 51 63 62 62 70 81 99 99 90 86
81 83 79 80 74 78 80 81 80 79 79 71 55 57 60 57 61 53 96 76 60 55 58 57 52 52 52 57 58 55 52 54 55 68 63 70 70 61 59 69 60 87 90 97 92 79 84
81 82 82 82 75 81 82 81 79 78 78 65 60 96 56 60 76 58 68 57 65 57 56 55 55 47 47 53 52 54 55 52 49 56 63 56 62 78 53 40 44 50 70 85 86 89 65
81 81 84 82 79 84 83 81 81 80 75 53 48 72 56 60 81 68 58 58 58 58 56 54 52 50 47 48 53 49 48 50 51 56 56 53 66 74 56 48 44 57 68 80 70 74 79
81 81 85 82 79 85 84 82 83 80 72 52 42 91 53 46 48 47 56 59 62 58 54 51 48 47 45 44 43 46 40 46 48 51 67 61 55 58 60 42 44 50 45 66 71 89 62
81 81 85 81 76 82 84 83 84 80 72 52 52 72 66 76 56 52 54 57 56 56 55 49 47 49 44 40 41 39 42 42 45 54 53 52 63 60 50 43 39 43 47 42 74 68 72
81 82 84 80 75 82 84 86 85 81 72 58 52 54 56 57 55 54 62 55 56 50 56 44 50 45 45 44 42 42 46 40 36 42 41 45 65 51 65 38 44 49 43 41 41 49 55
86 85 83 80 74 82 83 84 85 81 74 62 74 63 56 71 55 55 44 49 52 57 53 52 56 52 43 52 54 47 44 43 45 49 44 47 53 56 55 39 37 38 31 33 36 39 48
89 88 84 80 74 81 82 83 83 80 76 69 68 57 48 48 48 43 51 53 53 55 57 51 52 53 50 46 42 43 51 50 50 50 51 53 50 57 77 53 60 34 36 38 29 34 35
90 88 86 83 72 78 81 81 79 78 75 72 75 66 60 41 39 46 50 51 49 48 58 52 45 44 46 47 42 34 31 39 41 48 52 52 54 59 69 49 28 19 30 40 46 35 31
92 91 88 88 76 74 80 80 80 79 74 64 70 68 59 47 36 41 48 47 48 43 44 51 48 47 52 45 43 44 30 30 30 41 45 49 50 59 47 56 32 30 37 35 36 36 32
92 93 91 90 86 75 78 78 79 78 72 62 68 71 61 57 44 47 46 46 45 51 47 47 49 59 55 45 45 38 37 38 37 36 48 54 53 61 54 55 35 30 37 35 43 39 34
94 94 94 92 91 83 75 81 78 78 72 64 66 68 67 60 53 53 49 54 60 57 45 49 50 59 59 58 44 38 43 36 46 32 34 35 37 47 41 46 58 33 41 39 34 33 34
94 94 95 95 93 90 82 77 82 79 72 68 65 63 61 66 57 55 47 43 48 52 55 52 55 57 50 69 54 47 50 45 40 35 38 43 30 26 29 30 34 32 32 31 35 39 36

GFSGBSN_sfc_rhum_120.txt.gz
RH
65 67 68 71 67 65 66 69 70 67 64 64 63 64 64 64 63 65 66 65 63 60 63 70 74 85 80 82 97 80 81 72 38 37 34 34 34 35 40 35 40 43 38 34 39 42 39
68 65 68 69 69 66 68 68 66 64 63 63 63 65 65 65 67 66 64 62 62 62 62 73 87 92 68 93 87 82 79 61 36 40 39 35 37 34 39 39 44 41 41 42 42 39 36
66 66 66 69 69 70 66 67 66 65 62 63 65 67 70 80 81 78 76 66 62 61 64 76 89 74 84 99 85 88 84 81 52 38 45 38 36 38 40 47 43 45 49 42 40 40 41
69 69 68 68 70 71 66 66 64 67 65 65 66 69 76 78 77 80 83 78 72 70 77 86 73 74 98 86 86 79 81 70 43 36 39 39 36 40 43 41 42 45 50 58 47 46 49
65 68 67 70 68 71 72 68 67 68 68 68 67 70 76 78 82 80 84 87 80 84 78 85 84 72 99 86 83 73 65 52 44 37 38 28 42 47 47 60 57 56 82 53 50 40 46
65 66 68 67 68 71 71 70 71 69 70 70 70 66 69 75 74 76 81 80 73 79 74 59 62 74 81 93 83 67 49 41 43 47 49 50 49 56 53 66 74 64 60 49 45 50 48
66 67 65 70 70 72 71 74 74 74 71 70 70 71 66 69 74 70 72 82 86 88 81 93 85 85 83 71 68 53 36 39 43 46 58 56 61 86 64 46 38 35 38 46 36 44 55
74 66 67 66 68 72 72 74 75 72 75 72 74 75 72 67 69 71 63 81 93 84 94 72 72 77 70 59 59 49 40 47 51 60 51 60 62 46 44 46 45 44 49 49 53 45 50
76 74 67 68 68 70 73 74 76 75 76 78 74 73 72 70 67 65 72 80 70 70 72 62 59 66 70 57 58 58 46 45 50 52 51 65 56 42 42 53 47 46 52 51 61 55 50
76 77 72 67 69 70 74 75 74 76 77 78 79 73 70 72 70 59 65 61 65 67 92 82 66 60 51 54 58 46 48 56 54 55 54 55 46 45 53 46 48 55 47 51 56 79 94
77 77 77 71 69 71 72 76 76 75 75 79 78 78 71 70 64 62 65 58 63 77 92 77 68 48 50 56 56 55 48 51 61 55 65 67 60 60 58 51 48 61 53 60 64 67 88
79 76 78 75 69 72 74 72 75 73 77 81 81 78 71 63 62 64 61 62 75 95 96 78 62 62 55 52 53 52 53 54 54 58 57 55 49 56 53 47 53 50 62 64 61 78 96
80 78 79 76 71 75 76 72 74 75 80 81 79 72 63 50 70 63 68 74 96 94 65 68 67 48 50 53 54 52 55 62 76 90 85 69 64 59 52 59 56 60 73 96 89 96 94
79 81 80 77 72 74 76 78 75 79 81 79 72 72 65 54 61 66 77 92 87 67 63 55 56 53 63 57 55 57 57 73 65 60 77 91 90 64 58 59 68 75 84 90 87 98 92
80 82 80 77 73 77 76 76 75 80 81 76 73 71 64 64 63 70 83 94 90 64 52 57 63 57 62 57 61 55 63 71 62 58 74 82 73 56 56 54 63 91 89 82 97 91 98
80 83 82 78 74 79 78 78 78 79 82 75 65 64 68 59 63 80 94 86 75 56 54 54 65 55 56 56 59 64 59 56 62 61 57 65 76 57 69 69 70 72 82 96 100 98 95
81 81 82 82 76 81 81 80 80 80 80 74 76 78 72 60 74 74 99 81 60 52 55 59 53 50 49 52 52 52 57 63 59 69 62 66 69 71 72 80 79 86 89 92 94 93 97
81 81 82 84 79 82 83 81 81 81 80 79 78 99 67 69 91 72 86 62 70 56 57 56 60 52 50 54 57 59 58 58 54 58 62 62 70 92 66 51 49 58 75 84 98 96 86
82 81 83 85 82 85 84 82 81 80 76 74 68 92 71 75 95 86 64 58 59 58 57 56 54 54 49 51 63 53 52 60 58 62 66 64 79 92 79 61 60 71 69 79 76 76 92
82 81 83 85 82 84 86 84 84 80 76 81 69 97 79 64 59 61 67 66 69 65 58 52 51 52 51 49 46 52 45 55 58 56 68 67 70 76 87 66 56 65 63 80 82 96 70
86 81 83 84 80 80 83 84 85 82 76 83 70 84 77 95 70 62 62 65 62 63 61 52 54 52 51 51 44 44 47 46 51 60 62 68 81 76 65 55 54 55 51 60 85 80 82
87 84 83 84 79 79 83 86 85 82 83 76 76 74 71 70 62 66 72 69 61 54 57 52 58 50 51 56 58 59 55 55 53 56 57 56 82 71 75 52 53 56 48 46 47 61 75
89 88 85 84 79 78 83 86 85 82 78 78 79 71 72 77 66 71 64 56 56 62 56 52 59 60 54 51 61 55 55 54 54 63 57 57 73 81 86 66 64 65 44 41 47 46 47
93 91 88 86 80 78 82 84 84 81 79 84 82 78 68 73 64 55 55 56 56 57 64 54 58 61 61 52 52 55 59 57 59 57 57 72 70 79 93 82 82 48 48 51 52 43 38
93 92 90 88 83 75 79 81 81 77 74 79 84 86 78 71 49 47 54 56 52 56 65 57 52 52 56 61 63 52 59 60 57 61 62 65 75 88 92 87 53 42 40 51 59 53 42
94 94 93 91 89 80 78 79 80 78 72 74 81 82 78 72 55 45 55 52 63 60 54 57 54 57 70 68 60 71 55 56 54 65 53 59 69 83 78 82 60 41 46 45 49 63 47
94 94 94 93 90 88 79 80 78 79 73 76 82 80 85 82 60 56 58 61 57 64 66 59 62 73 69 72 72 62 64 50 52 63 80 81 83 90 89 84 62 44 46 45 65 51 46
94 94 94 94 93 91 85 79 81 79 76 78 85 78 85 85 74 58 56 62 68 73 67 66 67 75 80 81 67 61 59 52 68 49 50 64 74 80 73 77 72 47 51 50 47 51 47
94 94 94 94 95 93 91 84 79 81 77 71 84 70 69 85 76 65 58 54 58 67 73 65 71 69 73 91 80 68 73 64 57 57 53 57 41 44 50 57 44 45 47 45 44 48 54

GFSGBSN_sfc_rhum_123.txt.gz
RH
70 63 68 66 71 66 65 64 64 63 62 63 66 73 75 75 72 65 64 63 63 68 79 83 87 89 88 89 98 86 83 66 44 43 41 37 38 44 45 45 42 44 42 39 42 42 44
64 71 69 69 69 71 65 65 66 64 64 65 71 75 75 76 74 74 67 63 62 71 82 84 91 86 83 93 90 87 73 58 51 43 47 41 42 43 47 48 50 52 48 44 42 40 40
71 71 72 67 70 70 71 68 68 67 66 66 73 76 79 77 79 75 71 67 70 77 78 73 74 64 84 99 89 89 75 77 60 46 49 43 42 41 46 53 46 48 46 53 49 46 50
62 72 72 68 67 70 69 72 70 69 68 70 71 74 78 79 77 78 79 81 81 79 80 71 67 66 98 84 78 76 72 47 44 41 44 40 39 44 46 47 44 51 52 63 52 50 54
65 64 71 73 71 69 69 71 72 71 70 68 72 72 72 73 79 76 76 72 74 76 71 64 76 74 97 75 81 78 74 59 45 41 39 29 41 48 51 64 68 58 86 61 57 46 54
67 66 65 68 74 70 70 70 71 72 73 73 72 74 74 72 73 75 76 69 68 68 66 60 63 78 78 86 80 70 58 52 51 54 52 48 56 66 66 80 79 72 72 52 56 54 55
72 67 67 65 68 74 74 71 71 70 74 76 74 74 73 73 76 76 77 83 84 79 74 88 77 79 72 69 69 54 45 46 51 55 62 57 74 88 66 54 46 42 42 49 45 53 54
74 69 67 68 68 72 76 72 72 72 74 76 79 75 71 70 72 73 75 90 92 87 89 73 73 75 67 65 61 56 48 59 61 64 56 70 75 57 52 50 49 47 54 61 61 51 56
74 72 71 68 68 72 76 77 72 72 75 78 79 78 73 71 74 76 88 90 79 82 81 72 64 71 71 58 64 66 59 59 59 62 68 78 65 47 49 57 55 55 60 67 68 66 63
75 76 74 70 70 76 77 77 77 74 76 81 80 79 73 78 72 72 82 74 77 78 91 88 74 65 62 60 66 51 53 65 58 67 64 63 52 51 57 54 54 66 58 59 66 80 86
78 77 76 72 71 76 76 75 77 73 79 81 81 77 72 75 83 85 76 69 73 78 90 74 71 52 60 62 58 54 51 57 73 65 66 76 63 64 67 62 55 71 62 69 73 83 90
78 79 78 73 73 73 73 78 77 76 80 80 79 71 75 70 81 78 73 77 84 83 96 79 68 65 65 63 58 56 57 54 59 64 59 61 55 62 67 55 58 59 70 76 77 85 94
78 80 79 75 73 76 75 71 74 77 80 80 74 73 72 62 82 74 81 88 88 94 68 72 69 56 51 57 59 62 69 77 85 85 87 72 73 65 58 71 66 69 79 97 94 96 93
79 81 81 78 74 74 76 76 77 78 81 78 75 75 73 62 78 78 90 83 91 77 75 56 57 66 74 68 57 63 65 82 68 71 84 93 84 76 65 66 66 64 83 87 94 91 93
81 82 83 80 73 78 78 78 79 80 83 80 77 87 82 74 70 84 81 96 89 74 59 68 70 72 74 66 62 59 72 79 62 66 86 88 80 67 64 59 70 90 84 78 95 94 89
81 82 83 81 75 80 80 79 80 81 83 80 91 85 80 68 75 91 92 87 85 66 64 66 79 66 64 59 63 65 75 63 69 70 70 66 81 68 74 70 74 72 82 91 98 93 98
82 81 81 82 79 81 81 80 79 80 79 79 92 91 78 71 87 82 96 85 72 61 64 73 73 51 53 52 50 53 70 71 68 76 64 65 70 75 81 89 84 84 81 93 91 98 88
83 80 82 84 82 82 82 79 79 80 79 79 90 82 73 83 88 94 90 76 70 67 66 68 70 65 67 62 69 69 71 70 62 64 75 70 83 95 77 61 64 76 86 88 97 95 91
84 80 82 85 85 86 82 80 80 79 77 89 80 94 74 75 94 93 78 71 69 67 65 67 65 61 58 63 72 61 61 62 61 66 78 76 84 95 78 67 67 76 82 83 82 86 96
87 82 83 85 85 84 85 84 84 78 77 86 82 83 88 78 80 77 79 77 78 73 70 61 60 58 64 61 55 58 55 63 60 59 67 69 82 83 78 68 71 78 74 86 85 98 90
89 86 84 85 82 81 84 85 84 82 84 83 84 88 84 94 82 76 77 76 71 75 71 61 66 60 61 67 59 55 57 56 68 66 69 77 91 86 76 69 68 67 66 79 94 77 82
91 87 86 85 82 80 82 86 85 82 81 84 84 89 82 83 70 77 81 77 68 66 65 66 68 63 61 67 62 69 66 66 62 71 65 71 83 82 82 63 65 72 64 63 66 76 74
93 92 88 87 83 79 82 86 85 81 82 92 94 84 78 84 77 79 78 71 66 68 63 62 67 72 68 62 70 65 63 61 66 74 68 71 83 85 86 74 76 67 62 52 57 55 66
93 93 91 90 87 79 81 84 85 81 83 94 95 94 80 77 76 68 58 59 64 67 72 63 68 78 65 64 63 66 79 73 74 74 66 78 80 85 92 84 69 38 51 47 47 47 48
93 94 94 92 89 81 78 80 80 77 75 91 95 95 88 72 64 48 56 62 63 64 68 66 60 63 66 66 75 64 64 72 68 76 76 72 82 93 93 94 59 48 48 54 60 45 49
94 94 94 94 92 88 80 79 78 79 72 86 93 94 92 86 62 53 60 59 70 76 69 66 66 67 72 76 70 77 59 48 51 73 60 73 77 85 92 90 68 35 47 48 48 50 50
94 94 94 94 94 90 86 79 80 78 75 84 91 88 94 93 83 69 63 66 65 76 75 68 74 78 78 87 83 76 73 51 54 59 84 86 82 93 87 92 77 51 48 48 45 27 50
95 95 94 94 94 94 91 85 80 81 77 81 92 87 87 94 88 70 60 67 75 79 76 67 64 73 90 87 82 75 69 58 69 60 75 79 91 97 94 96 84 50 54 42 39 55 49
95 95 94 94 94 94 94 92 83 81 80 72 94 80 80 90 78 75 62 62 59 66 78 76 68 76 77 94 91 86 76 76 73 72 57 58 57 58 68 67 47 50 40 44 48 48 51